Date StartTime U_cm/s V_cm/s W_cm/s Ustd_cm/s Vstd_cm/s Wstd_cm/s Uvar_(cm/s)^2 Vvar_(cm/s)^2 Wvar_(cm/s)^2 KE_(m/s)^2 TurbulentKE_(m/s)^2 HorizWindSpeed_cm/s FrictionSpeec_cm/s DragCoef SpeedOfSound_m/s SonicTemperature_C Pressure_mb 
01/06/2015  00:00:00     -118.937      -25.560      -16.480       11.662       13.887        8.855      136.006      192.852       78.416        0.774        0.020      121.653        3.046        0.001      333.914        3.541      872.938
01/06/2015  00:01:00     -111.640      -19.509      -24.061       17.133       14.107       10.151      293.556      198.997      103.034        0.701        0.030      113.332        9.069        0.006      333.920        3.551      872.935
01/06/2015  00:02:00     -110.228      -28.277      -14.348       18.326       16.962       14.351      335.839      287.722      205.948        0.699        0.041      113.797       10.199        0.008      333.923        3.556      872.928
01/06/2015  00:03:00     -130.107      -24.515      -14.111       19.090       19.918       13.860      364.423      396.738      192.094        0.934        0.048      132.396       11.565        0.008      333.935        3.576      872.924
01/06/2015  00:04:00     -122.441      -30.355      -12.457       17.628       14.703       12.136      310.762      216.187      147.272        0.837        0.034      126.148        7.258        0.003      333.902        3.521      872.926
01/06/2015  00:05:00     -116.104      -41.777      -10.717        9.543       13.790        7.528       91.066      190.164       56.677        0.784        0.017      123.391        5.614        0.002      333.839        3.418      872.940
01/06/2015  00:06:00      -75.977      -47.743       -1.906       27.006       17.614       15.125      729.350      310.237      228.772        0.466        0.063       89.732       15.190        0.029      333.747        3.264      872.953
01/06/2015  00:07:00      -87.276      -49.190       -5.605       27.230       17.066       16.311      741.455      291.250      266.060        0.568        0.065      100.183       17.672        0.031      333.781        3.320      872.969
01/06/2015  00:08:00      -91.396      -56.722       -9.311       15.182       13.032       10.258      230.487      169.826      105.227        0.608        0.025      107.567        6.085        0.003      333.823        3.391      872.981
01/06/2015  00:09:00     -114.344      -51.684      -10.277       14.743       14.060       10.186      217.342      197.679      103.757        0.818        0.026      125.482        7.471        0.004      333.799        3.352      872.993
01/06/2015  00:10:00     -100.085      -41.232      -13.731        7.538       12.530        8.126       56.819      157.000       66.033        0.609        0.014      108.246        2.251        0.000      333.782        3.323      872.992
01/06/2015  00:11:00     -106.270      -33.467      -17.130       10.364        8.986        7.637      107.417       80.745       58.318        0.648        0.012      111.415        3.524        0.001      333.840        3.418      872.990
01/06/2015  00:12:00     -106.939      -36.332      -14.574        9.574        8.723        8.557       91.655       76.088       73.223        0.660        0.012      112.942        6.059        0.003      333.830        3.403      872.991
01/06/2015  00:13:00      -96.769      -46.418      -14.830       13.567       15.749        7.114      184.066      248.026       50.604        0.611        0.024      107.326        4.448        0.002      333.886        3.495      872.987
01/06/2015  00:14:00     -102.536      -66.194      -10.467       14.908       16.845       12.018      222.241      283.769      144.436        0.783        0.033      122.046        8.729        0.005      333.945        3.594      872.990
01/06/2015  00:15:00     -112.441      -64.539      -18.538       16.903       16.360       13.038      285.722      267.652      169.993        0.894        0.036      129.647        7.255        0.003      333.918        3.549      872.990
01/06/2015  00:16:00     -132.729      -66.149      -16.536       15.844       16.644       14.018      251.018      277.028      196.507        1.150        0.036      148.300        6.001        0.002      333.839        3.416      872.979
01/06/2015  00:17:00     -141.534      -61.097      -17.856       22.860       19.240       12.952      522.587      370.165      167.749        1.257        0.053      154.158       13.806        0.008      333.721        3.222      872.973
01/06/2015  00:18:00     -124.580      -44.298      -10.976       13.571       17.564       11.059      184.159      308.490      122.296        0.911        0.031      132.222        6.779        0.003      333.651        3.105      872.979
01/06/2015  00:19:00      -98.482      -28.188       -5.654       26.319       14.586       13.507      692.715      212.749      182.450        0.581        0.054      102.437       14.782        0.021      333.609        3.036      872.986
01/06/2015  00:20:00      -88.555      -38.452       -6.383       27.097       24.957       14.916      734.230      622.869      222.483        0.547        0.079       96.543       12.286        0.016      333.759        3.283      872.989
01/06/2015  00:21:00      -60.303      -31.138       -1.104       29.852       24.461       16.862      891.166      598.316      284.337        0.319        0.089       67.868       15.426        0.052      333.704        3.194      872.984
01/06/2015  00:22:00     -114.305      -36.809      -14.733       20.518       20.636       13.460      420.996      425.863      181.167        0.783        0.051      120.086        9.310        0.006      333.718        3.216      872.973
01/06/2015  00:23:00      -89.031      -51.398       -8.038       32.556       17.973       13.262     1059.869      323.033      175.874        0.610        0.078      102.802       12.577        0.015      333.699        3.184      872.963
01/06/2015  00:24:00      -91.407      -62.819       -8.770       28.124       23.755       16.216      790.958      564.305      262.948        0.700        0.081      110.912       10.117        0.008      333.666        3.130      872.953
01/06/2015  00:25:00      -83.160      -49.304       -7.183       26.870       23.884       16.550      721.998      570.463      273.891        0.548        0.078       96.677       13.850        0.021      333.616        3.048      872.965
01/06/2015  00:26:00      -73.319      -41.714       -9.788       11.752       16.211       10.733      138.114      262.803      115.193        0.386        0.026       84.355        9.476        0.013      333.675        3.145      872.970
01/06/2015  00:27:00      -61.916      -43.386       -2.957       18.333       14.091       10.167      336.097      198.558      103.360        0.318        0.032       75.603        6.734        0.008      333.716        3.212      872.976
01/06/2015  00:28:00      -67.430      -51.012       -0.575       18.237       12.290        9.398      332.582      151.054       88.325        0.386        0.029       84.552        8.462        0.010      333.673        3.142      872.986
01/06/2015  00:29:00      -88.204      -48.457       -6.202       16.615       12.712       13.731      276.047      161.590      188.536        0.540        0.031      100.638        9.036        0.008      333.738        3.249      872.981
01/06/2015  00:30:00      -88.512      -51.963       -5.792       21.464       15.282       13.939      460.723      233.524      194.307        0.573        0.044      102.637       12.974        0.016      333.721        3.222      872.986
01/06/2015  00:31:00      -95.292      -54.880       -5.016       21.704       13.452       11.872      471.074      180.967      140.952        0.646        0.040      109.966       10.515        0.009      333.783        3.325      872.982
01/06/2015  00:32:00      -91.918      -53.678       -5.916       20.338       17.455       13.979      413.641      304.688      195.401        0.614        0.046      106.444       12.565        0.014      333.719        3.217      872.983
01/06/2015  00:33:00      -84.624      -56.092       -0.099       23.530       15.372       15.681      553.659      236.295      245.891        0.567        0.052      101.527       13.773        0.018      333.601        3.021      872.981
01/06/2015  00:34:00      -74.119      -48.171       -0.631       23.396       16.914       16.892      547.364      286.090      285.354        0.447        0.056       88.397       10.737        0.015      333.581        2.989      872.977
01/06/2015  00:35:00      -73.118      -40.273        4.198       25.478       20.024       18.191      649.125      400.949      330.927        0.418        0.069       83.475       14.010        0.028      333.622        3.056      872.974
01/06/2015  00:36:00      -78.916      -31.543       -4.016       15.848       13.502        8.254      251.171      182.298       68.128        0.387        0.025       84.986        3.370        0.002      333.707        3.198      872.968
01/06/2015  00:37:00      -65.911      -33.437       -0.710       18.121       17.577       11.900      328.367      308.956      141.603        0.312        0.039       73.907        8.801        0.014      333.700        3.186      872.969
01/06/2015  00:38:00      -72.529      -47.058       -7.404       18.538       14.376       12.051      343.655      206.662      145.238        0.411        0.035       86.458        7.033        0.007      333.692        3.174      872.976
01/06/2015  00:39:00      -74.083      -41.185       -3.021       20.921       19.262       14.297      437.671      371.016      204.402        0.410        0.051       84.761       10.608        0.016      333.600        3.021      872.984
01/06/2015  00:40:00      -37.685      -32.085        6.754       34.273       20.954       15.699     1174.652      439.075      246.452        0.218        0.093       49.494       15.881        0.103      333.517        2.884      872.982
01/06/2015  00:41:00     -101.624      -32.814       -6.403       10.884       18.237       11.516      118.465      332.590      132.626        0.601        0.029      106.790        8.832        0.007      333.448        2.767      872.990
01/06/2015  00:42:00     -102.538      -24.588      -13.112       10.447       10.620       11.034      109.141      112.788      121.758        0.582        0.017      105.445        7.467        0.005      333.433        2.743      872.986
01/06/2015  00:43:00      -97.915      -26.102      -13.503       27.116       15.332        8.821      735.279      235.080       77.809        0.575        0.052      101.334        8.203        0.007      333.470        2.803      872.989
01/06/2015  00:44:00      -88.058      -14.399       -3.198       24.523       15.130       12.538      601.370      228.911      157.202        0.448        0.049       89.228        9.883        0.012      333.428        2.736      873.006
01/06/2015  00:45:00     -111.231      -12.319       -6.671       21.302       14.231       12.378      453.789      202.527      153.225        0.669        0.040      111.911       12.077        0.012      333.470        2.804      873.021
01/06/2015  00:46:00     -108.789      -23.014       -9.541       18.853       12.703       11.882      355.431      161.364      141.176        0.656        0.033      111.197        8.424        0.006      333.514        2.878      873.038
01/06/2015  00:47:00     -119.608      -24.160      -13.681       16.478       14.482       11.593      271.516      209.741      134.392        0.785        0.031      122.023       10.521        0.007      333.451        2.772      873.048
01/06/2015  00:48:00     -104.602      -18.024       -9.789       25.356       16.137       15.666      642.916      260.411      245.419        0.626        0.057      106.144       14.141        0.018      333.472        2.808      873.058
01/06/2015  00:49:00     -113.407      -19.145      -16.209       11.280        8.022        8.137      127.228       64.359       66.205        0.687        0.013      115.012        6.652        0.003      333.501        2.854      873.063
01/06/2015  00:50:00     -106.955      -12.467      -20.344       11.841        9.215       10.474      140.207       84.911      109.704        0.617        0.017      107.679        4.061        0.001      333.469        2.801      873.068
01/06/2015  00:51:00     -113.187      -13.801      -18.382       18.170       12.225       10.157      330.138      149.458      103.160        0.696        0.029      114.026        8.845        0.006      333.469        2.803      873.076
01/06/2015  00:52:00      -97.925       -9.763      -16.725       22.751       14.867       13.929      517.621      221.027      194.015        0.545        0.047       98.410        9.495        0.009      333.387        2.667      873.081
01/06/2015  00:53:00      -79.694      -22.836      -16.717       19.702       20.191       11.888      388.178      407.675      141.316        0.404        0.047       82.901        9.818        0.014      333.336        2.585      873.083
01/06/2015  00:54:00      -95.079      -20.842      -12.022       22.323       20.616       14.023      498.329      425.032      196.653        0.537        0.056       97.337       11.297        0.013      333.326        2.568      873.068
01/06/2015  00:55:00      -80.479      -27.661      -12.265       29.586       21.696       18.910      875.306      470.738      357.592        0.455        0.085       85.100       14.300        0.028      333.249        2.440      873.071
01/06/2015  00:56:00      -89.443      -30.685      -16.096       18.626       24.174       14.890      346.919      584.374      221.715        0.518        0.058       94.560        6.851        0.005      333.289        2.506      873.076
01/06/2015  00:57:00      -60.244      -47.005       -9.622       21.734       27.990       16.267      472.378      783.415      264.624        0.373        0.076       76.412        5.371        0.005      333.276        2.484      873.095
01/06/2015  00:58:00      -66.675      -44.788       -7.994       19.129       24.951       14.392      365.924      622.573      207.129        0.386        0.060       80.321       11.489        0.020      333.183        2.329      873.096
01/06/2015  00:59:00      -94.149      -27.248      -16.884       11.583        9.199        9.934      134.175       84.627       98.678        0.510        0.016       98.013        5.481        0.003      333.313        2.544      873.102
01/06/2015  01:00:00      -73.365      -32.098      -17.377       12.198       10.822       11.839      148.799      117.114      140.171        0.356        0.020       80.079        4.841        0.004      333.299        2.521      873.090
01/06/2015  01:01:00      -74.563      -23.214      -10.927       15.725        7.194        9.712      247.272       51.758       94.324        0.331        0.020       78.094        4.178        0.003      333.287        2.503      873.089
01/06/2015  01:02:00      -57.735      -18.993      -14.728       14.180       12.680        7.625      201.068      160.778       58.146        0.217        0.021       60.779        7.122        0.014      333.327        2.568      873.082
01/06/2015  01:03:00      -56.139      -26.824      -13.961        9.052       12.385        9.042       81.938      153.400       81.760        0.219        0.016       62.218        6.120        0.010      333.387        2.669      873.090
01/06/2015  01:04:00      -56.502      -12.601      -15.759       13.028       12.191        8.498      169.731      148.624       72.224        0.199        0.020       57.890        5.174        0.008      333.478        2.818      873.095
01/06/2015  01:05:00      -54.212      -14.758      -11.817       11.047       13.150        9.017      122.031      172.924       81.312        0.184        0.019       56.185        6.884        0.015      333.544        2.927      873.097
01/06/2015  01:06:00      -50.793      -24.007       -8.275        5.183        6.185        5.810       26.864       38.256       33.753        0.166        0.005       56.181        2.824        0.003      333.562        2.958      873.093
01/06/2015  01:07:00      -57.822      -26.997      -13.375        6.773        7.551        6.503       45.868       57.016       42.291        0.220        0.007       63.814        3.443        0.003      333.551        2.940      873.088
01/06/2015  01:08:00      -50.891      -17.819      -12.721        4.627        6.950        4.963       21.406       48.308       24.627        0.158        0.005       53.920        3.302        0.004      333.611        3.039      873.091
01/06/2015  01:09:00      -63.868      -16.500       -8.921        5.123        5.551        4.034       26.249       30.811       16.272        0.225        0.004       65.965        1.664        0.001      333.557        2.950      873.097
01/06/2015  01:10:00      -65.297      -10.551      -16.618        7.274        9.161        6.268       52.911       83.926       39.285        0.241        0.009       66.144        4.408        0.004      333.588        3.001      873.113
01/06/2015  01:11:00      -60.102       -0.650      -12.603       15.577       17.490        9.193      242.646      305.890       84.516        0.220        0.032       60.105        4.558        0.006      333.678        3.150      873.139
01/06/2015  01:12:00      -60.281       -5.670      -14.690        9.800        9.133        7.293       96.035       83.418       53.184        0.206        0.012       60.547        3.240        0.003      333.624        3.061      873.155
01/06/2015  01:13:00      -41.395      -16.406       -8.607        6.368        5.961        3.518       40.558       35.537       12.373        0.107        0.004       44.528        1.476        0.001      333.752        3.273      873.171
01/06/2015  01:14:00      -28.587      -14.401      -10.322       12.043        8.978        5.001      145.034       80.607       25.008        0.069        0.013       32.010        2.454        0.006      333.833        3.408      873.178
01/06/2015  01:15:00      -43.283      -35.035      -12.938       13.035        9.907        7.563      169.914       98.151       57.204        0.180        0.016       55.685        6.491        0.014      333.522        2.892      873.171
01/06/2015  01:16:00      -39.500      -43.926      -15.574       11.855        9.731        9.591      140.552       94.688       91.986        0.203        0.016       59.074        5.698        0.009      333.390        2.673      873.168
01/06/2015  01:17:00      -29.756      -35.613      -21.195       10.580       12.018       12.073      111.941      144.435      145.765        0.150        0.020       46.409        4.252        0.008      333.413        2.712      873.165
01/06/2015  01:18:00      -54.940      -25.702      -11.154       26.929       15.888       13.089      725.167      252.437      171.314        0.248        0.057       60.654       12.585        0.043      333.216        2.383      873.166
01/06/2015  01:19:00      -88.795      -16.241      -17.056       12.007       10.852        9.140      144.157      117.770       83.542        0.439        0.017       90.268        6.276        0.005      333.130        2.244      873.174
01/06/2015  01:20:00      -96.444      -21.900      -16.184       14.336       11.468        8.410      205.509      131.520       70.720        0.523        0.020       98.899        5.219        0.003      333.147        2.271      873.174
01/06/2015  01:21:00      -99.127      -17.615      -15.924       17.041       16.175        9.428      290.407      261.641       88.885        0.552        0.032      100.680        7.610        0.006      333.128        2.240      873.183
01/06/2015  01:22:00      -85.838      -27.872      -12.426       23.387       14.332       16.225      546.950      205.412      263.251        0.466        0.051       90.250       14.499        0.026      333.104        2.201      873.179
01/06/2015  01:23:00      -76.250      -43.709      -10.134       21.126       19.960       16.107      446.322      398.391      259.440        0.447        0.055       87.889       11.028        0.016      333.129        2.240      873.177
01/06/2015  01:24:00     -104.983      -20.068      -15.500       18.063       21.551       13.897      326.274      464.465      193.129        0.632        0.049      106.884        8.829        0.007      333.146        2.268      873.178
01/06/2015  01:25:00      -73.895      -36.270      -11.304       26.218       14.715       14.856      687.385      216.530      220.708        0.401        0.056       82.316       13.060        0.025      333.101        2.195      873.179
01/06/2015  01:26:00     -104.758      -13.797      -16.455       13.854       14.511        9.266      191.931      210.580       85.862        0.596        0.024      105.662        7.380        0.005      333.063        2.133      873.179
01/06/2015  01:27:00      -97.996       -6.457      -12.176       19.809       18.521       13.407      392.382      343.033      179.759        0.535        0.046       98.209        9.937        0.010      333.090        2.177      873.175
01/06/2015  01:28:00      -94.512      -16.477      -17.350       10.928       16.003       10.334      119.424      256.082      106.799        0.499        0.024       95.938        7.945        0.007      333.123        2.231      873.181
01/06/2015  01:29:00      -67.177      -12.197      -11.077       18.513        9.758        7.375      342.747       95.211       54.387        0.264        0.025       68.276        7.679        0.013      333.159        2.291      873.190
01/06/2015  01:30:00      -71.337       -0.988      -12.461        9.144        8.215        6.298       83.620       67.484       39.668        0.272        0.010       71.343        3.227        0.002      333.210        2.375      873.189
01/06/2015  01:31:00      -77.614       -3.040      -14.130        7.393        8.875        7.109       54.651       78.766       50.534        0.321        0.009       77.673        3.353        0.002      333.150        2.275      873.185
01/06/2015  01:32:00      -65.725      -12.549      -14.054        7.255        6.995        5.913       52.638       48.934       34.967        0.241        0.007       66.912        3.375        0.003      333.130        2.244      873.183
01/06/2015  01:33:00      -53.240      -18.169      -16.193       13.612        9.887        5.402      185.296       97.754       29.183        0.187        0.016       56.254        1.403        0.001      333.146        2.269      873.182
01/06/2015  01:34:00      -53.985      -30.802      -12.892        8.442        8.730        7.576       71.275       76.217       57.399        0.212        0.010       62.155        4.578        0.005      333.193        2.347      873.186
01/06/2015  01:35:00      -62.660      -14.511      -11.152       11.156       12.798        9.575      124.452      163.783       91.674        0.232        0.019       64.319        7.514        0.014      333.280        2.489      873.199
01/06/2015  01:36:00      -52.886       -2.140       -7.502       10.465        9.532        6.764      109.520       90.853       45.748        0.155        0.012       52.929        5.497        0.011      333.207        2.370      873.228
01/06/2015  01:37:00       -7.959       -5.237       -1.755       14.919        7.700        5.256      222.570       59.294       27.628        0.020        0.015        9.528        4.747        0.248      333.512        2.875      873.240
01/06/2015  01:38:00      -23.951       -7.173       -5.150        8.122        9.458        5.016       65.963       89.454       25.159        0.042        0.009       25.002        1.961        0.006      333.430        2.739      873.239
01/06/2015  01:39:00      -44.403      -36.634       -9.647       12.055       10.817        6.397      145.327      117.010       40.925        0.185        0.015       57.565        2.673        0.002      333.376        2.649      873.229
01/06/2015  01:40:00      -65.652      -25.409      -14.320       10.143        9.826        7.609      102.876       96.551       57.896        0.271        0.013       70.397        5.856        0.007      333.183        2.333      873.227
01/06/2015  01:41:00      -74.963      -29.311      -12.186        7.025        7.840        7.149       49.353       61.462       51.109        0.339        0.008       80.490        3.665        0.002      333.130        2.243      873.235
01/06/2015  01:42:00      -75.863      -28.466      -11.996       10.106       10.891        8.821      102.126      118.622       77.809        0.350        0.015       81.027        6.860        0.007      333.117        2.223      873.256
01/06/2015  01:43:00      -96.943      -22.994      -14.469       18.861       12.547        9.075      355.723      157.440       82.357        0.537        0.030       99.633        8.695        0.008      333.186        2.335      873.258
01/06/2015  01:44:00     -108.108      -28.028      -15.602        8.162        9.013        6.757       66.611       81.232       45.660        0.645        0.010      111.682        3.838        0.001      333.263        2.463      873.260
01/06/2015  01:45:00      -96.082      -23.721      -12.372       10.749        8.541        6.527      115.532       72.943       42.601        0.509        0.012       98.967        3.692        0.001      333.254        2.449      873.256
01/06/2015  01:46:00      -96.221      -12.380      -12.902        8.470        8.304        7.568       71.746       68.948       57.272        0.489        0.010       97.014        4.067        0.002      333.230        2.409      873.261
01/06/2015  01:47:00      -93.995      -14.149       -7.536       14.487        9.343        8.438      209.863       87.298       71.194        0.473        0.018       95.054        5.828        0.004      333.200        2.357      873.263
01/06/2015  01:48:00      -97.263      -16.810       -6.983       21.143       19.268       13.388      447.035      371.258      179.252        0.539        0.050       98.705        7.400        0.006      333.205        2.367      873.272
01/06/2015  01:49:00     -102.279      -26.343      -10.948       14.175       13.850        9.346      200.941      191.825       87.349        0.588        0.024      105.617        4.374        0.002      333.202        2.361      873.288
01/06/2015  01:50:00      -99.736      -31.044       -7.606        8.293       16.149        7.480       68.768      260.790       55.954        0.568        0.019      104.456        2.354        0.001      333.174        2.315      873.309
01/06/2015  01:51:00     -105.981      -18.380      -11.135       10.717       11.322       10.619      114.847      128.197      112.760        0.602        0.018      107.563        4.494        0.002      333.125        2.236      873.322
01/06/2015  01:52:00     -106.248      -22.370      -12.120       27.704       13.087       12.430      767.533      171.257      154.508        0.651        0.055      108.578       11.563        0.011      333.120        2.227      873.336
01/06/2015  01:53:00     -119.764      -28.754      -10.442       18.167       13.478       12.094      330.042      181.651      146.256        0.797        0.033      123.167        6.697        0.003      333.078        2.156      873.349
01/06/2015  01:54:00      -94.591      -42.054        3.268       32.054       18.231       14.258     1027.486      332.387      203.298        0.614        0.078      103.519       16.803        0.026      333.011        2.046      873.363
01/06/2015  01:55:00      -76.066      -37.402        5.004       27.732       22.038       16.746      769.071      485.657      280.427        0.437        0.077       84.764       15.330        0.033      333.058        2.124      873.386
01/06/2015  01:56:00      -75.493      -51.043        2.624       28.654       19.324       16.977      821.065      373.405      288.233        0.490        0.074       91.130       15.097        0.027      332.973        1.984      873.404
01/06/2015  01:57:00      -92.977      -49.446       -0.328       30.276       20.485       16.642      916.618      419.652      276.954        0.635        0.081      105.308       16.245        0.024      333.013        2.050      873.409
01/06/2015  01:58:00      -91.934      -39.752        2.107       24.035       22.515       14.860      577.676      506.944      220.817        0.567        0.065      100.161       13.182        0.017      333.042        2.096      873.412
01/06/2015  01:59:00      -62.984      -33.540       11.407       39.278       23.309       18.757     1542.745      543.321      351.839        0.383        0.122       71.357       18.159        0.065      332.967        1.973      873.416
01/06/2015  02:00:00      -51.100      -24.923        8.878       39.209       28.282       24.053     1537.308      799.867      578.531        0.311        0.146       56.854       19.944        0.123      333.066        2.137      873.425
01/06/2015  02:01:00      -74.560      -46.731       10.601       46.993       29.595       28.814     2208.359      875.869      830.257        0.588        0.196       87.994       28.369        0.104      333.093        2.182      873.430
01/06/2015  02:02:00      -81.901      -50.424        8.947       44.149       33.043       21.911     1949.172     1091.864      480.099        0.643        0.176       96.179       22.436        0.054      333.100        2.193      873.426
01/06/2015  02:03:00      -81.045      -36.628        8.700       47.821       38.127       26.136     2286.845     1453.696      683.091        0.620        0.221       88.938       25.599        0.083      333.161        2.295      873.425
01/06/2015  02:04:00     -100.896      -62.758        7.275       44.642       27.179       22.780     1992.881      738.683      518.950        0.871        0.163      118.822       24.748        0.043      333.203        2.365      873.424
01/06/2015  02:05:00     -123.996      -55.613       -5.432       31.926       25.413       16.043     1019.258      645.803      257.388        1.021        0.096      135.896       14.799        0.012      333.293        2.513      873.418
01/06/2015  02:06:00     -129.513      -68.950        1.078       34.869       25.255       14.164     1215.853      637.823      200.631        1.179        0.103      146.724       12.827        0.008      333.265        2.465      873.402
01/06/2015  02:07:00     -113.598      -65.069        1.557       33.306       28.154       18.998     1109.270      792.665      360.932        0.970        0.113      130.914       15.999        0.015      333.257        2.454      873.393
01/06/2015  02:08:00     -109.524      -51.006        2.494       35.283       26.466       24.052     1244.916      700.429      578.482        0.856        0.126      120.819       19.384        0.026      333.254        2.449      873.394
01/06/2015  02:09:00     -118.654      -35.112       -1.254       20.301       18.927       13.332      412.141      358.217      177.736        0.813        0.047      123.740       10.591        0.007      333.201        2.359      873.391
01/06/2015  02:10:00     -110.040      -34.516       -7.221       20.014       14.686       12.722      400.570      215.688      161.857        0.707        0.039      115.326       10.360        0.008      333.167        2.304      873.388
01/06/2015  02:11:00     -100.088      -50.315       -0.790       21.369       17.929       15.584      456.646      321.440      242.860        0.679        0.051      112.024       14.060        0.016      333.152        2.279      873.386
01/06/2015  02:12:00      -96.255      -32.086       -3.558       22.161       16.892       13.766      491.116      285.352      189.506        0.564        0.048      101.462       14.219        0.020      333.041        2.096      873.383
01/06/2015  02:13:00      -92.320      -50.962       -0.732       22.171       16.640       13.514      491.548      276.897      182.618        0.604        0.048      105.452       11.778        0.012      333.073        2.151      873.385
01/06/2015  02:14:00     -114.834      -41.513       -5.850       17.671       15.728        8.111      312.279      247.355       65.789        0.778        0.031      122.107        5.132        0.002      333.113        2.214      873.394
01/06/2015  02:15:00     -102.084      -20.071       -3.403       23.168       17.605       14.452      536.764      309.954      208.872        0.595        0.053      104.038       11.698        0.013      333.086        2.171      873.395
01/06/2015  02:16:00      -76.357      -21.551       -3.084       26.974       21.474       13.718      727.585      461.118      188.177        0.384        0.069       79.340       10.489        0.017      333.076        2.154      873.393
01/06/2015  02:17:00      -87.107      -27.528       -1.275       23.511       25.065       17.162      552.767      628.244      294.531        0.491        0.074       91.353        9.569        0.011      333.087        2.171      873.396
01/06/2015  02:18:00      -86.235      -13.633       -0.491       28.168       16.704       17.309      793.426      279.031      299.601        0.450        0.069       87.306       18.343        0.044      333.064        2.133      873.410
01/06/2015  02:19:00     -104.306       -8.911       -9.687       18.351       17.466       13.842      336.753      305.054      191.609        0.594        0.042      104.686       10.213        0.010      333.069        2.143      873.416
01/06/2015  02:20:00     -111.028       -9.745       -8.792       15.039       13.090       10.143      226.179      171.351      102.888        0.650        0.025      111.455       10.128        0.008      333.003        2.033      873.407
01/06/2015  02:21:00      -88.784      -18.320       -7.807       26.018       22.035       17.404      676.954      485.560      302.894        0.487        0.073       90.654       17.121        0.036      332.843        1.771      873.389
01/06/2015  02:22:00     -103.884      -34.628       -8.469       26.287       20.706       20.061      691.025      428.739      402.463        0.679        0.076      109.503       15.884        0.021      332.811        1.717      873.369
01/06/2015  02:23:00      -73.958      -50.327        4.002       26.840       26.556       24.028      720.363      705.206      577.331        0.501        0.100       89.457       18.316        0.042      332.723        1.570      873.365
01/06/2015  02:24:00      -94.422      -32.880       -3.843       22.444       24.964       14.779      503.748      623.198      218.411        0.568        0.067       99.983        8.987        0.008      332.711        1.551      873.375
01/06/2015  02:25:00     -101.588      -27.946       -5.646       33.217       22.943       18.305     1103.340      526.378      335.057        0.655        0.098      105.362       14.777        0.020      332.674        1.491      873.381
01/06/2015  02:26:00      -66.667      -11.797       -2.033       35.812       30.690       19.512     1282.483      941.860      380.727        0.360        0.130       67.703       14.198        0.044      332.740        1.601      873.384
01/06/2015  02:27:00     -106.475        5.517       -4.668       29.042       32.126       20.619      843.429     1032.067      425.126        0.684        0.115      106.617       16.455        0.024      332.970        1.979      873.379
01/06/2015  02:28:00     -123.155        2.038      -14.191       26.240       22.800       15.890      688.522      519.818      252.506        0.842        0.073      123.172       10.421        0.007      332.988        2.009      873.373
01/06/2015  02:29:00     -126.091        2.730       -9.338       39.994       32.652       25.236     1599.549     1066.184      636.867        0.965        0.165      126.121       24.238        0.037      332.872        1.818      873.375
01/06/2015  02:30:00      -97.585      -18.781       -8.245       41.514       37.774       21.595     1723.393     1426.875      466.362        0.678        0.181       99.376       23.095        0.054      332.884        1.839      873.370
01/06/2015  02:31:00      -75.439      -39.730        0.790       31.799       24.999       18.364     1011.164      624.943      337.226        0.462        0.099       85.261       11.716        0.019      332.797        1.694      873.368
01/06/2015  02:32:00      -59.629      -35.419       -2.123       25.453       27.071       15.670      647.869      732.833      245.550        0.322        0.081       69.355       13.516        0.038      332.775        1.657      873.356
01/06/2015  02:33:00      -71.546      -39.577       -3.789       27.574       17.141       10.682      760.321      293.824      114.095        0.393        0.058       81.763        7.438        0.008      332.837        1.760      873.335
01/06/2015  02:34:00      -53.476      -42.979       -0.481       20.485       17.524       16.154      419.623      307.085      260.937        0.285        0.049       68.606       11.464        0.028      332.850        1.782      873.317
01/06/2015  02:35:00      -74.251      -32.982       -8.486       22.613       18.769       12.933      511.354      352.259      167.274        0.385        0.052       81.247       10.885        0.018      332.823        1.738      873.300
01/06/2015  02:36:00      -83.034      -34.080       -8.368       16.785       19.717       10.673      281.748      388.755      113.906        0.446        0.039       89.756        6.829        0.006      332.783        1.671      873.287
01/06/2015  02:37:00      -80.148      -36.174      -16.416       15.129       15.670        8.935      228.895      245.564       79.831        0.428        0.028       87.933        4.802        0.003      332.747        1.612      873.276
01/06/2015  02:38:00      -42.790      -44.435       -3.142       17.827       23.896       13.094      317.796      571.007      171.444        0.244        0.053       61.688        8.124        0.017      332.776        1.660      873.264
01/06/2015  02:39:00      -68.696      -15.592       -6.726       34.039       21.757       16.231     1158.667      473.363      263.431        0.345        0.095       70.443       17.020        0.058      332.779        1.663      873.251
01/06/2015  02:40:00      -59.888      -26.332       -9.848       13.005       15.126        9.550      169.132      228.796       91.199        0.243        0.024       65.422        6.882        0.011      332.825        1.740      873.241
01/06/2015  02:41:00      -50.508      -16.098       -2.363       14.205       20.629       14.640      201.784      425.566      214.334        0.183        0.042       53.012       10.935        0.043      332.825        1.742      873.232
01/06/2015  02:42:00      -85.782       -4.668      -14.202       25.770       19.957       14.829      664.097      398.287      219.894        0.443        0.064       85.909       16.204        0.036      332.780        1.667      873.224
01/06/2015  02:43:00      -70.550       -3.463      -13.448       16.502       16.939       11.837      272.300      286.937      140.119        0.293        0.035       70.635       10.104        0.020      332.810        1.716      873.226
01/06/2015  02:44:00      -56.847       -4.262       -8.723       14.443       13.329       12.970      208.596      177.672      168.223        0.194        0.028       57.006        6.076        0.011      332.800        1.701      873.232
01/06/2015  02:45:00      -41.863      -16.146       -5.966       12.421        7.467        7.184      154.270       55.760       51.614        0.116        0.013       44.868        7.469        0.028      332.947        1.942      873.248
01/06/2015  02:46:00      -20.937       -6.286       -3.874        9.680        9.414        7.596       93.706       88.620       57.703        0.037        0.012       21.861        6.900        0.100      333.098        2.191      873.261
01/06/2015  02:47:00      -32.720      -14.557       -1.864       21.492       16.284       14.315      461.926      265.164      204.915        0.111        0.047       35.812       12.049        0.113      333.243        2.432      873.264
01/06/2015  02:48:00      -43.090      -31.701      -11.989       22.063       17.148       11.556      486.788      294.042      133.552        0.196        0.046       53.495        9.891        0.034      333.150        2.276      873.256
01/06/2015  02:49:00      -82.414      -41.278      -10.880       22.745       14.404       12.269      517.320      207.474      150.517        0.474        0.044       92.173        6.691        0.005      332.830        1.748      873.255
01/06/2015  02:50:00      -88.637      -37.510      -20.596       13.375       19.038        9.816      178.886      362.435       96.361        0.516        0.032       96.247        5.939        0.004      332.690        1.516      873.257
01/06/2015  02:51:00      -94.593      -47.523      -14.773       32.233       25.120       20.142     1038.960      631.016      405.693        0.675        0.104      105.859       16.175        0.023      332.610        1.384      873.263
01/06/2015  02:52:00     -111.970      -49.892      -13.650       30.317       34.755       16.573      919.141     1207.918      274.675        0.881        0.120      122.583       11.116        0.008      332.607        1.381      873.257
01/06/2015  02:53:00      -69.931      -25.203       -2.974       23.699       18.904       11.564      561.621      357.380      133.715        0.329        0.053       74.334       11.449        0.024      332.629        1.416      873.253
01/06/2015  02:54:00      -72.219      -15.927       -2.444       11.715       12.406       10.451      137.235      153.918      109.225        0.294        0.020       73.955        7.509        0.010      332.706        1.544      873.237
01/06/2015  02:55:00      -48.848      -26.730       -9.014       11.613       10.225        7.586      134.869      104.558       57.546        0.174        0.015       55.683        6.197        0.012      332.784        1.671      873.211
01/06/2015  02:56:00      -66.440      -31.828       -6.241       10.656       10.074        7.806      113.550      101.478       60.931        0.287        0.014       73.670        5.719        0.006      332.894        1.854      873.203
01/06/2015  02:57:00      -68.591      -38.086       -4.409       12.526       12.495       10.955      156.897      156.133      120.014        0.330        0.022       78.455        4.154        0.003      332.930        1.913      873.192
01/06/2015  02:58:00      -62.839      -44.070       -1.756       15.282       18.015       11.491      233.542      324.527      132.043        0.329        0.035       76.752        7.484        0.010      332.910        1.880      873.175
01/06/2015  02:59:00      -60.360      -31.047       -0.458       23.400       13.189       12.411      547.582      173.954      154.041        0.274        0.044       67.877       15.223        0.050      332.764        1.638      873.173
01/06/2015  03:00:00      -25.626      -26.541        3.937       30.881       19.154       20.989      953.656      366.865      440.528        0.157        0.088       36.893       19.490        0.279      332.792        1.686      873.167
01/06/2015  03:01:00      -33.489      -35.698        4.577       32.256       16.733       22.962     1040.464      279.988      527.276        0.213        0.092       48.947       21.142        0.187      332.878        1.828      873.168
01/06/2015  03:02:00      -42.771      -33.391        0.504       26.047       20.992       15.967      678.447      440.677      254.954        0.216        0.069       54.262       16.415        0.092      332.795        1.690      873.180
01/06/2015  03:03:00      -41.687      -49.247        6.461       40.881       29.634       22.422     1671.250      878.182      502.737        0.363        0.153       64.522       23.148        0.129      332.775        1.658      873.190
01/06/2015  03:04:00      -88.964      -65.953       -0.391       29.383       19.557       17.575      863.351      382.458      308.872        0.691        0.078      110.745       16.714        0.023      332.822        1.736      873.193
01/06/2015  03:05:00      -96.317      -66.352       -6.849       21.204       27.808       19.096      449.605      773.279      364.648        0.766        0.079      116.959       12.410        0.011      332.994        2.019      873.179
01/06/2015  03:06:00      -62.459      -43.303        6.592       45.660       31.790       21.846     2084.808     1010.635      477.241        0.470        0.179       76.002       19.266        0.064      332.934        1.919      873.172
01/06/2015  03:07:00      -53.777      -45.888       -0.277       33.818       33.559       24.983     1143.630     1126.233      624.147        0.395        0.145       70.694       17.592        0.062      332.968        1.976      873.166
01/06/2015  03:08:00      -22.083      -26.342        9.766       54.848       29.023       23.716     3008.281      842.329      562.463        0.284        0.221       34.373       24.826        0.522      332.970        1.980      873.163
01/06/2015  03:09:00      -21.776       -9.786        9.414       19.689       22.261       18.505      387.640      495.564      342.437        0.094        0.061       23.873        9.739        0.166      332.938        1.926      873.156
01/06/2015  03:10:00      -45.992      -32.345        4.373       51.106       23.431       21.032     2611.863      548.991      442.338        0.339        0.180       56.227       20.082        0.128      332.950        1.946      873.141
01/06/2015  03:11:00      -57.675      -42.215        4.375       48.031       33.824       17.591     2307.018     1144.036      309.449        0.444        0.188       71.473       19.418        0.074      332.900        1.863      873.121
01/06/2015  03:12:00      -82.186      -61.949       -0.674       33.757       28.453       18.492     1139.554      809.557      341.967        0.644        0.115      102.918       14.901        0.021      332.880        1.830      873.104
01/06/2015  03:13:00      -73.659      -42.119        2.796       25.070       30.124       17.715      628.493      907.464      313.819        0.453        0.092       84.851        9.937        0.014      332.847        1.778      873.096
01/06/2015  03:14:00      -75.975      -24.777        2.037       27.341       24.263       13.912      747.515      588.672      193.552        0.396        0.076       79.913       12.503        0.024      332.823        1.740      873.087
01/06/2015  03:15:00      -85.832      -23.917        3.028       26.343       26.175       17.166      693.953      685.137      294.655        0.481        0.084       89.102       13.218        0.022      332.727        1.579      873.079
01/06/2015  03:16:00      -99.601      -10.425       -5.033       29.468       17.153       16.232      868.371      294.241      263.472        0.574        0.071      100.146       11.542        0.013      332.624        1.407      873.084
01/06/2015  03:17:00     -117.586       -7.832       -4.917       30.308       21.009       17.003      918.555      441.370      289.097        0.778        0.082      117.847       16.806        0.020      332.555        1.293      873.086
01/06/2015  03:18:00      -99.624       -2.221       -4.037       28.751       22.377       16.618      826.626      500.736      276.160        0.577        0.080       99.649       15.512        0.024      332.582        1.338      873.087
01/06/2015  03:19:00      -95.689       -7.442       -3.039       29.646       19.411       16.479      878.907      376.789      271.559        0.537        0.076       95.978       17.247        0.032      332.582        1.338      873.087
01/06/2015  03:20:00     -106.287      -17.404       -7.238       23.367       17.677       14.992      546.036      312.487      224.767        0.637        0.054      107.702       14.223        0.017      332.673        1.490      873.079
01/06/2015  03:21:00     -113.687      -24.812       -4.295       10.218       10.382        8.676      104.401      107.778       75.267        0.692        0.014      116.363        4.666        0.002      332.734        1.590      873.070
01/06/2015  03:22:00      -98.492      -22.538      -10.951       16.129       10.033        7.656      260.160      100.657       58.608        0.537        0.021      101.038        6.993        0.005      332.710        1.550      873.055
01/06/2015  03:23:00      -87.739      -13.135       -9.155       20.531       13.021       11.515      421.515      169.547      132.591        0.434        0.036       88.717       11.384        0.016      332.693        1.522      873.035
01/06/2015  03:24:00      -82.521      -12.592       -6.801       13.669       13.003       13.263      186.830      169.080      175.898        0.377        0.027       83.476       10.010        0.014      332.651        1.452      873.016
01/06/2015  03:25:00      -59.635      -17.013       -5.502       10.805       11.862        7.572      116.749      140.705       57.336        0.210        0.016       62.014        4.242        0.005      332.651        1.452      873.009
01/06/2015  03:26:00      -41.277       -5.284        0.716       21.646       15.430       11.017      468.530      238.094      121.374        0.128        0.041       41.614       13.805        0.110      332.700        1.533      873.001
01/06/2015  03:27:00       -2.862      -10.817        3.283       12.404        8.353        8.174      153.854       69.773       66.816        0.021        0.015       11.189        9.283        0.688      332.710        1.549      872.996
01/06/2015  03:28:00       -2.037       -1.445        2.248        5.537        4.838        4.602       30.663       23.402       21.174        0.004        0.004        2.497        2.668        1.142      332.707        1.546      872.996
01/06/2015  03:29:00       -0.260       -3.933       -2.056        3.352        4.349        2.860       11.235       18.910        8.181        0.003        0.002        3.941        1.727        0.192      332.750        1.616      873.003
01/06/2015  03:30:00       -2.986        5.011        1.701        7.691       15.182        5.444       59.150      230.499       29.641        0.018        0.016        5.834        3.313        0.322      332.891        1.850      872.997
01/06/2015  03:31:00      -20.595       -5.764        3.599       24.933       11.361       11.257      621.633      129.062      126.717        0.067        0.044       21.386       15.856        0.550      332.813        1.718      872.990
01/06/2015  03:32:00      -50.197       -9.007       -7.515        7.964        7.411        5.766       63.420       54.919       33.243        0.140        0.008       50.998        4.641        0.008      332.651        1.453      872.977
01/06/2015  03:33:00      -56.711      -18.405      -11.424        6.506        6.252        6.138       42.322       39.086       37.671        0.190        0.006       59.623        2.906        0.002      332.569        1.317      872.960
01/06/2015  03:34:00      -57.964      -25.661       -4.357        9.344       10.050        8.731       87.313      101.004       76.223        0.215        0.013       63.390        5.850        0.009      332.495        1.194      872.952
01/06/2015  03:35:00      -54.040      -26.341       -6.200        8.527        7.978        6.496       72.706       63.642       42.195        0.192        0.009       60.118        3.532        0.003      332.453        1.126      872.952
01/06/2015  03:36:00      -64.876       -2.496      -10.716        8.423        9.106        6.863       70.941       82.927       47.096        0.227        0.010       64.924        4.163        0.004      332.474        1.160      872.943
01/06/2015  03:37:00      -68.060       -3.305      -13.749       13.723       11.017        7.980      188.319      121.368       63.676        0.260        0.019       68.141        6.892        0.010      332.452        1.123      872.929
01/06/2015  03:38:00      -71.508      -12.885       -6.708       24.506       12.036       13.608      600.554      144.872      185.187        0.313        0.047       72.659       15.277        0.044      332.408        1.051      872.924
01/06/2015  03:39:00      -76.283      -13.728       -8.655       13.199       12.672        8.972      174.204      160.581       80.499        0.325        0.021       77.509        4.353        0.003      332.358        0.968      872.921
01/06/2015  03:40:00      -76.616      -12.054      -10.574        7.684        8.733        7.186       59.051       76.258       51.645        0.316        0.009       77.558        5.648        0.005      332.373        0.993      872.922
01/06/2015  03:41:00      -72.452       -8.785      -10.876       13.007        9.661        6.770      169.171       93.338       45.827        0.288        0.015       72.983        4.926        0.005      332.432        1.091      872.922
01/06/2015  03:42:00      -73.865       -8.347      -11.334       14.728       12.854        8.794      216.903      165.237       77.328        0.306        0.023       74.335        7.924        0.011      332.398        1.034      872.914
01/06/2015  03:43:00      -75.944      -14.691       -8.226       12.956       12.661        9.012      167.856      160.309       81.223        0.323        0.020       77.352        8.564        0.012      332.324        0.911      872.905
01/06/2015  03:44:00      -83.547      -15.476       -9.658        9.647       13.182        8.384       93.061      173.768       70.292        0.382        0.017       84.968        5.762        0.005      332.357        0.965      872.894
01/06/2015  03:45:00      -99.245       -2.915      -13.079        9.862       11.997        8.960       97.264      143.929       80.281        0.518        0.016       99.288        6.950        0.005      332.395        1.029      872.899
01/06/2015  03:46:00      -83.109       -0.173       -9.802       14.313        9.941       11.043      204.874       98.818      121.952        0.371        0.021       83.109       10.029        0.015      332.348        0.950      872.888
01/06/2015  03:47:00      -58.499       -6.141       -9.407       17.457       12.527        9.085      304.761      156.930       82.543        0.205        0.027       58.820        4.983        0.007      332.336        0.931      872.879
01/06/2015  03:48:00      -76.183       -6.370      -10.830       15.597       13.154       12.277      243.264      173.037      150.726        0.326        0.028       76.449        9.783        0.016      332.367        0.983      872.874
01/06/2015  03:49:00      -55.382       -4.543       -8.410        7.317        7.500        7.944       53.545       56.251       63.104        0.167        0.009       55.568        4.331        0.006      332.574        1.325      872.884
01/06/2015  03:50:00      -59.721       -5.843      -14.154        6.591        8.738        4.583       43.441       76.351       21.001        0.197        0.007       60.006        2.565        0.002      332.420        1.070      872.900
01/06/2015  03:51:00      -57.726       -1.399      -14.006        7.270        6.287        6.208       52.855       39.520       38.544        0.183        0.007       57.743        4.090        0.005      332.373        0.992      872.906
01/06/2015  03:52:00      -56.778      -16.837      -10.736       10.062       12.302        8.673      101.252      151.334       75.217        0.198        0.016       59.222        5.406        0.008      332.457        1.132      872.910
01/06/2015  03:53:00      -68.304      -12.542      -10.992       13.473       13.661        9.543      181.519      186.623       91.075        0.270        0.023       69.446        4.735        0.005      332.394        1.029      872.910
01/06/2015  03:54:00      -61.552      -12.487      -13.834        9.717       10.918        8.553       94.424      119.204       73.152        0.221        0.014       62.806        4.211        0.004      332.431        1.088      872.906
01/06/2015  03:55:00      -80.230        0.740      -11.342        9.256        8.963        6.922       85.667       80.338       47.915        0.339        0.011       80.233        3.656        0.002      332.449        1.120      872.901
01/06/2015  03:56:00      -54.044       -0.806       -8.963       19.597       11.268       11.586      384.024      126.966      134.233        0.182        0.032       54.050        9.234        0.029      332.482        1.174      872.892
01/06/2015  03:57:00      -35.239      -12.733      -11.253        9.087        9.490        5.650       82.577       90.064       31.921        0.087        0.010       37.468        4.293        0.013      332.526        1.245      872.886
01/06/2015  03:58:00      -64.382      -22.066      -13.719       13.405       14.553        8.179      179.684      211.791       66.896        0.264        0.023       68.059        6.733        0.010      332.391        1.020      872.883
01/06/2015  03:59:00      -69.508      -11.684      -11.744       20.044       16.323       11.604      401.779      266.427      134.660        0.295        0.040       70.483       12.804        0.033      332.371        0.989      872.883
01/06/2015  04:00:00      -54.082      -29.278       -6.115       18.182       16.673       10.637      330.581      278.003      113.152        0.227        0.036       61.498       10.186        0.027      332.403        1.043      872.872
01/06/2015  04:01:00      -98.671      -11.037      -16.374       12.150       12.078        9.241      147.619      145.882       85.393        0.525        0.019       99.287        7.314        0.005      332.394        1.027      872.857
01/06/2015  04:02:00      -89.865      -10.006      -13.128       12.054       15.645        9.333      145.305      244.779       87.104        0.441        0.024       90.421        8.244        0.008      332.366        0.982      872.852
01/06/2015  04:03:00      -90.561      -22.628      -10.096        9.556        9.056        7.837       91.310       82.019       61.415        0.452        0.012       93.345        4.451        0.002      332.423        1.075      872.843
01/06/2015  04:04:00      -72.543      -19.869       -9.422       11.704       11.461        9.158      136.979      131.356       83.878        0.305        0.018       75.215        7.420        0.010      332.443        1.110      872.838
01/06/2015  04:05:00      -79.567      -16.558      -10.643       18.665       13.966       11.181      348.399      195.044      125.009        0.369        0.033       81.271        8.066        0.010      332.450        1.119      872.839
01/06/2015  04:06:00     -103.815      -27.304      -12.580       10.063        8.294        7.974      101.269       68.791       63.581        0.596        0.012      107.345        2.186        0.000      332.473        1.158      872.832
01/06/2015  04:07:00      -87.942      -27.923      -16.225        8.719        8.903        7.079       76.015       79.268       50.116        0.449        0.010       92.268        4.115        0.002      332.370        0.988      872.828
01/06/2015  04:08:00      -99.014      -33.102      -16.111       11.173        9.571        7.071      124.838       91.607       49.994        0.571        0.013      104.401        5.681        0.003      332.370        0.987      872.821
01/06/2015  04:09:00     -110.392      -35.909      -12.767       13.034       12.439       11.176      169.881      154.724      124.902        0.704        0.022      116.085        6.651        0.003      332.374        0.995      872.806
01/06/2015  04:10:00      -87.714      -23.651       -8.153       23.653       16.183       10.683      559.487      261.890      114.117        0.463        0.047       90.846       10.406        0.013      332.397        1.032      872.809
01/06/2015  04:11:00      -87.709       -6.240      -12.081       16.598       11.747       12.573      275.490      137.988      158.069        0.422        0.029       87.930        9.715        0.012      332.441        1.105      872.813
01/06/2015  04:12:00      -80.778        3.770       -3.993       13.870        8.246        8.661      192.386       67.996       75.018        0.345        0.017       80.866        8.770        0.012      332.554        1.292      872.812
01/06/2015  04:13:00      -69.354      -15.248       -2.505       12.580       13.930        9.226      158.266      194.036       85.124        0.274        0.022       71.010        6.202        0.008      332.524        1.241      872.809
01/06/2015  04:14:00      -69.038       -7.387       -9.914       27.687       22.527       17.127      766.543      507.456      293.332        0.324        0.078       69.432       15.827        0.052      332.516        1.230      872.810
01/06/2015  04:15:00      -88.195       -4.250       -9.352       38.801       26.936       23.429     1505.517      725.564      548.925        0.533        0.139       88.297       24.045        0.074      332.514        1.227      872.815
01/06/2015  04:16:00      -95.181       -0.790       -8.418       28.767       21.705       18.206      827.534      471.091      331.444        0.538        0.082       95.184        9.508        0.010      332.377        1.001      872.833
01/06/2015  04:17:00     -106.268       -1.194      -11.121       24.681       17.283       16.026      609.138      298.717      256.838        0.629        0.058      106.275       12.124        0.013      332.360        0.972      872.845
01/06/2015  04:18:00     -104.833      -11.152      -13.741       20.077       19.981       11.808      403.093      399.233      139.429        0.612        0.047      105.425        8.423        0.006      332.334        0.928      872.845
01/06/2015  04:19:00      -74.001       -6.984       -2.970       24.988       24.463       16.670      624.418      598.450      277.890        0.352        0.075       74.330       14.545        0.038      332.236        0.768      872.840
01/06/2015  04:20:00     -111.752      -26.404      -14.636       16.980       10.882        9.322      288.307      118.417       86.897        0.695        0.025      114.829        5.554        0.002      332.178        0.672      872.834
01/06/2015  04:21:00      -83.416      -42.751      -10.220       16.159       14.750       10.112      261.115      217.568      102.249        0.474        0.029       93.733        7.959        0.007      332.221        0.743      872.828
01/06/2015  04:22:00      -75.722      -36.142      -15.185       19.240       19.980       11.868      370.162      399.194      140.848        0.409        0.046       83.905        6.039        0.005      332.245        0.782      872.824
01/06/2015  04:23:00      -82.343      -22.671      -16.999       16.136       15.268       13.375      260.369      233.106      178.893        0.413        0.034       85.407        4.895        0.003      332.198        0.704      872.827
01/06/2015  04:24:00      -60.279      -27.333       -2.780       36.658       19.389       14.330     1343.838      375.953      205.358        0.316        0.096       66.187       17.580        0.071      332.184        0.681      872.832
01/06/2015  04:25:00      -76.091      -19.530      -10.551       24.647       17.161       11.139      607.451      294.499      124.076        0.365        0.051       78.557       10.590        0.018      332.149        0.624      872.835
01/06/2015  04:26:00      -82.557       -2.693       -9.386       23.147       11.021        8.639      535.803      121.458       74.638        0.382        0.037       82.601        5.665        0.005      332.128        0.589      872.829
01/06/2015  04:27:00      -38.730      -12.224       -5.231        9.560       11.767        7.028       91.387      138.473       49.391        0.098        0.014       40.613        3.738        0.008      332.216        0.733      872.819
01/06/2015  04:28:00      -24.690      -17.584       -3.609        8.568        7.112        7.370       73.410       50.584       54.314        0.056        0.009       30.312        3.806        0.016      332.408        1.051      872.801
01/06/2015  04:29:00      -15.188       -4.640       -1.810        6.886        6.148        4.813       47.421       37.801       23.167        0.018        0.005       15.881        3.592        0.051      332.426        1.081      872.790
01/06/2015  04:30:00      -22.170      -10.646       -0.453        6.861        8.005        4.739       47.074       64.081       22.460        0.037        0.007       24.593        3.341        0.018      332.498        1.200      872.784
01/06/2015  04:31:00      -45.259       -4.703       -3.869       14.494        8.722        5.995      210.062       76.075       35.944        0.120        0.016       45.503        3.767        0.007      332.308        0.888      872.779
01/06/2015  04:32:00      -62.855       -2.543      -13.245       15.511       13.580        9.660      240.583      184.426       93.307        0.233        0.026       62.906        6.706        0.011      332.278        0.838      872.779
01/06/2015  04:33:00      -63.420       -6.769      -11.684        9.769        7.674        8.132       95.426       58.884       66.134        0.221        0.011       63.781        3.966        0.004      332.394        1.029      872.783
01/06/2015  04:34:00      -61.349       -3.771      -14.904       12.712       10.309        9.591      161.596      106.270       91.994        0.218        0.018       61.465        4.918        0.006      332.291        0.858      872.780
01/06/2015  04:35:00      -84.402       -0.842      -13.757       21.309        8.503        8.488      454.055       72.303       72.053        0.396        0.030       84.406        8.016        0.009      332.134        0.600      872.780
01/06/2015  04:36:00      -54.914       -7.360      -13.199       11.377       11.735       10.116      129.446      137.722      102.338        0.181        0.018       55.405        8.662        0.024      332.228        0.754      872.777
01/06/2015  04:37:00      -69.276       -1.373      -10.889       18.663        8.851        7.409      348.309       78.335       54.889        0.270        0.024       69.289        7.698        0.012      332.201        0.710      872.770
01/06/2015  04:38:00      -69.406        0.085      -15.829       11.534        6.783        6.807      133.030       46.010       46.335        0.265        0.011       69.407        6.117        0.008      332.439        1.102      872.759
01/06/2015  04:39:00      -55.051      -12.872      -11.695       10.206        9.836        5.881      104.167       96.737       34.584        0.178        0.012       56.535        5.095        0.008      332.340        0.941      872.738
01/06/2015  04:40:00      -56.007      -10.659       -8.307       10.132        9.239        6.991      102.655       85.353       48.867        0.178        0.012       57.012        3.920        0.005      332.405        1.045      872.727
01/06/2015  04:41:00      -44.084      -10.062       -6.992        6.981        7.912        7.147       48.739       62.604       51.073        0.113        0.008       45.218        3.129        0.005      332.406        1.048      872.709
01/06/2015  04:42:00      -23.665       -2.482       -7.126       23.758       15.933       10.723      564.430      253.863      114.982        0.077        0.047       23.795        7.074        0.088      332.710        1.550      872.698
01/06/2015  04:43:00       15.107        9.282        1.292       19.874       15.648        8.381      394.957      244.849       70.235        0.051        0.036       17.731        7.335        0.171      332.929        1.912      872.679
01/06/2015  04:44:00      -14.696      -29.247        1.948       11.881       13.499        6.747      141.156      182.221       45.525        0.072        0.018       32.732        4.683        0.020      332.557        1.298      872.669
01/06/2015  04:45:00       -0.754      -10.919       -2.683       23.981       13.936       10.424      575.093      194.214      108.669        0.050        0.044       10.945       10.829        0.979      332.740        1.597      872.649
01/06/2015  04:46:00      -45.881      -34.411      -13.297       16.258        9.595       11.003      264.334       92.060      121.061        0.197        0.024       57.352        9.925        0.030      332.305        0.882      872.638
01/06/2015  04:47:00      -87.246      -40.730      -17.140       16.145       12.412       11.252      260.649      154.058      126.613        0.505        0.027       96.285        4.762        0.002      332.137        0.604      872.630
01/06/2015  04:48:00     -104.028      -36.073      -19.261       10.422       19.784       11.893      108.613      391.408      141.445        0.657        0.032      110.105        2.714        0.001      332.003        0.382      872.616
01/06/2015  04:49:00      -89.093      -41.859      -20.172       11.782       18.515       10.303      138.819      342.806      106.159        0.534        0.029       98.436        3.544        0.001      332.028        0.425      872.600
01/06/2015  04:50:00     -102.303      -21.470      -15.221       26.384       16.585       13.597      696.138      275.056      184.886        0.616        0.058      104.532       11.431        0.012      332.076        0.504      872.582
01/06/2015  04:51:00     -121.129      -15.677      -13.825       24.368       21.525       15.749      593.777      463.329      248.034        0.821        0.065      122.139        8.883        0.005      332.077        0.505      872.568
01/06/2015  04:52:00      -71.821      -20.857        1.268       27.574       23.546       17.384      760.344      554.436      302.200        0.361        0.081       74.788       17.121        0.052      332.036        0.438      872.567
01/06/2015  04:53:00      -80.489      -26.854       -5.301       20.247       23.782       14.669      409.925      565.602      215.177        0.421        0.060       84.851        9.676        0.013      332.096        0.536      872.563
01/06/2015  04:54:00      -74.531       -8.306        1.838       35.944       35.978       22.662     1291.969     1294.392      513.570        0.436        0.155       74.993       19.667        0.069      332.234        0.764      872.569
01/06/2015  04:55:00      -42.255        4.119        0.645       34.204       25.574       19.473     1169.881      654.013      379.213        0.200        0.110       42.456       16.250        0.146      332.319        0.905      872.560
01/06/2015  04:56:00      -50.803       -4.367       -1.188       23.494       19.553       17.333      551.971      382.329      300.448        0.192        0.062       50.990       14.930        0.086      332.306        0.882      872.559
01/06/2015  04:57:00      -51.109      -11.771      -11.863       14.922       14.515        9.023      222.666      210.696       81.423        0.170        0.026       52.447        6.602        0.016      332.256        0.802      872.566
01/06/2015  04:58:00      -51.801      -16.174      -12.248        8.666        9.748        5.041       75.093       95.027       25.410        0.165        0.010       54.268        2.732        0.003      332.476        1.163      872.584
01/06/2015  04:59:00      -43.401      -16.981      -12.145        6.524        5.642        4.922       42.563       31.836       24.227        0.121        0.005       46.604        1.804        0.001      332.412        1.058      872.599
01/06/2015  05:00:00      -61.731      -20.209       -8.159       14.483       11.573        7.830      209.770      133.930       61.307        0.235        0.020       64.955        3.827        0.003      332.329        0.923      872.603
01/06/2015  05:01:00      -88.183       -5.461      -16.765       14.712       10.867        9.956      216.449      118.090       99.125        0.426        0.022       88.352        6.096        0.005      332.341        0.942      872.597
01/06/2015  05:02:00      -88.236      -12.579      -14.068       22.310       21.027       16.850      497.747      442.151      283.909        0.468        0.061       89.128       12.592        0.020      332.257        0.802      872.596
01/06/2015  05:03:00      -96.317      -21.499      -14.177       24.926       19.704       18.913      621.321      388.230      357.720        0.565        0.068       98.687       18.700        0.036      332.162        0.647      872.600
01/06/2015  05:04:00     -111.506       -1.056      -20.000       15.829       14.789       13.101      250.565      218.724      171.649        0.674        0.032      111.511        9.477        0.007      332.176        0.668      872.600
01/06/2015  05:05:00     -126.274       12.045      -21.970        9.594        9.122       10.133       92.045       83.214      102.670        0.843        0.014      126.847        3.983        0.001      332.280        0.842      872.594
01/06/2015  05:06:00     -118.983       -3.177      -18.284       21.694       11.597       11.598      470.651      134.497      134.522        0.762        0.037      119.026       10.834        0.008      332.224        0.749      872.591
01/06/2015  05:07:00     -115.051      -13.479      -17.161       12.124       16.667       10.441      146.986      277.788      109.022        0.712        0.027      115.838        9.903        0.007      332.283        0.845      872.590
01/06/2015  05:08:00      -79.157      -41.133      -14.971       18.302       14.258       12.800      334.963      203.296      163.839        0.444        0.035       89.206        9.471        0.011      332.305        0.881      872.576
01/06/2015  05:09:00     -103.986      -33.380       -8.384       26.070       17.458       13.834      679.658      304.768      191.375        0.659        0.059      109.212       12.644        0.013      332.296        0.866      872.569
01/06/2015  05:10:00      -99.489      -33.768       -9.163       15.475       14.473       10.801      239.462      209.461      116.668        0.584        0.028      105.063        9.067        0.007      332.325        0.914      872.577
01/06/2015  05:11:00     -101.313      -28.650      -12.352       19.512       16.166       12.608      380.724      261.330      158.966        0.602        0.040      105.286       12.234        0.014      332.324        0.912      872.579
01/06/2015  05:12:00      -95.332      -22.943       -4.503       22.083       14.649       13.383      487.644      214.589      179.105        0.526        0.044       98.054       12.948        0.017      332.264        0.814      872.589
01/06/2015  05:13:00      -95.445      -24.466       -6.003       15.112       15.045       11.097      228.367      226.345      123.141        0.516        0.029       98.531        7.177        0.005      332.253        0.796      872.615
01/06/2015  05:14:00      -71.235      -20.040       -3.031       16.565       16.035       10.576      274.400      257.121      111.848        0.306        0.032       74.000        8.341        0.013      332.261        0.809      872.631
01/06/2015  05:15:00      -69.265      -18.604       -3.354       17.235       12.979        9.797      297.062      168.442       95.972        0.286        0.028       71.720        9.253        0.017      332.245        0.785      872.639
01/06/2015  05:16:00      -70.399      -22.583       -5.549       16.141       11.458        9.637      260.543      131.280       92.872        0.299        0.024       73.932        8.239        0.012      332.218        0.739      872.647
01/06/2015  05:17:00      -66.550      -31.567       -6.756       11.629       12.878        9.090      135.227      165.835       82.637        0.293        0.019       73.657        4.280        0.003      332.250        0.792      872.635
01/06/2015  05:18:00      -78.469      -35.723       -6.277       11.878       15.780        7.109      141.087      249.013       50.536        0.396        0.022       86.218        3.281        0.001      332.272        0.828      872.625
01/06/2015  05:19:00      -76.837      -34.397       -1.290       19.378       13.987        9.072      375.506      195.633       82.308        0.387        0.033       84.185        7.533        0.008      332.214        0.732      872.616
01/06/2015  05:20:00      -81.655      -22.866       -6.199       10.008       10.914        7.552      100.167      119.111       57.037        0.375        0.014       84.797        3.595        0.002      332.255        0.797      872.613
01/06/2015  05:21:00      -72.737      -26.116       -1.948       11.434       13.444        7.261      130.737      180.729       52.718        0.317        0.018       77.283        3.243        0.002      332.279        0.838      872.607
01/06/2015  05:22:00      -51.994      -21.280        0.163       20.577       20.117       12.080      423.424      404.693      145.922        0.206        0.049       56.180        8.836        0.025      332.222        0.746      872.621
01/06/2015  05:23:00      -76.219      -28.234       -5.085       10.384       12.229        8.891      107.828      149.543       79.049        0.348        0.017       81.281        5.324        0.004      332.212        0.730      872.629
01/06/2015  05:24:00      -63.911       -9.026       -5.189       15.074       11.834       10.067      227.214      140.035      101.340        0.233        0.023       64.546        8.100        0.016      332.228        0.754      872.623
01/06/2015  05:25:00      -47.634      -14.741       -2.208       11.901       11.858        8.168      141.641      140.621       66.723        0.142        0.017       49.863        4.411        0.008      332.266        0.815      872.619
01/06/2015  05:26:00      -87.401      -13.492       -9.329        9.457        9.188        6.910       89.431       84.428       47.742        0.406        0.011       88.436        3.599        0.002      332.363        0.977      872.626
01/06/2015  05:27:00      -92.213      -32.109       -7.480       13.390       11.964        9.172      179.287      143.148       84.131        0.500        0.020       97.643        3.423        0.001      332.312        0.892      872.620
01/06/2015  05:28:00     -107.791      -27.851       -3.586       19.876       16.838       14.154      395.051      283.522      200.331        0.664        0.044      111.331       10.514        0.009      332.232        0.762      872.620
01/06/2015  05:29:00      -91.108      -15.889       -0.153       27.556       20.065       12.425      759.319      402.588      154.383        0.493        0.066       92.484       11.787        0.016      332.287        0.853      872.614
01/06/2015  05:30:00      -74.680      -29.621        4.877       24.183       24.012       15.714      584.815      576.574      246.944        0.394        0.070       80.340       13.964        0.030      332.266        0.818      872.619
01/06/2015  05:31:00      -77.629      -31.752        2.175       20.450       20.648       12.652      418.210      426.353      160.063        0.402        0.050       83.872       11.729        0.020      332.283        0.845      872.623
01/06/2015  05:32:00      -87.358      -27.972       -1.029       15.524       17.306        9.941      240.993      299.488       98.825        0.453        0.032       91.727        5.919        0.004      332.334        0.928      872.623
01/06/2015  05:33:00      -76.410       -7.840        0.560       25.354       17.386       13.621      642.847      302.285      185.535        0.352        0.057       76.811       13.481        0.031      332.461        1.137      872.613
01/06/2015  05:34:00      -71.832      -15.569        0.866       28.200       17.138       16.043      795.235      293.716      257.364        0.337        0.067       73.500       15.471        0.044      332.322        0.908      872.594
01/06/2015  05:35:00      -99.773      -18.045       -0.777       25.570       16.641       16.407      653.810      276.938      269.180        0.574        0.060      101.391       15.433        0.023      332.245        0.782      872.582
01/06/2015  05:36:00     -108.126       -3.726       -6.539       31.006       16.369       19.413      961.394      267.948      376.868        0.668        0.080      108.191       18.977        0.031      332.167        0.655      872.571
01/06/2015  05:37:00     -108.607       -9.285       -9.340       31.252       20.177       18.456      976.670      407.115      340.617        0.685        0.086      109.003       14.540        0.018      332.132        0.598      872.566
01/06/2015  05:38:00     -111.968      -23.132      -10.748       30.050       26.273       15.844      902.984      690.294      251.047        0.752        0.092      114.333        9.592        0.007      332.038        0.441      872.571
01/06/2015  05:39:00      -49.109       -8.749       -1.086       49.510       32.721       18.216     2451.203     1070.690      331.838        0.317        0.193       49.882       17.695        0.126      332.073        0.499      872.581
01/06/2015  05:40:00      -68.955       -0.584       -0.530       49.572       32.467       25.254     2457.409     1054.122      637.749        0.445        0.207       68.957       27.135        0.155      332.141        0.612      872.577
01/06/2015  05:41:00      -98.596       -0.512      -11.365       32.299       32.963       22.698     1043.256     1086.556      515.200        0.625        0.132       98.598       16.433        0.028      332.067        0.488      872.581
01/06/2015  05:42:00     -134.704       -2.160      -11.479       28.691       23.862       17.887      823.156      569.416      319.962        1.000        0.086      134.722       16.263        0.015      331.994        0.368      872.576
01/06/2015  05:43:00     -109.791      -28.763       -4.465       31.597       21.648       19.182      998.397      468.634      367.937        0.737        0.092      113.496       15.807        0.019      331.939        0.278      872.579
01/06/2015  05:44:00      -95.593      -15.330       -0.409       41.775       25.988       19.760     1745.142      675.361      390.452        0.609        0.141       96.815       17.838        0.034      332.009        0.392      872.582
01/06/2015  05:45:00     -117.945      -34.115       -4.877       33.633       25.305       18.613     1131.164      640.347      346.446        0.861        0.106      122.780       16.050        0.017      332.068        0.490      872.590
01/06/2015  05:46:00     -110.950      -28.985       -3.788       29.188       33.425       19.174      851.916     1117.221      367.638        0.775        0.117      114.674       15.932        0.019      332.025        0.420      872.594
01/06/2015  05:47:00     -125.034      -24.889       -7.785       40.461       26.082       21.262     1637.119      680.286      452.069        0.954        0.138      127.487       19.801        0.024      332.034        0.435      872.592
01/06/2015  05:48:00     -132.886       -7.502       -4.459       51.024       29.884       25.100     2603.426      893.034      630.008        1.093        0.206      133.097       27.936        0.044      332.061        0.479      872.583
01/06/2015  05:49:00     -133.273      -14.572       -4.184       41.293       34.437       28.430     1705.085     1185.940      808.256        1.084        0.185      134.068       27.361        0.042      332.070        0.493      872.584
01/06/2015  05:50:00     -144.639      -24.196      -18.692       26.843       30.689       18.735      720.537      941.821      350.983        1.193        0.101      146.649       13.524        0.009      332.038        0.441      872.574
01/06/2015  05:51:00     -121.250      -27.498       -9.168       29.020       33.673       18.614      842.188     1133.893      346.469        0.893        0.116      124.329       13.304        0.011      332.069        0.492      872.585
01/06/2015  05:52:00      -79.912        1.141       -4.937       34.771       24.270       21.871     1209.040      589.022      478.356        0.434        0.114       79.920       19.185        0.058      332.110        0.558      872.589
01/06/2015  05:53:00      -83.159       -3.655        0.295       43.839       31.720       17.542     1921.833     1006.174      307.733        0.508        0.162       83.239       19.181        0.053      332.223        0.747      872.601
01/06/2015  05:54:00     -106.544       -6.086      -10.550       36.390       32.377       22.498     1324.239     1048.238      506.179        0.719        0.144      106.718       22.015        0.043      332.354        0.963      872.599
01/06/2015  05:55:00      -72.144      -10.838        8.840       51.073       30.235       23.186     2608.409      914.144      537.587        0.473        0.203       72.954       21.743        0.089      332.264        0.815      872.593
01/06/2015  05:56:00     -102.162      -36.029       -5.331       28.537       26.515       15.920      814.335      703.024      253.455        0.677        0.089      108.329       13.485        0.015      332.181        0.678      872.592
01/06/2015  05:57:00     -108.066      -35.673      -10.131       17.268       19.388       14.663      298.174      375.878      215.009        0.697        0.044      113.802        6.142        0.003      332.140        0.609      872.599
01/06/2015  05:58:00      -78.700      -13.495        1.689       21.269       21.818       15.936      452.368      476.046      253.965        0.378        0.059       79.849       13.312        0.028      332.095        0.535      872.607
01/06/2015  05:59:00      -74.117      -26.386       -4.100       17.723       16.294       13.307      314.102      265.489      177.080        0.348        0.038       78.674       10.119        0.017      332.067        0.489      872.605
01/06/2015  06:00:00      -95.754      -29.117       -6.132       11.913       12.451        7.490      141.928      155.030       56.093        0.520        0.018      100.083        4.040        0.002      332.175        0.667      872.608
01/06/2015  06:01:00     -104.287      -36.573       -7.755       17.608       20.020       11.110      310.040      400.786      123.441        0.655        0.042      110.514        8.965        0.007      332.162        0.645      872.603
01/06/2015  06:02:00      -67.539      -42.098       -2.974       22.191       20.960       16.243      492.428      439.307      263.841        0.377        0.060       79.585       12.549        0.025      332.111        0.562      872.604
01/06/2015  06:03:00      -71.840      -42.792       -3.188       16.073       21.778       10.281      258.334      474.289      105.698        0.392        0.042       83.619        7.456        0.008      332.123        0.580      872.602
01/06/2015  06:04:00      -49.844      -26.951       -4.278       14.505       13.231        9.241      210.402      175.047       85.389        0.185        0.024       56.664        8.322        0.022      332.081        0.513      872.604
01/06/2015  06:05:00      -56.201       -2.575       -5.024       18.518       17.048       11.016      342.917      290.642      121.352        0.197        0.038       56.260        8.935        0.025      332.091        0.527      872.608
01/06/2015  06:06:00      -93.564       -5.496      -17.632       10.708        9.497       10.588      114.654       90.191      112.109        0.471        0.016       93.726        6.095        0.004      332.169        0.659      872.608
01/06/2015  06:07:00      -70.991       -1.279      -12.011       11.986        6.397        7.607      143.671       40.919       57.862        0.271        0.012       71.003        4.694        0.004      332.229        0.758      872.616
01/06/2015  06:08:00      -52.524       -9.852       -8.421        7.901       11.414        7.375       62.427      130.276       54.394        0.159        0.012       53.440        4.864        0.008      332.212        0.728      872.618
01/06/2015  06:09:00      -27.311      -23.626       -0.350       13.875        9.493        7.627      192.515       90.115       58.175        0.082        0.017       36.112        1.996        0.003      332.199        0.707      872.631
01/06/2015  06:10:00      -30.140      -25.422       -5.265       11.803        7.389        8.974      139.314       54.598       80.541        0.093        0.014       39.430        2.620        0.004      332.198        0.705      872.651
01/06/2015  06:11:00      -25.350      -18.281       -3.123       10.139        7.461        7.308      102.790       55.665       53.409        0.060        0.011       31.254        2.640        0.007      332.170        0.659      872.672
01/06/2015  06:12:00       -1.778      -10.046       -4.218        6.198        6.640        4.942       38.420       44.083       24.420        0.011        0.005       10.203        1.794        0.031      332.306        0.883      872.695
01/06/2015  06:13:00      -20.157        4.017        2.159       10.284        8.958       10.524      105.770       80.255      110.759        0.036        0.015       20.553        8.802        0.183      332.407        1.048      872.725
01/06/2015  06:14:00      -12.562       -1.291       16.480        7.374       14.376        8.341       54.370      206.661       69.573        0.038        0.017       12.628        9.841        0.607      332.249        0.790      872.748
01/06/2015  06:15:00       -0.304      -21.890       -5.868       10.010        9.807        8.300      100.195       96.174       68.890        0.039        0.013       21.892        5.484        0.063      332.195        0.700      872.772
01/06/2015  06:16:00      -17.023      -14.297       -3.870       11.310        8.305        7.301      127.911       68.974       53.308        0.038        0.013       22.230        4.059        0.033      332.135        0.600      872.786
01/06/2015  06:17:00      -42.948      -13.347       -8.788       14.473       10.590        7.582      209.466      112.145       57.487        0.124        0.019       44.974        4.487        0.010      332.079        0.511      872.800
01/06/2015  06:18:00      -67.241      -18.465       -8.450       11.149       10.631        6.964      124.307      113.015       48.493        0.261        0.014       69.730        5.132        0.005      332.055        0.471      872.816
01/06/2015  06:19:00      -91.380      -10.275       -8.171       11.566       10.539        8.013      133.776      111.068       64.211        0.442        0.015       91.956        4.386        0.002      332.031        0.430      872.832
01/06/2015  06:20:00      -80.727      -16.428      -13.613       10.842       11.469        6.497      117.539      131.539       42.207        0.363        0.015       82.382        2.824        0.001      332.036        0.438      872.849
01/06/2015  06:21:00      -86.867       -8.611      -14.202       17.463        9.803       11.287      304.966       96.090      127.395        0.418        0.026       87.293        4.284        0.002      332.020        0.411      872.859
01/06/2015  06:22:00     -109.521       -9.517      -17.566        9.493        7.014        5.922       90.120       49.200       35.069        0.628        0.009      109.934        3.563        0.001      332.056        0.470      872.870
01/06/2015  06:23:00     -102.136       -4.127       -9.584       12.309        9.937        6.747      151.514       98.754       45.519        0.542        0.015      102.220        2.504        0.001      332.029        0.427      872.875
01/06/2015  06:24:00     -105.275       -7.113      -11.454       13.174       12.550        9.295      173.564      157.494       86.405        0.584        0.021      105.515        5.274        0.002      332.132        0.597      872.872
01/06/2015  06:25:00      -97.169      -25.349      -10.113       19.941       13.229        9.694      397.648      174.997       93.972        0.543        0.033      100.421        5.788        0.003      332.103        0.548      872.879
01/06/2015  06:26:00     -110.045      -22.616      -12.194       10.333        9.668        6.899      106.768       93.464       47.592        0.651        0.012      112.345        3.572        0.001      332.121        0.579      872.885
01/06/2015  06:27:00     -109.568       -6.144      -11.190       18.295       10.830        8.081      334.694      117.290       65.308        0.634        0.026      109.740        8.357        0.006      332.151        0.629      872.891
01/06/2015  06:28:00     -107.389        9.399      -15.875       11.453        9.997        7.975      131.179       99.946       63.594        0.608        0.015      107.800        4.917        0.002      332.075        0.503      872.889
01/06/2015  06:29:00      -95.587        2.227      -11.945       16.335       10.943        8.710      266.829      119.753       75.858        0.487        0.023       95.613        8.312        0.008      332.114        0.565      872.901
01/06/2015  06:30:00      -79.502       -2.968       -7.141       13.505       11.578       10.562      182.396      134.048      111.559        0.340        0.021       79.558        8.568        0.012      332.127        0.588      872.917
01/06/2015  06:31:00      -81.066       -3.343      -11.490       11.460       10.747        9.490      131.324      115.494       90.053        0.353        0.017       81.134        4.192        0.003      332.151        0.628      872.928
01/06/2015  06:32:00      -49.734      -14.695       -7.539       11.833       18.030       10.767      140.022      325.077      115.923        0.166        0.029       51.859        8.191        0.025      332.097        0.540      872.942
01/06/2015  06:33:00      -63.146      -31.335       -7.767       12.701       17.631       10.017      161.313      310.857      100.344        0.280        0.029       70.493        6.750        0.009      332.046        0.456      872.953
01/06/2015  06:34:00      -63.011      -38.384       -8.344       13.243       18.967       10.264      175.379      359.730      105.346        0.308        0.032       73.781        5.083        0.005      332.023        0.419      872.965
01/06/2015  06:35:00      -46.908      -30.888       -6.307       22.752       18.689       12.789      517.641      349.272      163.559        0.211        0.052       56.164       10.287        0.034      332.005        0.388      872.975
01/06/2015  06:36:00      -72.631       -8.511       -3.820       18.409       17.103       11.457      338.901      292.514      131.261        0.306        0.038       73.127       10.254        0.020      332.016        0.404      872.986
01/06/2015  06:37:00      -67.221       -5.307      -10.479       19.198       15.869       12.942      368.560      251.815      167.504        0.272        0.039       67.430        9.637        0.020      332.000        0.379      872.990
01/06/2015  06:38:00      -50.511      -27.352       -2.177       14.339       16.363       10.170      205.605      267.737      103.427        0.194        0.029       57.441        6.975        0.015      331.976        0.338      872.992
01/06/2015  06:39:00      -63.844      -20.078      -10.366       11.212       13.693        8.549      125.711      187.510       73.084        0.249        0.019       66.926        4.780        0.005      331.956        0.306      872.993
01/06/2015  06:40:00      -54.219      -12.047       -7.284       21.886       11.834        6.896      478.978      140.033       47.559        0.190        0.033       55.541        4.630        0.007      331.945        0.285      873.000
01/06/2015  06:41:00      -33.450       -7.151       -7.398        9.478        7.231        4.823       89.828       52.286       23.258        0.070        0.008       34.206        1.902        0.003      332.012        0.400      872.997
01/06/2015  06:42:00      -21.937      -12.230       -5.602       11.784        8.173        5.786      138.856       66.797       33.482        0.045        0.012       25.116        4.138        0.027      332.223        0.747      872.999
01/06/2015  06:43:00      -37.711      -27.069       -6.497       11.656        7.376        7.575      135.860       54.412       57.379        0.122        0.012       46.420        3.970        0.007      332.036        0.439      872.995
01/06/2015  06:44:00      -31.279      -18.046       -9.103       10.702        6.540        6.913      114.532       42.777       47.792        0.080        0.010       36.112        3.872        0.011      332.048        0.457      872.982
01/06/2015  06:45:00      -28.200      -15.121       -7.414        7.497        5.124        5.041       56.205       26.257       25.416        0.059        0.005       31.999        3.441        0.012      332.117        0.573      872.979
01/06/2015  06:46:00      -31.314      -10.643       -4.213        8.794        9.777        6.102       77.326       95.585       37.235        0.066        0.011       33.073        3.444        0.011      332.200        0.707      872.980
01/06/2015  06:47:00      -49.908       -2.605       -5.282       11.086       13.405        5.907      122.908      179.692       34.891        0.143        0.017       49.976        5.183        0.011      332.333        0.927      872.984
01/06/2015  06:48:00      -35.030      -20.830       -8.645        8.392        7.780        6.272       70.427       60.530       39.335        0.095        0.009       40.755        3.205        0.006      331.977        0.340      872.999
01/06/2015  06:49:00      -50.347      -14.357      -13.475        7.613        8.423        5.712       57.954       70.952       32.629        0.154        0.008       52.354        3.092        0.003      331.984        0.351      873.005
01/06/2015  06:50:00      -60.423       -8.126      -12.009        9.348       11.120        7.652       87.384      123.646       58.554        0.207        0.013       60.967        6.103        0.010      331.935        0.272      873.011
01/06/2015  06:51:00      -78.256      -19.532      -10.247       11.379       12.579       10.493      129.472      158.220      110.110        0.350        0.020       80.657        9.200        0.013      331.801        0.047      873.018
01/06/2015  06:52:00      -91.645      -11.744      -16.230       16.013       10.515        7.342      256.411      110.569       53.905        0.461        0.021       92.394        3.495        0.001      331.867        0.159      873.039
01/06/2015  06:53:00      -88.521      -14.141      -16.273       20.309       15.507       11.487      412.437      240.472      131.947        0.454        0.039       89.643        7.518        0.007      331.757       -0.022      873.058
01/06/2015  06:54:00      -80.985       -7.588      -16.414       15.767       13.557       10.613      248.603      183.804      112.625        0.372        0.027       81.339        9.309        0.013      331.913        0.235      873.067
01/06/2015  06:55:00      -59.268       -8.894      -16.156       14.111       12.276        9.064      199.134      150.712       82.149        0.214        0.022       59.931        8.005        0.018      331.970        0.330      873.084
01/06/2015  06:56:00      -63.351      -16.129      -12.160       15.659       11.081        9.385      245.210      122.786       88.069        0.244        0.023       65.372        6.304        0.009      331.947        0.291      873.103
01/06/2015  06:57:00      -74.077      -14.366      -10.793       13.159       16.315        8.799      173.165      266.167       77.429        0.316        0.026       75.457        7.280        0.009      331.988        0.358      873.121
01/06/2015  06:58:00      -85.453      -22.052      -13.374       11.818       16.972       10.105      139.666      288.061      102.110        0.425        0.026       88.252        5.581        0.004      331.913        0.237      873.142
01/06/2015  06:59:00      -73.985      -31.053       -9.128       21.187       17.996       11.709      448.893      323.848      137.098        0.372        0.045       80.237        7.985        0.010      331.896        0.207      873.154
01/06/2015  07:00:00      -70.712      -23.795       -5.842       20.617       13.540       11.366      425.058      183.328      129.180        0.317        0.037       74.608        9.285        0.015      331.901        0.214      873.165
01/06/2015  07:01:00      -72.789      -27.878       -8.037       12.609       13.143        9.964      158.990      172.742       99.277        0.329        0.022       77.945        6.893        0.008      331.903        0.219      873.173
01/06/2015  07:02:00      -88.291      -16.362      -13.796        9.993        9.492        8.065       99.851       90.101       65.052        0.425        0.013       89.794        4.739        0.003      331.931        0.262      873.194
01/06/2015  07:03:00      -86.293      -10.125      -15.990       17.288       12.561       11.795      298.889      157.779      139.112        0.420        0.030       86.885       10.610        0.015      331.910        0.229      873.199
01/06/2015  07:04:00      -85.491       -8.843      -13.090       13.642       11.630        8.896      186.096      135.267       79.144        0.398        0.020       85.947        5.124        0.004      331.889        0.195      873.203
01/06/2015  07:05:00      -86.268       -2.975      -10.156       18.046       15.582       12.401      325.652      242.797      153.783        0.414        0.036       86.319        8.738        0.010      331.936        0.271      873.204
01/06/2015  07:06:00      -36.151      -14.264       -6.607       11.629        9.318       11.530      135.234       86.832      132.930        0.095        0.018       38.864        6.429        0.027      331.846        0.126      873.208
01/06/2015  07:07:00      -27.324        4.320       -3.597       16.201        8.771        4.120      262.483       76.934       16.970        0.057        0.018       27.664        4.419        0.026      332.125        0.584      873.223
01/06/2015  07:08:00        8.636       20.498        4.747       10.329        5.711        8.811      106.688       32.614       77.629        0.037        0.011       22.243        8.139        0.134      332.498        1.198      873.239
01/06/2015  07:09:00      -22.931       -6.705        5.261       16.101       16.871       12.420      259.236      284.631      154.248        0.065        0.035       23.891        7.266        0.092      332.285        0.848      873.245
01/06/2015  07:10:00      -49.225      -19.193       -3.330        6.629        6.150        5.849       43.943       37.821       34.205        0.146        0.006       52.835        3.117        0.003      332.043        0.449      873.256
01/06/2015  07:11:00      -49.922       -6.847       -8.882        8.410        8.597        4.924       70.729       73.916       24.247        0.139        0.008       50.389        3.406        0.005      331.993        0.368      873.256
01/06/2015  07:12:00      -51.599      -14.639       -9.265        9.490        9.047        5.660       90.065       81.854       32.032        0.158        0.010       53.636        2.855        0.003      332.030        0.429      873.262
01/06/2015  07:13:00      -74.731      -17.608      -10.911       11.151       10.187        8.491      124.354      103.766       72.095        0.316        0.015       76.777        3.992        0.003      331.992        0.366      873.265
01/06/2015  07:14:00      -78.117      -21.456      -12.703       16.708       13.834        7.919      279.155      191.368       62.705        0.363        0.027       81.010        4.184        0.003      331.878        0.177      873.264
01/06/2015  07:15:00      -65.646      -13.990       -5.314       12.914       13.174        9.903      166.775      173.557       98.078        0.249        0.022       67.121        7.754        0.013      331.856        0.141      873.265
01/06/2015  07:16:00      -85.679        2.089      -16.610       11.462        9.041        9.173      131.380       81.739       84.141        0.396        0.015       85.705        4.591        0.003      331.969        0.328      873.269
01/06/2015  07:17:00      -86.300       -3.123      -10.034       18.745       13.817       14.106      351.360      190.920      198.986        0.415        0.037       86.356        7.815        0.008      332.037        0.438      873.259
01/06/2015  07:18:00      -75.277      -30.465       -6.200       13.128       13.286        8.677      172.358      176.521       75.282        0.353        0.021       81.208        4.787        0.003      331.917        0.241      873.269
01/06/2015  07:19:00      -76.875      -36.405      -13.479       13.266       13.149       11.322      175.994      172.886      128.187        0.395        0.024       85.059        6.140        0.005      331.905        0.222      873.281
01/06/2015  07:20:00      -98.665      -40.322      -10.329       21.639       17.075       12.258      468.232      291.541      150.260        0.619        0.046      106.587        9.249        0.008      331.917        0.241      873.299
01/06/2015  07:21:00      -92.538      -20.960       -6.166       25.492       16.900       14.488      649.842      285.603      209.915        0.509        0.057       94.882       12.912        0.019      331.926        0.256      873.324
01/06/2015  07:22:00      -93.545      -25.989       -4.610       22.483       16.617       14.404      505.485      276.128      207.479        0.522        0.049       97.088       14.288        0.022      331.944        0.284      873.335
01/06/2015  07:23:00      -76.780      -34.996        1.866       24.535       15.635       14.036      601.977      244.454      196.998        0.408        0.052       84.379       15.436        0.033      331.913        0.234      873.348
01/06/2015  07:24:00      -72.167      -28.084       -4.644       16.921       14.138        9.893      286.323      199.879       97.881        0.330        0.029       77.439        7.874        0.010      331.993        0.367      873.364
01/06/2015  07:25:00      -68.871      -17.236       -4.181       13.672        8.989        8.252      186.921       80.795       68.091        0.270        0.017       70.995        7.763        0.012      332.058        0.474      873.360
01/06/2015  07:26:00      -67.908      -17.183       -6.353       18.611       13.495        8.189      346.364      182.121       67.063        0.277        0.030       70.048        6.960        0.010      332.016        0.406      873.361
01/06/2015  07:27:00      -72.914       -9.632       -3.951       18.367       17.287       13.604      337.338      298.838      185.067        0.312        0.041       73.547       12.568        0.029      331.994        0.368      873.368
01/06/2015  07:28:00      -51.877       -5.680       -0.672       23.411       13.963       14.419      548.080      194.966      207.909        0.184        0.048       52.187       14.836        0.081      332.036        0.439      873.360
01/06/2015  07:29:00      -52.677        8.810       -3.818        8.112        9.019        5.427       65.805       81.343       29.452        0.152        0.009       53.408        2.520        0.002      332.097        0.539      873.356
01/06/2015  07:30:00      -55.936        3.659       -6.532        7.351        7.740        6.727       54.038       59.907       45.255        0.167        0.008       56.056        3.249        0.003      332.157        0.636      873.350
01/06/2015  07:31:00      -61.754        1.086       -9.445       12.248        8.837        6.355      150.026       78.089       40.387        0.209        0.013       61.764        4.533        0.005      332.195        0.701      873.353
01/06/2015  07:32:00      -50.497      -29.496       -2.988       17.632       16.456       12.348      310.872      270.800      152.464        0.208        0.037       58.480        7.976        0.019      332.080        0.511      873.361
01/06/2015  07:33:00      -80.362      -33.362       -8.086       24.029       16.025       11.277      577.398      256.787      127.182        0.430        0.048       87.012       10.886        0.016      332.034        0.436      873.368
01/06/2015  07:34:00      -65.552      -42.268       -2.549       19.974       12.202       10.798      398.948      148.892      116.605        0.338        0.033       77.998        8.854        0.013      331.985        0.354      873.364
01/06/2015  07:35:00      -52.585      -32.236       -6.848       18.645       10.320       11.097      347.620      106.492      123.138        0.221        0.029       61.679        7.335        0.014      331.960        0.313      873.368
01/06/2015  07:36:00      -46.522      -24.676        1.904       14.922       18.243       11.894      222.656      332.825      141.464        0.174        0.035       52.662        9.937        0.036      331.973        0.336      873.379
01/06/2015  07:37:00      -56.340      -18.917       -8.994       12.237        9.673        6.059      149.751       93.568       36.717        0.195        0.014       59.431        4.801        0.007      332.017        0.409      873.395
01/06/2015  07:38:00      -54.329      -20.065       -9.381       12.633        7.642        6.776      159.587       58.402       45.910        0.185        0.013       57.916        3.866        0.004      332.016        0.407      873.420
01/06/2015  07:39:00      -19.223      -22.291       -1.976       16.953        9.384        6.602      287.398       88.059       43.582        0.064        0.021       29.435        6.184        0.044      332.099        0.541      873.441
01/06/2015  07:40:00      -20.655      -12.369       -6.438        7.393        7.248        6.859       54.655       52.538       47.050        0.039        0.008       24.075        5.398        0.050      332.146        0.618      873.455
01/06/2015  07:41:00       -2.506        5.509        6.371        9.407        9.810        3.801       88.494       96.244       14.445        0.014        0.010        6.052        4.593        0.576      332.216        0.733      873.455
01/06/2015  07:42:00       18.443       12.026        7.609        6.745        4.617        7.036       45.495       21.321       49.504        0.033        0.006       22.018        3.840        0.030      332.265        0.814      873.447
01/06/2015  07:43:00       10.918       12.733        9.118       11.564       11.311        6.778      133.720      127.931       45.935        0.034        0.015       16.773        4.072        0.059      332.262        0.811      873.446
01/06/2015  07:44:00       -4.472        2.591        8.440        4.552        4.143        3.915       20.724       17.168       15.328        0.008        0.003        5.168        2.768        0.287      332.270        0.824      873.446
01/06/2015  07:45:00       -1.700        5.694        8.111        5.313        5.589        5.788       28.226       31.242       33.503        0.010        0.005        5.942        3.505        0.348      332.241        0.776      873.443
01/06/2015  07:46:00       35.774       25.750       19.254       10.700        6.352        5.216      114.495       40.345       27.204        0.125        0.009       44.078        3.997        0.008      332.271        0.828      873.448
01/06/2015  07:47:00       43.217       25.647        5.065        8.223        8.626        7.977       67.625       74.412       63.635        0.138        0.010       50.254        6.077        0.015      332.235        0.766      873.446
01/06/2015  07:48:00       12.437       16.138        0.008        8.932       13.049        7.327       79.789      170.284       53.687        0.036        0.015       20.374        7.167        0.124      332.166        0.652      873.443
01/06/2015  07:49:00       20.181       21.390        1.420        8.229        8.350        6.830       67.718       69.728       46.643        0.053        0.009       29.408        4.517        0.024      332.151        0.628      873.439
01/06/2015  07:50:00       16.488       19.537        4.136       14.000       11.238       12.513      195.988      126.294      156.564        0.057        0.024       25.565        6.854        0.072      332.154        0.633      873.436
01/06/2015  07:51:00       58.565       36.554        8.593       23.046       15.218       10.226      531.137      231.590      104.574        0.285        0.043       69.037        7.048        0.010      332.236        0.768      873.445
01/06/2015  07:52:00       67.479       32.723        4.934       15.441       18.453       14.388      238.437      340.519      207.005        0.322        0.039       74.995        8.843        0.014      332.209        0.724      873.456
01/06/2015  07:53:00       56.995       36.728        2.127       20.096       15.095       11.058      403.859      227.851      122.276        0.268        0.038       67.804       10.974        0.026      332.165        0.652      873.461
01/06/2015  07:54:00       74.885       28.823        6.699       21.755       18.679       16.498      473.293      348.919      272.174        0.379        0.055       80.240       10.539        0.017      332.136        0.601      873.479
01/06/2015  07:55:00       71.349       38.622        3.469       16.687       15.914       15.317      278.443      253.243      234.596        0.368        0.038       81.132       10.227        0.016      332.096        0.536      873.490
01/06/2015  07:56:00       74.560       31.121       10.236       25.414       15.922       19.209      645.881      253.499      369.005        0.395        0.063       80.794       12.557        0.024      332.098        0.540      873.494
01/06/2015  07:57:00       48.812       31.099        6.111       12.117       10.938       12.895      146.820      119.650      166.277        0.191        0.022       57.877        5.018        0.008      332.112        0.562      873.492
01/06/2015  07:58:00       44.089       23.977       10.629       16.102       11.756       13.273      259.285      138.207      176.167        0.160        0.029       50.187        9.376        0.035      332.128        0.589      873.487
01/06/2015  07:59:00       41.934       40.136        3.384       15.407       13.460       11.943      237.370      181.163      142.624        0.197        0.028       58.046        7.196        0.015      332.171        0.661      873.495
01/06/2015  08:00:00       59.107       35.381        2.867       13.171       12.046        9.818      173.476      145.110       96.403        0.258        0.021       68.887        7.890        0.013      332.188        0.690      873.513
01/06/2015  08:01:00       32.986       19.993        2.895       14.787       13.470       10.423      218.646      181.452      108.635        0.100        0.025       38.572        8.410        0.048      332.200        0.709      873.522
01/06/2015  08:02:00       49.209       26.135       -0.490       12.303       10.326        9.146      151.369      106.628       83.642        0.172        0.017       55.719        6.872        0.015      332.241        0.778      873.531
01/06/2015  08:03:00       32.973       37.140        3.284        6.055        7.611        9.629       36.662       57.925       92.712        0.133        0.009       49.665        5.471        0.012      332.264        0.815      873.533
01/06/2015  08:04:00       29.569       31.696        7.831       15.092       17.741       12.575      227.758      314.751      158.133        0.132        0.035       43.347        9.424        0.047      332.323        0.909      873.534
01/06/2015  08:05:00       28.898       14.403       10.520       11.356       13.996       11.413      128.966      195.886      130.255        0.080        0.023       32.288        9.583        0.088      332.322        0.907      873.540
01/06/2015  08:06:00       23.180       14.157        4.015       13.657       13.215       10.543      186.514      174.631      111.164        0.061        0.024       27.161        9.265        0.116      332.403        1.043      873.531
01/06/2015  08:07:00       21.761       18.150        0.805       10.976        8.946        7.395      120.463       80.022       54.691        0.053        0.013       28.337        6.303        0.049      332.388        1.017      873.527
01/06/2015  08:08:00       -3.789        1.139        1.848        4.871        3.953        5.189       23.728       15.630       26.921        0.004        0.003        3.957        1.521        0.148      332.596        1.360      873.529
01/06/2015  08:09:00      -35.048       -4.045       -1.994       18.477        7.265        8.158      341.401       52.784       66.558        0.085        0.023       35.281       10.495        0.088      332.342        0.943      873.525
01/06/2015  08:10:00      -52.800      -19.794       -5.315       12.664       12.494        7.336      160.365      156.093       53.824        0.179        0.019       56.389        5.902        0.011      332.271        0.825      873.529
01/06/2015  08:11:00      -60.204      -27.837       -5.169        9.806        9.321        5.511       96.162       86.880       30.368        0.232        0.011       66.328        2.198        0.001      332.217        0.736      873.541
01/06/2015  08:12:00      -70.200      -15.396       -5.828       14.486       13.363        9.629      209.856      178.580       92.715        0.284        0.024       71.868        6.022        0.007      332.279        0.838      873.544
01/06/2015  08:13:00      -78.550      -23.513       -5.804       14.971       12.273       10.342      224.120      150.633      106.954        0.362        0.024       81.994        8.344        0.010      332.383        1.009      873.537
01/06/2015  08:14:00      -85.260       -7.385       -4.859       28.964       14.094       16.044      838.901      198.646      257.398        0.432        0.065       85.579       16.062        0.035      332.387        1.017      873.536
01/06/2015  08:15:00      -95.689       -2.443       -8.621       17.162       14.266       10.778      294.543      203.512      116.168        0.493        0.031       95.720        9.228        0.009      332.419        1.069      873.540
01/06/2015  08:16:00     -105.264       -2.845       -6.999       14.961       14.027       10.720      223.827      196.743      114.923        0.584        0.027      105.302        9.104        0.007      332.449        1.118      873.560
01/06/2015  08:17:00      -77.097      -13.313       -2.314       36.096       19.090       15.139     1302.899      364.429      229.198        0.401        0.095       78.238       16.978        0.047      332.442        1.107      873.577
01/06/2015  08:18:00      -93.669      -10.566       -2.650       26.457       16.257       14.775      699.977      264.297      218.287        0.504        0.059       94.263       14.950        0.025      332.423        1.075      873.594
01/06/2015  08:19:00      -77.198       -3.667        0.175       30.067       20.933       13.502      904.050      438.210      182.303        0.375        0.076       77.285       12.668        0.027      332.408        1.051      873.616
01/06/2015  08:20:00      -94.146       20.911       -6.253       21.776       18.283       17.786      474.193      334.255      316.351        0.523        0.056       96.440       11.696        0.015      332.536        1.262      873.627
01/06/2015  08:21:00     -103.841       28.894      -11.276       19.436       14.378       12.561      377.762      206.724      157.774        0.624        0.037      107.786       10.422        0.009      332.533        1.256      873.637
01/06/2015  08:22:00      -89.484       25.347      -14.601       19.582       13.317       10.945      383.474      177.331      119.798        0.477        0.034       93.004        5.850        0.004      332.569        1.316      873.635
01/06/2015  08:23:00      -32.519      -10.322        2.683       10.972       14.274       10.330      120.380      203.737      106.705        0.080        0.022       34.118        6.954        0.042      332.626        1.411      873.626
01/06/2015  08:24:00      -29.058       -0.554       -1.817       10.923       11.596        7.509      119.319      134.471       56.389        0.058        0.016       29.064        4.507        0.024      332.709        1.549      873.612
01/06/2015  08:25:00      -30.042       10.099       12.633       24.875       14.642       11.381      618.784      214.388      129.522        0.106        0.048       31.694        7.437        0.055      332.907        1.875      873.600
01/06/2015  08:26:00      -20.169       18.047        1.423       15.146       16.952       13.001      229.388      287.370      169.037        0.071        0.034       27.064       10.958        0.164      332.976        1.989      873.603
01/06/2015  08:27:00      -41.116       11.507       -2.463       18.150       15.956       10.132      329.414      254.579      102.657        0.126        0.034       42.696        1.667        0.002      332.852        1.786      873.600
01/06/2015  08:28:00      -27.385        9.032       -0.445       13.711       20.444       11.793      187.994      417.978      139.069        0.079        0.037       28.836       12.320        0.183      332.900        1.865      873.611
01/06/2015  08:29:00      -12.491       -6.204        1.047       10.050        5.245        4.387      101.004       27.511       19.248        0.017        0.007       13.947        2.538        0.033      332.935        1.922      873.622
01/06/2015  08:30:00       -9.473        4.935        6.739       12.677       10.487       12.600      160.715      109.972      158.762        0.029        0.021       10.682        8.723        0.667      333.292        2.511      873.638
01/06/2015  08:31:00       14.730       24.160        1.198       18.128       21.196       15.000      328.609      449.284      224.996        0.090        0.050       28.296       13.111        0.215      333.316        2.550      873.644
01/06/2015  08:32:00        2.727       41.334        0.113       13.604       17.066       13.197      185.082      291.234      174.152        0.118        0.033       41.423       10.021        0.059      333.272        2.478      873.643
01/06/2015  08:33:00       -0.711       26.669        8.230        9.320       28.143       14.721       86.858      792.025      216.714        0.094        0.055       26.678       16.926        0.403      333.572        2.975      873.648
01/06/2015  08:34:00        4.994        6.228       16.295       14.014       12.813       10.892      196.406      164.161      118.641        0.040        0.024        7.983        5.703        0.510      333.657        3.115      873.660
01/06/2015  08:35:00      -25.180       -9.513        7.004       14.469       10.095       10.788      209.352      101.900      116.371        0.060        0.021       26.917        6.714        0.062      333.355        2.614      873.669
01/06/2015  08:36:00      -37.146      -15.184        1.316       10.446        8.923        9.098      109.110       79.627       82.770        0.094        0.014       40.130        6.091        0.023      333.220        2.391      873.673
01/06/2015  08:37:00      -46.700      -21.274       -4.012       10.837        7.434        6.275      117.436       55.265       39.373        0.143        0.011       51.317        6.635        0.017      333.173        2.311      873.668
01/06/2015  08:38:00      -46.439      -13.124       -6.516       11.485        7.900        5.698      131.897       62.410       32.468        0.130        0.011       48.258        5.734        0.014      333.257        2.453      873.675
01/06/2015  08:39:00      -40.732      -22.860       -6.008        6.635        6.046        4.417       44.022       36.554       19.507        0.116        0.005       46.709        2.019        0.002      333.301        2.525      873.687
01/06/2015  08:40:00      -50.634      -24.696       -7.220        7.007        9.114        5.236       49.104       83.067       27.417        0.169        0.008       56.335        3.504        0.004      333.256        2.452      873.690
01/06/2015  08:41:00      -42.036      -17.789       -4.112       10.218        8.945        8.192      104.404       80.012       67.109        0.118        0.013       45.645        8.116        0.032      333.273        2.479      873.684
01/06/2015  08:42:00      -65.451      -23.533       -9.587        6.604        8.729        6.357       43.608       76.192       40.409        0.254        0.008       69.554        3.339        0.002      333.415        2.714      873.681
01/06/2015  08:43:00      -71.454      -30.501       -7.791        9.103        8.207        6.775       82.869       67.352       45.907        0.315        0.010       77.691        4.706        0.004      333.457        2.783      873.672
01/06/2015  08:44:00      -91.905      -33.056       -8.995       13.393       13.038        8.692      179.383      169.987       75.542        0.502        0.021       97.669        4.083        0.002      333.483        2.827      873.668
01/06/2015  08:45:00      -98.182      -38.039       -6.927       12.949       14.354        7.715      167.669      206.025       59.520        0.578        0.022      105.293        6.407        0.004      333.519        2.886      873.671
01/06/2015  08:46:00      -86.464      -33.587       -7.979       18.108       13.035       10.543      327.885      169.902      111.144        0.464        0.030       92.758        8.972        0.009      333.537        2.915      873.661
01/06/2015  08:47:00      -51.915      -23.394        1.685       16.090       18.447        9.844      258.892      340.307       96.904        0.197        0.035       56.942        7.013        0.015      333.531        2.906      873.650
01/06/2015  08:48:00      -22.216      -13.033        3.456       17.635       11.427        9.197      311.006      130.566       84.582        0.060        0.026       25.756        8.495        0.109      333.572        2.973      873.648
01/06/2015  08:49:00      -40.543      -14.702        0.962       18.175       13.744       10.901      330.325      188.901      118.824        0.125        0.032       43.126        3.074        0.005      333.703        3.191      873.653
01/06/2015  08:50:00      -20.002      -28.111        3.349       10.199       10.044        7.755      104.024      100.874       60.140        0.073        0.013       34.501        6.427        0.035      333.679        3.152      873.653
01/06/2015  08:51:00      -19.436      -18.808       -3.268        7.805        7.801        7.368       60.922       60.860       54.282        0.046        0.009       27.046        3.314        0.015      333.744        3.261      873.655
01/06/2015  08:52:00      -31.679      -12.761       -5.926        7.219       13.136       10.653       52.109      172.560      113.495        0.077        0.017       34.152        9.262        0.074      333.797        3.346      873.660
01/06/2015  08:53:00      -17.735      -10.098       -4.549        6.588        5.195        6.396       43.400       26.992       40.914        0.027        0.006       20.408        4.406        0.047      333.889        3.499      873.671
01/06/2015  08:54:00      -25.482      -14.572       -5.267        6.722        7.279        4.658       45.184       52.991       21.695        0.050        0.006       29.355        2.927        0.010      333.856        3.446      873.685
01/06/2015  08:55:00      -18.470       -3.146        2.724        6.970        4.440        4.704       48.577       19.712       22.125        0.022        0.005       18.736        3.879        0.043      333.973        3.642      873.695
01/06/2015  08:56:00      -38.381        3.184       -4.160        7.706        8.371        4.971       59.376       70.071       24.712        0.083        0.008       38.513        3.557        0.009      333.877        3.482      873.698
01/06/2015  08:57:00      -29.519      -16.166       -3.829       10.852        7.941        4.165      117.770       63.061       17.348        0.067        0.010       33.656        1.965        0.003      333.855        3.445      873.707
01/06/2015  08:58:00      -30.873       -6.909       -5.797        7.552        9.906        5.715       57.029       98.126       32.657        0.061        0.009       31.637        4.913        0.024      333.823        3.390      873.711
01/06/2015  08:59:00      -26.288      -11.273       -4.248        5.200        6.558        4.823       27.036       43.010       23.259        0.046        0.005       28.603        2.371        0.007      333.900        3.520      873.708
01/06/2015  09:00:00      -28.513        3.223       -2.369       12.332       12.418        7.817      152.071      154.206       61.110        0.060        0.018       28.694        3.627        0.016      333.908        3.532      873.688
01/06/2015  09:01:00      -29.282        2.754        6.072       16.933       15.054       10.616      286.741      226.611      112.698        0.076        0.031       29.412        6.444        0.048      334.008        3.699      873.670
01/06/2015  09:02:00      -24.906       -0.586       -0.830       10.325        7.408        5.976      106.611       54.879       35.715        0.041        0.010       24.913        2.619        0.011      334.001        3.687      873.653
01/06/2015  09:03:00      -16.174       13.626        2.483       12.374       23.076        9.942      153.114      532.488       98.849        0.062        0.039       21.149        9.949        0.221      334.110        3.866      873.655
01/06/2015  09:04:00      -13.941        9.499        4.990       19.670       13.108       12.816      386.921      171.829      164.246        0.052        0.036       16.869        6.662        0.156      334.102        3.854      873.661
01/06/2015  09:05:00      -24.891        8.559       -3.630       16.058       11.487        7.832      257.872      131.951       61.340        0.058        0.023       26.322        4.980        0.036      334.018        3.714      873.669
01/06/2015  09:06:00      -17.730      -15.642       -1.299        6.701        9.968        6.346       44.899       99.365       40.273        0.037        0.009       23.644        4.260        0.032      333.939        3.583      873.672
01/06/2015  09:07:00      -16.618      -10.088        0.837       12.497        9.315       11.521      156.181       86.768      132.733        0.038        0.019       19.440        3.972        0.042      334.044        3.757      873.684
01/06/2015  09:08:00      -10.252       -0.867       -4.268       14.499       11.117        7.585      210.219      123.591       57.527        0.026        0.020       10.289        3.751        0.133      334.063        3.788      873.676
01/06/2015  09:09:00      -31.518       -2.853       -2.914        9.014        9.917        7.624       81.256       98.340       58.130        0.062        0.012       31.647        6.124        0.037      333.933        3.575      873.672
01/06/2015  09:10:00      -24.006        6.707        6.475        7.334        5.357        5.942       53.790       28.702       35.310        0.039        0.006       24.925        3.642        0.021      333.993        3.674      873.675
01/06/2015  09:11:00      -16.118        0.036        2.476        8.886        3.476        5.760       78.967       12.080       33.181        0.020        0.006       16.118        5.499        0.116      334.192        4.003      873.671
01/06/2015  09:12:00      -21.477        1.770        7.177       12.585        6.897        9.373      158.376       47.563       87.850        0.040        0.015       21.550        8.616        0.160      334.271        4.134      873.676
01/06/2015  09:13:00      -29.567      -10.787        6.096       14.207       10.836       10.458      201.829      117.425      109.371        0.073        0.021       31.473        7.333        0.054      334.130        3.900      873.683
01/06/2015  09:14:00      -44.041      -16.786       -7.057       11.745        5.667        8.437      137.937       32.117       71.184        0.126        0.012       47.132        6.070        0.017      334.135        3.906      873.689
01/06/2015  09:15:00      -44.000       -3.907       -0.019       12.623       12.521       11.952      159.331      156.777      142.848        0.120        0.023       44.173       10.014        0.051      334.157        3.944      873.696
01/06/2015  09:16:00      -22.874       -3.235       -3.891        8.762        5.315        5.718       76.774       28.246       32.692        0.034        0.007       23.102        3.198        0.019      334.231        4.069      873.711
01/06/2015  09:17:00      -20.273      -15.661       -1.104       10.191        8.426        6.816      103.863       70.992       46.462        0.044        0.011       25.618        6.667        0.068      334.220        4.049      873.711
01/06/2015  09:18:00       -8.188        8.956       15.519        7.335        9.940       15.927       53.798       98.809      253.663        0.040        0.020       12.135       11.029        0.826      334.557        4.608      873.723
01/06/2015  09:19:00       -6.693        4.185       27.506        6.577       11.907        8.379       43.262      141.778       70.214        0.054        0.013        7.894        7.409        0.881      334.931        5.228      873.734
01/06/2015  09:20:00       -9.201       17.919       31.848       13.396       17.759       19.601      179.461      315.385      384.203        0.115        0.044       20.143       13.031        0.418      334.781        4.981      873.742
01/06/2015  09:21:00        8.718      -12.514       31.604       24.009       44.094       23.920      576.416     1944.256      572.157        0.216        0.155       15.251       27.185        3.177      334.632        4.733      873.752
01/06/2015  09:22:00        2.433       24.340       49.021       15.852       20.592       11.982      251.281      424.022      143.562        0.191        0.041       24.461       10.629        0.189      334.764        4.953      873.763
01/06/2015  09:23:00        2.639       26.678       58.137       21.001       27.377       16.535      441.033      749.504      273.396        0.278        0.073       26.808       15.168        0.320      334.839        5.076      873.762
01/06/2015  09:24:00       -4.024       25.835       61.072       24.336       26.864       14.944      592.256      721.697      223.336        0.298        0.077       26.147       13.207        0.255      334.764        4.951      873.763
01/06/2015  09:25:00       -5.572       23.520       51.852       10.597       24.311       12.053      112.295      591.006      145.276        0.206        0.042       24.171       13.662        0.319      334.902        5.180      873.763
01/06/2015  09:26:00       -1.522       28.249       50.618       19.382       27.521       19.121      375.649      757.402      365.611        0.243        0.075       28.290       11.943        0.178      334.969        5.291      873.761
01/06/2015  09:27:00       -7.970       22.637       27.167       27.757       32.289       17.973      770.460     1042.570      323.034        0.172        0.107       23.999        9.376        0.153      334.872        5.132      873.753
01/06/2015  09:28:00       39.966       39.568       23.194       25.139       24.847       24.923      631.987      617.394      621.169        0.279        0.094       56.240       14.433        0.066      334.779        4.977      873.756
01/06/2015  09:29:00        5.234       40.499       60.093       22.983       50.205       30.677      528.196     2520.575      941.075        0.463        0.199       40.836       36.429        0.796      334.922        5.214      873.751
01/06/2015  09:30:00       22.095       58.587       57.881       36.867       30.236       35.971     1359.188      914.234     1293.934        0.542        0.178       62.615       24.841        0.157      334.686        4.821      873.743
01/06/2015  09:31:00       90.644       85.271       60.382       36.284       20.674       28.603     1316.546      427.418      818.110        1.085        0.128      124.449       15.478        0.015      334.617        4.707      873.741
01/06/2015  09:32:00       36.451       82.100       82.039       43.188       35.386       28.848     1865.204     1252.161      832.202        0.937        0.197       89.829       26.860        0.089      334.723        4.884      873.743
01/06/2015  09:33:00       36.363       86.194       66.741       39.093       33.932       32.545     1528.293     1151.361     1059.208        0.847        0.187       93.550       24.311        0.068      334.739        4.909      873.731
01/06/2015  09:34:00       67.955       83.232       75.184       60.337       43.637       41.633     3640.547     1904.176     1733.332        1.224        0.364      107.450       42.260        0.155      334.577        4.643      873.736
01/06/2015  09:35:00       48.828       98.597       81.940       41.163       39.734       27.364     1694.383     1578.816      748.786        1.142        0.201      110.025       14.722        0.018      334.698        4.843      873.741
01/06/2015  09:36:00       51.208      103.273       95.765       46.358       40.016       19.880     2149.093     1601.298      395.208        1.330        0.207      115.271        8.072        0.005      334.594        4.669      873.747
01/06/2015  09:37:00       57.399      101.987       83.063       57.321       53.415       39.670     3285.694     2853.149     1573.726        1.415        0.386      117.030       29.018        0.061      334.824        5.052      873.754
01/06/2015  09:38:00       90.739       60.514       52.360       49.041       42.786       34.639     2405.040     1830.672     1199.852        1.004        0.272      109.066       26.926        0.061      334.581        4.649      873.756
01/06/2015  09:39:00       94.439       90.229       54.286       56.685       32.511       33.906     3213.146     1056.958     1149.606        1.271        0.271      130.614       34.047        0.068      334.578        4.643      873.748
01/06/2015  09:40:00       29.627       72.551       87.308       42.722       35.199       22.599     1825.142     1238.988      510.702        0.867        0.179       78.367       15.870        0.041      334.841        5.077      873.741
01/06/2015  09:41:00       41.073       78.958       59.249       46.000       35.312       33.628     2115.981     1246.906     1130.835        0.796        0.225       89.002       18.491        0.043      334.749        4.928      873.730
01/06/2015  09:42:00       33.632       32.229       54.646       45.222       42.474       40.750     2045.039     1804.076     1660.559        0.533        0.275       46.581       37.177        0.637      334.853        5.100      873.728
01/06/2015  09:43:00        6.460       31.530       58.679       29.364       28.010       25.787      862.261      784.582      664.982        0.339        0.116       32.184       15.331        0.227      335.344        5.915      873.735
01/06/2015  09:44:00       25.407       60.073       74.143       34.327       41.183       22.874     1178.376     1696.011      523.212        0.657        0.170       65.225       19.890        0.093      335.105        5.519      873.748
01/06/2015  09:45:00       85.198       73.872       52.510       29.434       21.298       33.839      866.377      453.584     1145.096        0.897        0.123      112.764       16.143        0.020      334.628        4.727      873.742
01/06/2015  09:46:00       93.136       56.398       40.288       57.154       38.198       37.136     3266.604     1459.099     1379.099        0.979        0.305      108.881       29.722        0.075      334.749        4.926      873.736
01/06/2015  09:47:00       51.935       83.427       71.702       45.932       28.641       35.920     2109.752      820.284     1290.250        0.951        0.211       98.272       31.289        0.101      334.674        4.802      873.734
01/06/2015  09:48:00       96.626       64.712       17.119       26.773       22.909       27.158      716.771      524.841      737.562        0.790        0.099      116.294       15.461        0.018      334.615        4.705      873.720
01/06/2015  09:49:00       61.280       24.359       35.798       23.302       31.711       25.850      542.964     1005.566      668.212        0.392        0.111       65.944       16.652        0.064      334.878        5.143      873.711
01/06/2015  09:50:00       62.533       29.005       28.687       29.911       23.881       28.678      894.662      570.311      822.422        0.393        0.114       68.932       20.584        0.089      334.852        5.100      873.707
01/06/2015  09:51:00       65.786       34.768       16.898       27.344       38.730       35.809      747.682     1500.021     1282.304        0.468        0.177       74.408       22.847        0.094      334.869        5.125      873.710
01/06/2015  09:52:00       30.003       63.282       70.813       37.502       36.375       27.982     1406.402     1323.136      782.986        0.672        0.176       70.034       21.817        0.097      335.120        5.542      873.705
01/06/2015  09:53:00       20.998       77.420       80.937       45.015       38.998       26.539     2026.390     1520.857      704.329        0.862        0.213       80.217       24.972        0.097      335.237        5.738      873.708
01/06/2015  09:54:00       39.079       84.037       81.242       39.559       40.183       33.053     1564.886     1614.672     1092.530        0.973        0.214       92.679       27.851        0.090      335.029        5.392      873.729
01/06/2015  09:55:00       49.653       68.324       79.832       37.015       45.353       34.022     1370.106     2056.905     1157.482        0.904        0.229       84.460       31.945        0.143      335.074        5.466      873.742
01/06/2015  09:56:00       59.646       67.936       55.361       46.266       34.296       32.922     2140.498     1176.231     1083.875        0.782        0.220       90.404        6.950        0.006      335.165        5.618      873.752
01/06/2015  09:57:00        1.304       49.480       74.808       36.832       47.666       23.533     1356.600     2272.074      553.805        0.611        0.209       49.497       21.184        0.183      335.518        6.205      873.766
01/06/2015  09:58:00       21.578       30.367       47.933       35.804       44.149       38.604     1281.944     1949.135     1490.261        0.420        0.236       37.252       30.755        0.682      335.157        5.606      873.776
01/06/2015  09:59:00       10.509       69.182       78.792       49.134       44.657       27.550     2414.138     1994.272      758.977        0.814        0.258       69.975       23.591        0.114      335.336        5.902      873.782
01/06/2015  10:00:00        5.371       63.132       67.969       40.210       33.338       25.147     1616.844     1111.401      632.396        0.600        0.168       63.360       24.058        0.144      335.395        6.000      873.765
01/06/2015  10:01:00       46.867       62.908       68.004       55.153       51.300       48.776     3041.901     2631.721     2379.135        0.941        0.403       78.447       46.646        0.354      335.265        5.783      873.750
01/06/2015  10:02:00      109.656       83.888       49.004       46.883       47.686       43.251     2198.044     2273.927     1870.688        1.390        0.317      138.064       29.241        0.045      334.999        5.342      873.729
01/06/2015  10:03:00       62.313       82.327       73.049       47.668       37.944       27.054     2272.281     1439.743      731.943        1.022        0.222      103.250       21.783        0.045      335.242        5.746      873.721
01/06/2015  10:04:00       46.609       67.184       74.328       47.102       28.572       27.039     2218.563      816.370      731.118        0.799        0.188       81.768       12.909        0.025      335.310        5.858      873.714
01/06/2015  10:05:00       66.920       79.046       58.530       26.309       22.791       31.104      692.154      519.411      967.446        0.817        0.109      103.569       21.282        0.042      335.025        5.386      873.709
01/06/2015  10:06:00       51.144       50.717       48.245       37.494       42.477       30.671     1405.826     1804.302      940.729        0.583        0.208       72.027       23.729        0.109      335.312        5.863      873.695
01/06/2015  10:07:00       56.587       87.180       59.620       46.412       34.458       38.821     2154.077     1187.320     1507.032        0.960        0.242      103.934       27.003        0.068      335.266        5.786      873.678
01/06/2015  10:08:00       12.804       63.904       86.482       38.189       38.756       29.135     1458.362     1502.041      848.869        0.777        0.190       65.175       19.123        0.086      335.581        6.309      873.661
01/06/2015  10:09:00       70.507       34.519       12.387       45.678       42.621       38.116     2086.464     1816.564     1452.801        0.583        0.268       78.503       21.555        0.075      335.251        5.761      873.652
01/06/2015  10:10:00       74.402       78.032       11.502       47.357       32.206       31.743     2242.721     1037.232     1007.588        0.802        0.214      107.818       21.009        0.038      335.284        5.816      873.651
01/06/2015  10:11:00       90.214       77.041       23.905       42.225       32.211       33.818     1782.953     1037.539     1143.689        0.930        0.198      118.634       16.993        0.021      335.568        6.289      873.635
01/06/2015  10:12:00       59.008       72.215       19.107       35.721       39.041       42.149     1275.995     1524.182     1776.573        0.682        0.229       93.258       30.594        0.108      335.408        6.022      873.633
01/06/2015  10:13:00       55.030       56.170        1.870       30.581       26.516       26.731      935.176      703.124      714.556        0.427        0.118       78.634       18.213        0.054      335.350        5.925      873.619
01/06/2015  10:14:00      106.503       75.375        8.569       43.365       29.045       40.958     1880.553      843.593     1677.574        1.075        0.220      130.477       16.860        0.017      335.336        5.902      873.612
01/06/2015  10:15:00      140.369       94.946        8.388       29.816       30.619       30.066      889.003      937.543      903.989        1.576        0.137      169.465       19.073        0.013      335.189        5.657      873.590
01/06/2015  10:16:00      130.534      103.163        4.998       65.310       49.084       33.682     4265.381     2409.260     1134.473        1.776        0.390      166.378       25.768        0.024      335.173        5.630      873.578
01/06/2015  10:17:00      153.446       77.661       15.579       49.116       37.458       40.542     2412.404     1403.138     1643.645        1.764        0.273      171.979       24.942        0.021      335.154        5.600      873.561
01/06/2015  10:18:00      106.942       76.339       15.587       42.853       40.156       35.715     1836.366     1612.493     1275.549        1.111        0.236      131.393       13.149        0.010      335.450        6.090      873.555
01/06/2015  10:19:00       83.976       62.378       36.763       42.279       35.831       37.061     1787.528     1283.868     1373.538        0.837        0.222      104.609       13.647        0.017      335.436        6.069      873.538
01/06/2015  10:20:00       87.503       56.004        3.745       40.105       42.349       31.904     1608.371     1793.452     1017.882        0.761        0.221      103.890       20.467        0.039      335.449        6.091      873.527
01/06/2015  10:21:00       87.596       83.942       47.589       56.948       44.831       38.371     3243.117     2009.832     1472.323        1.185        0.336      121.323       23.573        0.038      335.587        6.319      873.515
01/06/2015  10:22:00       76.484       47.089       12.789       44.190       27.600       36.683     1952.774      761.781     1345.611        0.614        0.203       89.817       25.975        0.084      335.419        6.041      873.504
01/06/2015  10:23:00       24.248       26.470        5.977       30.933       25.637       27.976      956.852      657.236      782.683        0.186        0.120       35.897       16.464        0.210      335.531        6.226      873.493
01/06/2015  10:24:00       18.124       70.149       84.898       44.018       46.858       27.259     1937.580     2195.714      743.066        0.867        0.244       72.453       19.762        0.074      335.777        6.637      873.472
01/06/2015  10:25:00       71.103       90.634       79.774       55.531       43.061       46.427     3083.736     1854.277     2155.447        1.336        0.355      115.197       44.357        0.148      335.511        6.194      873.456
01/06/2015  10:26:00       32.647       54.039       41.378       55.825       34.899       50.781     3116.444     1217.931     2578.711        0.630        0.346       63.135       45.565        0.521      335.735        6.567      873.447
01/06/2015  10:27:00       52.769       82.183      102.409       53.937       79.684       56.651     2909.236     6349.501     3209.287        1.624        0.623       97.666       56.354        0.333      335.725        6.550      873.450
01/06/2015  10:28:00       78.222       80.844       88.779       38.652       34.850       36.266     1494.011     1214.515     1315.206        1.228        0.201      112.491       27.556        0.060      335.538        6.239      873.466
01/06/2015  10:29:00       93.920       53.344       70.617       41.693       46.557       33.370     1738.267     2167.563     1113.578        1.084        0.251      108.011       30.687        0.081      335.576        6.302      873.474
01/06/2015  10:30:00       69.089       47.962       42.217       32.297       30.328       30.442     1043.081      919.771      926.721        0.587        0.144       84.105       23.945        0.081      335.565        6.283      873.464
01/06/2015  10:31:00       50.206       52.936       25.447       50.566       34.329       32.922     2556.918     1178.504     1083.867        0.539        0.241       72.958       24.069        0.109      335.758        6.605      873.450
01/06/2015  10:32:00      109.873       59.499       20.058       50.283       39.289       32.914     2528.372     1543.660     1083.323        1.058        0.258      124.949       18.886        0.023      335.617        6.371      873.444
01/06/2015  10:33:00       97.277       67.678        9.073       27.348       24.827       27.461      747.918      616.362      754.105        0.812        0.106      118.504        7.099        0.004      335.508        6.189      873.441
01/06/2015  10:34:00       76.611       68.809       16.619       61.631       39.158       46.337     3798.335     1533.379     2147.138        0.918        0.374      102.976       20.842        0.041      335.772        6.627      873.425
01/06/2015  10:35:00       50.175       49.207        9.922       51.117       36.324       32.057     2612.909     1319.430     1027.657        0.500        0.248       70.276       16.612        0.056      336.001        7.011      873.410
01/06/2015  10:36:00        5.644       25.875       21.118       31.448       39.363       36.290      988.976     1549.452     1316.957        0.250        0.193       26.484       27.808        1.103      336.217        7.370      873.398
01/06/2015  10:37:00       38.990       85.803      102.220       51.728       47.663       34.637     2675.807     2271.764     1199.690        1.274        0.307       94.246       34.106        0.131      335.924        6.881      873.395
01/06/2015  10:38:00      123.696      104.562       56.345       41.972       29.371       39.970     1761.680      862.659     1597.616        1.681        0.211      161.969       21.822        0.018      335.508        6.189      873.391
01/06/2015  10:39:00      103.111       82.128       39.319       32.816       20.268       26.259     1076.859      410.798      689.529        1.055        0.109      131.821       20.800        0.025      335.484        6.148      873.400
01/06/2015  10:40:00       85.740       64.946       26.197       32.732       27.665       33.746     1071.379      765.348     1138.766        0.761        0.149      107.561       15.797        0.022      335.629        6.392      873.383
01/06/2015  10:41:00       87.662       63.575       11.609       26.529       29.407       29.969      703.798      864.773      898.153        0.716        0.123      108.288       10.684        0.010      335.621        6.376      873.373
01/06/2015  10:42:00       70.860       62.609       -1.439       31.581       33.040       24.578      997.365     1091.636      604.101        0.582        0.135       94.557        9.163        0.009      335.835        6.732      873.359
01/06/2015  10:43:00       46.174       84.058       74.765       57.299       46.527       49.919     3283.131     2164.743     2491.893        1.136        0.397       95.905       44.197        0.212      336.085        7.149      873.346
01/06/2015  10:44:00      129.034      132.781       66.625       43.125       41.409       44.988     1859.739     1714.738     2023.911        2.216        0.280      185.150       31.000        0.028      335.625        6.382      873.326
01/06/2015  10:45:00      142.780       94.165       42.732       38.409       43.257       45.796     1475.271     1871.188     2097.307        1.826        0.272      171.035       35.762        0.044      335.559        6.273      873.326
01/06/2015  10:46:00       67.645       52.640       44.960       46.829       49.607       33.191     2193.002     2460.864     1101.658        0.756        0.288       85.714       27.625        0.104      335.890        6.826      873.318
01/06/2015  10:47:00       92.025      122.075      104.355       71.606       38.145       42.140     5127.367     1455.073     1775.790        2.131        0.418      152.876       34.573        0.051      335.805        6.682      873.303
01/06/2015  10:48:00       70.278       93.254       83.191       49.129       48.839       45.386     2413.631     2385.252     2059.879        1.371        0.343      116.770       39.961        0.117      335.728        6.554      873.288
01/06/2015  10:49:00       36.715       79.299       92.887       44.084       57.126       32.018     1943.355     3263.346     1025.163        1.125        0.312       87.386       35.498        0.165      335.817        6.703      873.280
01/06/2015  10:50:00       24.932       91.001      105.380       48.248       44.966       40.193     2327.900     2021.980     1615.463        1.299        0.298       94.355       37.361        0.157      335.881        6.808      873.277
01/06/2015  10:51:00       23.024        5.467       14.922       35.395       24.577       22.949     1252.802      604.042      526.644        0.158        0.119       23.664       22.589        0.911      336.027        7.053      873.282
01/06/2015  10:52:00       43.375       32.031        8.153       49.357       36.498       25.670     2436.095     1332.135      658.933        0.370        0.221       53.920       10.902        0.041      336.050        7.091      873.273
01/06/2015  10:53:00       57.292       53.585       20.276       35.781       29.600       25.886     1280.249      876.185      670.070        0.470        0.141       78.446       10.369        0.017      336.098        7.171      873.242
01/06/2015  10:54:00       44.379       91.903       96.133       50.654       49.627       37.676     2565.806     2462.862     1419.467        1.305        0.322      102.058       29.610        0.084      336.008        7.021      873.229
01/06/2015  10:55:00       86.706      130.600      100.936       51.169       34.766       38.691     2618.264     1208.663     1497.018        2.004        0.266      156.762       33.565        0.046      335.885        6.817      873.200
01/06/2015  10:56:00       32.486       76.470       83.886       43.558       44.143       25.613     1897.273     1948.566      656.042        0.922        0.225       83.084       16.480        0.039      336.068        7.122      873.190
01/06/2015  10:57:00       41.744       67.430       51.720       42.882       36.064       36.368     1838.891     1300.610     1322.623        0.671        0.223       79.306       22.669        0.082      336.095        7.168      873.182
01/06/2015  10:58:00       24.974       88.384       88.177       39.087       36.824       35.893     1527.771     1356.009     1288.306        1.019        0.209       91.845       32.393        0.124      335.933        6.896      873.176
01/06/2015  10:59:00       55.240       61.766       50.156       50.502       35.603       36.080     2550.475     1267.589     1301.764        0.725        0.256       82.865       30.163        0.132      336.039        7.073      873.177
01/06/2015  11:00:00       93.767       64.803       25.853       29.554       19.244       21.855      873.439      370.342      477.623        0.769        0.086      113.982       11.215        0.010      335.689        6.491      873.172
01/06/2015  11:01:00       63.078       58.900       39.299       37.409       31.282       29.065     1399.468      978.564      844.794        0.611        0.161       86.302       20.163        0.055      336.138        7.240      873.159
01/06/2015  11:02:00       24.741       58.390       66.727       30.227       31.952       36.205      913.647     1020.948     1310.825        0.586        0.162       63.416       29.594        0.218      336.293        7.498      873.154
01/06/2015  11:03:00       43.743       81.677       66.185       33.441       28.489       31.031     1118.305      811.598      962.898        0.793        0.145       92.653       21.848        0.056      336.102        7.178      873.139
01/06/2015  11:04:00       13.327       47.363       62.974       35.905       29.959       21.766     1289.168      897.555      473.761        0.452        0.133       49.202        8.296        0.028      336.321        7.543      873.130
01/06/2015  11:05:00       16.786       39.660       57.869       37.185       27.520       17.239     1382.733      757.341      297.179        0.382        0.122       43.066       14.975        0.121      336.369        7.625      873.126
01/06/2015  11:06:00       62.055       63.888       45.842       38.195       30.795       36.490     1458.832      948.328     1331.540        0.689        0.187       89.064       21.599        0.059      336.060        7.107      873.104
01/06/2015  11:07:00       49.872       60.645       50.504       59.647       39.462       47.894     3557.719     1557.257     2293.833        0.806        0.370       78.518       47.114        0.360      336.099        7.174      873.078
01/06/2015  11:08:00       53.418       30.412       52.379       47.840       45.747       40.346     2288.649     2092.801     1627.805        0.626        0.300       61.469       39.484        0.413      336.127        7.218      873.054
01/06/2015  11:09:00       34.793      -22.789       56.970       32.252       46.740       26.125     1040.205     2184.637      682.509        0.444        0.195       41.592       24.342        0.343      336.330        7.560      873.036
01/06/2015  11:10:00       61.685       69.275       55.169       55.639       33.977       36.059     3095.677     1154.425     1300.252        0.860        0.278       92.758       25.339        0.075      336.365        7.618      872.995
01/06/2015  11:11:00       46.327       41.281       50.142       32.848       38.479       21.573     1078.970     1480.641      465.376        0.469        0.151       62.051       13.502        0.047      336.490        7.827      872.976
01/06/2015  11:12:00       26.544       34.896       66.140       40.529       38.970       22.218     1642.614     1518.667      493.636        0.498        0.183       43.844       19.521        0.198      336.573        7.966      872.963
01/06/2015  11:13:00       12.956       34.433       64.865       33.139       38.351       19.944     1098.208     1470.788      397.748        0.426        0.148       36.790       13.821        0.141      336.465        7.786      872.941
01/06/2015  11:14:00       73.313       83.831       45.002       45.544       23.222       43.941     2074.276      539.272     1930.786        0.949        0.227      111.366       32.020        0.083      336.177        7.305      872.917
01/06/2015  11:15:00       63.575       56.250       42.327       37.165       36.966       34.671     1381.234     1366.466     1202.109        0.647        0.197       84.888       18.356        0.047      336.178        7.305      872.901
01/06/2015  11:16:00       47.304        7.024       36.242       30.918       20.903       19.330      955.942      436.944      373.636        0.268        0.088       47.822       15.924        0.111      336.234        7.399      872.888
01/06/2015  11:17:00       71.722       50.379       31.729       25.293       21.458       22.449      639.727      460.435      503.938        0.515        0.080       87.647        6.946        0.006      336.141        7.241      872.859
01/06/2015  11:18:00       -7.800       30.395       -9.865       31.989       10.711       17.271     1023.300      114.722      298.295        0.126        0.072       31.379        8.587        0.075      336.050        7.092      872.852
01/06/2015  11:19:00      -17.405       11.022       -0.032       16.803       20.765       18.190      282.336      431.181      330.892        0.073        0.052       20.601       13.122        0.406      336.390        7.658      872.850
01/06/2015  11:20:00      -31.045       29.058       -9.721       16.755       21.660       21.281      280.729      469.167      452.877        0.155        0.060       42.522       18.163        0.182      336.267        7.455      872.830
01/06/2015  11:21:00        0.125       31.786       19.548       18.826       24.103       13.627      354.417      580.944      185.703        0.126        0.056       31.787       13.041        0.168      336.744        8.251      872.810
01/06/2015  11:22:00      -10.376       31.559       20.818       19.712       27.260       30.864      388.577      743.102      952.571        0.181        0.104       33.221       14.417        0.188      336.763        8.282      872.792
01/06/2015  11:23:00       43.132       51.025       43.329       30.009       17.313       19.960      900.557      299.755      398.415        0.397        0.080       66.813       11.504        0.030      336.400        7.676      872.786
01/06/2015  11:24:00       41.805       37.910       35.165       26.559       31.398       20.330      705.404      985.865      413.301        0.326        0.105       56.434       11.917        0.045      336.526        7.886      872.781
01/06/2015  11:25:00       41.852       47.806       36.369       21.713       16.608       23.163      471.474      275.841      536.541        0.332        0.064       63.537       16.083        0.064      336.396        7.671      872.772
01/06/2015  11:26:00       43.854       40.318       31.928       25.454       17.881       27.315      647.906      319.741      746.101        0.314        0.086       59.571       19.574        0.108      336.392        7.663      872.767
01/06/2015  11:27:00       39.634       32.729       -9.491       28.151       30.614       13.306      792.500      937.218      177.059        0.232        0.095       51.400       10.743        0.044      336.376        7.637      872.749
01/06/2015  11:28:00       13.872       58.961      -15.224       18.271       22.068       17.038      333.841      487.013      290.306        0.251        0.056       60.571        5.115        0.007      336.487        7.821      872.719
01/06/2015  11:29:00       28.384       36.919       -5.954       22.552       24.367       19.025      508.574      593.739      361.961        0.183        0.073       46.569        7.780        0.028      336.447        7.754      872.700
01/06/2015  11:30:00       25.800       24.998       -8.031       21.854       17.889       19.234      477.593      320.015      369.955        0.126        0.058       35.924       11.883        0.109      336.530        7.893      872.688
01/06/2015  11:31:00        5.947       -5.397        5.434       12.414       12.234       15.672      154.102      149.666      245.615        0.032        0.027        8.031        4.557        0.322      336.731        8.230      872.652
01/06/2015  11:32:00       -2.238       11.474       -4.183       22.850       16.375       18.706      522.124      268.137      349.896        0.065        0.057       11.690       18.144        2.409      336.620        8.044      872.624
01/06/2015  11:33:00       53.052       50.335        3.327       39.928       17.219       24.964     1594.235      296.480      623.225        0.394        0.126       73.130       13.892        0.036      336.598        8.008      872.607
01/06/2015  11:34:00       48.361       32.510       -3.399       21.434       18.291       17.397      459.423      334.549      302.645        0.225        0.055       58.273        6.295        0.012      336.612        8.031      872.597
01/06/2015  11:35:00       19.051       72.402       -0.351       24.036       32.417       20.868      577.737     1050.870      435.454        0.383        0.103       74.867       12.137        0.026      336.692        8.165      872.567
01/06/2015  11:36:00       48.705       49.128       21.708       32.005       27.567       30.476     1024.305      759.944      928.802        0.398        0.136       69.179       23.344        0.114      336.827        8.390      872.553
01/06/2015  11:37:00       57.189       39.696        5.830       43.118       40.588       23.756     1859.191     1647.406      564.343        0.447        0.204       69.616       18.913        0.074      336.887        8.491      872.531
01/06/2015  11:38:00       -8.873       40.069       40.058       24.993       26.778       35.902      624.669      717.075     1288.977        0.296        0.132       41.040       20.329        0.245      337.464        9.456      872.501
01/06/2015  11:39:00       78.455       70.074       12.190       32.290       34.411       34.785     1042.630     1184.120     1210.010        0.732        0.172      105.192        8.613        0.007      336.997        8.673      872.477
01/06/2015  11:40:00       29.179       38.639       67.849       43.589       57.116       38.719     1900.030     3262.267     1499.175        0.680        0.333       48.418       34.003        0.493      337.133        8.902      872.463
01/06/2015  11:41:00       68.970      -35.827        6.874       30.670       32.646       26.219      940.662     1065.746      687.414        0.439        0.135       77.720       17.405        0.050      336.632        8.064      872.443
01/06/2015  11:42:00       14.776        4.894       26.676       35.456       39.752       28.056     1257.127     1580.184      787.134        0.229        0.181       15.565       29.447        3.579      337.192        9.002      872.416
01/06/2015  11:43:00       11.004       18.923       57.315       32.417       34.926       26.769     1050.860     1219.803      716.592        0.338        0.149       21.890       20.216        0.853      337.634        9.739      872.396
01/06/2015  11:44:00       65.538      -89.362      -13.857       54.162       48.829       29.964     2933.504     2384.255      897.868        0.934        0.311      110.819       24.433        0.049      336.938        8.575      872.379
01/06/2015  11:45:00       54.971       -1.281       30.473       53.117       63.483       35.503     2821.378     4030.116     1260.441        0.603        0.406       54.986       41.762        0.577      337.050        8.763      872.374
01/06/2015  11:46:00       16.242      -17.935       24.405       19.902       41.724       26.209      396.096     1740.923      686.934        0.200        0.141       24.197       23.722        0.961      337.208        9.026      872.363
01/06/2015  11:47:00       49.280       44.518       13.221       48.105       45.230       32.529     2314.118     2045.781     1058.162        0.500        0.271       66.410       19.693        0.088      337.068        8.794      872.347
01/06/2015  11:48:00      104.337       57.053       15.844       35.413       32.233       25.157     1254.076     1038.942      632.855        0.866        0.146      118.916       11.060        0.009      337.088        8.826      872.334
01/06/2015  11:49:00       38.239       64.290       48.115       56.318       36.734       43.369     3171.729     1349.409     1880.834        0.715        0.320       74.803       42.550        0.324      337.507        9.528      872.315
01/06/2015  11:50:00       33.214       59.909       65.932       44.444       41.093       30.158     1975.302     1688.669      909.516        0.681        0.229       68.500       19.139        0.078      337.469        9.462      872.295
01/06/2015  11:51:00       13.056       51.174       71.432       27.236       30.939       19.474      741.796      957.241      379.232        0.498        0.104       52.813       13.959        0.070      337.533        9.571      872.283
01/06/2015  11:52:00       43.337       53.968       95.236       57.999       50.082       34.771     3363.877     2508.214     1209.036        1.047        0.354       69.214       36.513        0.278      337.368        9.295      872.257
01/06/2015  11:53:00       74.651       78.130       64.162       71.219       61.468       53.903     5072.147     3778.355     2905.502        1.377        0.588      108.060       47.638        0.194      337.009        8.694      872.227
01/06/2015  11:54:00       31.401       65.651       81.984       56.284       45.817       43.697     3167.890     2099.184     1909.404        0.960        0.359       72.774       23.818        0.107      337.181        8.982      872.216
01/06/2015  11:55:00       83.323       58.867       51.489       83.219       46.657       47.029     6925.325     2176.897     2211.763        1.218        0.566      102.020       45.468        0.199      337.203        9.018      872.188
01/06/2015  11:56:00       39.598       57.125       62.572       53.691       48.329       43.661     2882.735     2335.715     1906.293        0.793        0.356       69.507       35.857        0.266      337.258        9.110      872.162
01/06/2015  11:57:00       61.879       71.103       66.277       57.655       34.115       41.707     3324.133     1163.805     1739.433        0.975        0.311       94.259       40.422        0.184      337.029        8.727      872.143
01/06/2015  11:58:00       92.441       52.243       20.615       43.660       28.936       29.837     1906.210      837.279      890.238        0.767        0.182      106.183       16.915        0.025      336.944        8.585      872.111
01/06/2015  11:59:00       34.301       48.176       17.027       46.686       37.843       21.877     2179.539     1432.091      478.582        0.394        0.205       59.139        7.777        0.017      337.292        9.168      872.082
01/06/2015  12:00:00       29.155       68.693       61.750       47.133       47.903       39.207     2221.567     2294.735     1537.171        0.772        0.303       74.624       29.048        0.152      337.319        9.212      872.069
01/06/2015  12:01:00       81.085       70.803        7.363       36.060       32.498       23.116     1300.318     1056.100      534.369        0.727        0.145      107.646       14.743        0.019      336.889        8.493      872.050
01/06/2015  12:02:00       82.307       68.705        9.233       34.685       23.301       26.175     1203.071      542.933      685.117        0.701        0.122      107.214       10.192        0.009      336.895        8.504      872.036
01/06/2015  12:03:00       23.505       60.573        2.696       38.255       18.161       19.374     1463.474      329.830      375.356        0.320        0.108       64.973       14.958        0.053      336.981        8.646      872.013
01/06/2015  12:04:00       58.149       46.131      -11.213       46.131       34.569       28.529     2128.044     1195.034      813.909        0.489        0.207       74.225        9.179        0.015      337.189        8.994      871.976
01/06/2015  12:05:00       70.918       67.330        2.076       30.107       27.365       27.023      906.435      748.818      730.240        0.598        0.119       97.789        9.247        0.009      337.059        8.777      871.957
01/06/2015  12:06:00       62.400       56.573        8.095       38.910       29.957       28.130     1513.975      897.429      791.305        0.518        0.160       84.227       21.031        0.062      337.077        8.808      871.938
01/06/2015  12:07:00       88.756       74.878        3.863       43.571       30.997       30.441     1898.446      960.795      926.683        0.864        0.189      116.122       16.500        0.020      337.114        8.870      871.910
01/06/2015  12:08:00       54.486       49.819        7.992       35.960       23.387       28.876     1293.122      546.957      833.837        0.409        0.134       73.829        9.803        0.018      337.171        8.965      871.876
01/06/2015  12:09:00       25.493       54.058       53.125       46.280       32.069       30.615     2141.854     1028.424      937.248        0.525        0.205       59.768       22.812        0.146      337.542        9.586      871.861
01/06/2015  12:10:00       -0.856       11.727       36.935       26.015       36.845       25.020      676.794     1357.528      625.982        0.208        0.133       11.758       14.446        1.509      337.797       10.014      871.855
01/06/2015  12:11:00        2.754      -78.123       35.476       31.175       41.681       22.087      971.875     1737.343      487.835        0.528        0.160       78.172       13.842        0.031      337.372        9.302      871.858
01/06/2015  12:12:00        8.353        8.709       16.137       27.552       50.761       24.145      759.115     2576.720      582.970        0.216        0.196       12.067       27.078        5.035      337.606        9.693      871.839
01/06/2015  12:13:00       20.936       23.323        9.916       22.605       26.087       20.597      510.996      680.513      424.228        0.135        0.081       31.341        7.589        0.059      337.518        9.546      871.817
01/06/2015  12:14:00       13.854       46.583       -2.813       33.204       28.269       22.187     1102.487      799.131      492.260        0.238        0.120       48.599       11.605        0.057      337.491        9.501      871.788
01/06/2015  12:15:00       11.266       30.922       27.265       41.363       27.182       25.059     1710.858      738.840      627.936        0.245        0.154       32.910       19.586        0.354      337.761        9.953      871.759
01/06/2015  12:16:00       13.541       10.647        7.123       38.123       30.713       24.059     1453.358      943.277      578.812        0.166        0.149       17.226       14.528        0.711      337.649        9.764      871.730
01/06/2015  12:17:00       12.530       40.110        6.407       28.055       30.642       22.461      787.059      938.922      504.510        0.202        0.112       42.021       15.738        0.140      337.544        9.591      871.710
01/06/2015  12:18:00       34.869       79.921      -10.237       44.690       44.940       23.868     1997.184     2019.601      569.703        0.615        0.229       87.196       13.664        0.025      337.487        9.493      871.692
01/06/2015  12:19:00        4.621       58.656       -3.692       45.743       47.247       26.728     2092.403     2232.240      714.377        0.426        0.252       58.838       34.723        0.348      337.471        9.468      871.674
01/06/2015  12:20:00      -49.556       43.783      -12.944       29.000       41.244       21.307      840.983     1701.033      453.997        0.377        0.150       66.127       14.048        0.045      337.647        9.763      871.656
01/06/2015  12:21:00      -73.324       38.706       13.080       38.692       46.565       41.323     1497.095     2168.293     1707.605        0.621        0.269       82.913       27.838        0.113      338.044       10.428      871.650
01/06/2015  12:22:00       -2.136        5.542       11.048       23.935       30.746       25.102      572.870      945.296      630.130        0.115        0.107        5.940       13.916        5.489      338.336       10.918      871.640
01/06/2015  12:23:00      -10.972       11.513       19.202       25.992       21.692       18.087      675.593      470.540      327.127        0.105        0.074       15.904       14.682        0.852      338.431       11.078      871.612
01/06/2015  12:24:00        0.452      -18.435       13.114       16.522       22.636       19.973      272.975      512.407      398.913        0.085        0.059       18.441       17.294        0.879      338.526       11.238      871.593
01/06/2015  12:25:00       -9.662      -43.029       12.175       36.008       22.521       20.798     1296.587      507.190      432.538        0.216        0.112       44.100       15.906        0.130      337.940       10.253      871.581
01/06/2015  12:26:00      -16.886       13.874       19.075       27.310       28.002       18.837      745.839      784.102      354.848        0.136        0.094       21.855       15.771        0.521      338.318       10.889      871.555
01/06/2015  12:27:00      -70.381      -19.565       -1.979       29.339       29.710       21.031      860.794      882.684      442.320        0.376        0.109       73.050       19.971        0.075      337.556        9.609      871.543
01/06/2015  12:28:00      -63.310      -26.228       -0.786       27.514       28.862       16.765      757.029      833.036      281.067        0.328        0.094       68.528       14.240        0.043      337.658        9.779      871.519
01/06/2015  12:29:00      -70.347      -21.957       -0.439       23.015       25.128       15.704      529.693      631.405      246.602        0.342        0.070       73.694       10.028        0.019      337.614        9.707      871.484
01/06/2015  12:30:00       -8.240       -2.818       20.468       23.234       14.128       13.693      539.819      199.605      187.497        0.071        0.046        8.708       15.324        3.097      338.475       11.150      871.463
01/06/2015  12:31:00      -27.434        7.941        3.086       32.328       20.117       14.221     1045.072      404.702      202.227        0.124        0.083       28.560       18.350        0.413      338.122       10.560      871.430
01/06/2015  12:32:00      -79.097      -29.138        3.869       40.468       32.186       23.764     1637.642     1035.908      564.740        0.518        0.162       84.293       27.273        0.105      337.898       10.184      871.416
01/06/2015  12:33:00      -53.745      -36.549        7.071       46.115       25.958       28.133     2126.620      673.824      791.449        0.393        0.180       64.995       24.138        0.138      337.979       10.319      871.396
01/06/2015  12:34:00      -99.303      -38.174      -21.452       19.816       31.420       15.610      392.660      987.192      243.686        0.670        0.081      106.388        7.013        0.004      337.613        9.705      871.387
01/06/2015  12:35:00     -130.385       32.230       -9.592       19.163       54.295       20.774      367.202     2947.989      431.554        1.094        0.187      134.309       10.894        0.007      337.829       10.068      871.372
01/06/2015  12:36:00      -39.083      -18.108       -4.825       32.824       20.477       14.965     1077.396      419.326      223.962        0.180        0.086       43.074       10.848        0.063      337.985       10.329      871.356
01/06/2015  12:37:00      -51.253      -26.050       -1.817       15.600       17.542       15.114      243.364      307.720      228.429        0.204        0.039       57.493       10.068        0.031      337.873       10.140      871.339
01/06/2015  12:38:00      -64.695      -33.590        1.320       36.055       23.789       19.870     1299.928      565.907      394.823        0.379        0.113       72.895       19.414        0.071      337.878       10.150      871.328
01/06/2015  12:39:00     -103.988       -9.696       -6.637       49.304       21.288       16.363     2430.914      453.168      267.742        0.705        0.158      104.439       17.487        0.028      337.759        9.950      871.313
01/06/2015  12:40:00      -60.038      -26.333        5.327       28.971       30.308       21.878      839.295      918.556      478.663        0.328        0.112       65.559       19.857        0.092      338.257       10.786      871.299
01/06/2015  12:41:00      -19.972       -1.110      -12.534       50.713       50.118       23.963     2571.843     2511.810      574.202        0.311        0.283       20.003       19.427        0.943      338.137       10.584      871.284
01/06/2015  12:42:00      -62.886      -35.837       -0.411       30.069       30.076       22.682      904.127      904.564      514.486        0.378        0.116       72.380       22.134        0.094      337.967       10.298      871.270
01/06/2015  12:43:00      -95.041      -40.811       10.330       61.305       48.742       29.999     3758.321     2375.767      899.943        0.892        0.352      103.433       36.259        0.123      338.211       10.708      871.248
01/06/2015  12:44:00      -33.932       22.027        9.298       38.532       37.387       32.549     1484.712     1397.777     1059.454        0.283        0.197       40.455       28.511        0.497      338.595       11.353      871.237
01/06/2015  12:45:00      -50.928       71.292       -7.865       27.456       31.805       23.244      753.843     1011.565      540.290        0.502        0.115       87.614       19.626        0.050      338.145       10.597      871.215
01/06/2015  12:46:00      -56.591        9.449      -20.457       33.215       36.445       20.173     1103.234     1328.264      406.937        0.327        0.142       57.374       24.251        0.179      338.044       10.429      871.200
01/06/2015  12:47:00      -51.166        5.019        7.863       46.946       22.218       26.274     2203.964      493.659      690.315        0.305        0.169       51.412       26.063        0.257      338.571       11.314      871.166
01/06/2015  12:48:00     -111.855        5.933      -22.412       31.947       21.921       14.117     1020.605      480.529      199.298        0.737        0.085      112.012        9.418        0.007      337.972       10.308      871.156
01/06/2015  12:49:00     -118.194      -32.278      -12.369       38.962       45.165       21.247     1518.004     2039.911      451.437        0.959        0.200      122.522       14.295        0.014      338.329       10.906      871.131
01/06/2015  12:50:00      -73.568       39.342       -4.942       41.943       41.775       27.933     1759.207     1745.179      780.251        0.563        0.214       83.426       13.781        0.027      338.706       11.539      871.114
01/06/2015  12:51:00      -35.022       15.327      -23.406       38.865       27.469       21.592     1510.516      754.522      466.221        0.237        0.137       38.229       16.271        0.181      338.426       11.068      871.092
01/06/2015  12:52:00       37.677       -4.248      -11.038       22.865       25.221       20.796      522.811      636.092      432.491        0.158        0.080       37.916       16.992        0.201      338.255       10.782      871.077
01/06/2015  12:53:00       -6.261       48.222       16.793       19.501       26.815       27.804      380.295      719.039      773.082        0.226        0.094       48.626       19.935        0.168      338.454       11.116      871.039
01/06/2015  12:54:00      -39.530       71.579       -7.971       30.100       26.959       22.244      906.010      726.793      494.785        0.444        0.106       81.769       11.645        0.020      338.349       10.939      871.018
01/06/2015  12:55:00      -52.801       17.144        8.605       26.637       38.701       24.328      709.519     1497.751      591.866        0.298        0.140       55.515       13.072        0.055      338.432       11.079      870.995
01/06/2015  12:56:00      -61.515       14.764      -27.600       18.096       19.783       27.058      327.454      391.375      732.161        0.311        0.073       63.262       11.369        0.032      338.210       10.707      870.980
01/06/2015  12:57:00      -21.226       17.615        2.377       28.327       27.531       23.665      802.419      757.983      560.042        0.144        0.106       27.583       13.320        0.233      338.519       11.225      870.965
01/06/2015  12:58:00        7.317       32.106      -10.728       13.304       28.792       13.424      177.008      828.987      180.199        0.119        0.059       32.929        9.804        0.089      338.551       11.279      870.960
01/06/2015  12:59:00      -20.416       96.186      -22.453       21.635       22.686       12.849      468.064      514.658      165.098        0.566        0.057       98.328        8.166        0.007      338.263       10.795      870.944
01/06/2015  13:00:00       17.543       60.439       -5.729       32.543       65.579       26.280     1059.074     4300.592      690.646        0.502        0.303       62.933       31.164        0.245      338.400       11.026      870.935
01/06/2015  13:01:00       19.812      127.649      -24.286       28.625       22.448       20.656      819.418      503.901      426.689        0.951        0.088      129.177       10.540        0.007      338.265       10.799      870.909
01/06/2015  13:02:00       24.382      124.367      -21.846       19.256       19.473       17.202      370.796      379.212      295.896        0.879        0.052      126.734        4.578        0.001      338.313       10.880      870.907
01/06/2015  13:03:00       17.481       69.615        3.516       23.184       29.811       29.959      537.483      888.714      897.523        0.374        0.116       71.776       24.687        0.118      338.612       11.382      870.889
01/06/2015  13:04:00        0.141       51.134       -4.116       12.861       31.289       15.376      165.398      978.998      236.410        0.201        0.069       51.135        4.409        0.007      338.577       11.325      870.882
01/06/2015  13:05:00        9.655       56.623       -1.401       16.034       53.464       16.549      257.087     2858.406      273.881        0.334        0.169       57.440       13.382        0.054      338.714       11.555      870.881
01/06/2015  13:06:00      -16.718       45.083      -11.229       13.454       54.027       20.073      181.002     2918.890      402.917        0.297        0.175       48.082       18.018        0.140      338.589       11.345      870.870
01/06/2015  13:07:00       -7.218       42.473      -15.727       27.249       18.165       12.297      742.488      329.983      151.215        0.166        0.061       43.082        7.706        0.032      338.587       11.338      870.875
01/06/2015  13:08:00      -21.964       29.477      -24.044       30.883       21.955       18.563      953.774      482.030      344.577        0.185        0.089       36.760       16.393        0.199      338.585       11.337      870.872
01/06/2015  13:09:00      -31.483       17.647      -12.000       18.408       26.322       21.734      338.853      692.859      472.354        0.148        0.075       36.091       10.408        0.083      338.700       11.530      870.867
01/06/2015  13:10:00       13.844       23.808       13.103       18.482       42.387       28.091      341.571     1796.648      789.115        0.193        0.146       27.541       17.120        0.386      339.036       12.095      870.845
01/06/2015  13:11:00       22.175        3.026        8.464       25.613       21.908       14.104      656.004      479.950      198.924        0.095        0.067       22.381        7.205        0.104      338.967       11.979      870.831
01/06/2015  13:12:00       68.520       62.396        8.691       38.213       25.169       23.395     1460.255      633.484      547.319        0.565        0.132       92.673       12.825        0.019      338.848       11.779      870.805
01/06/2015  13:13:00       32.279        4.362        7.970       39.489       29.171       22.476     1559.409      850.952      505.180        0.202        0.146       32.573       17.239        0.280      339.080       12.169      870.790
01/06/2015  13:14:00      105.973       44.666       26.797       71.699       47.034       30.371     5140.721     2212.189      922.407        1.111        0.414      115.002       20.228        0.031      339.105       12.210      870.772
01/06/2015  13:15:00      112.048       65.859       21.349       48.803       32.732       38.320     2381.715     1071.369     1468.437        1.113        0.246      129.970       25.246        0.038      338.810       11.715      870.762
01/06/2015  13:16:00       78.360       30.100       24.104       29.836       31.086       26.236      890.202      966.346      688.328        0.509        0.127       83.942       19.680        0.055      338.808       11.713      870.772
01/06/2015  13:17:00       83.376       51.270        7.081       41.388       44.905       36.935     1712.978     2016.481     1364.162        0.736        0.255       97.878       21.561        0.049      338.854       11.789      870.761
01/06/2015  13:18:00       70.578       74.198       56.443       50.294       37.912       43.905     2529.473     1437.320     1927.682        0.978        0.295      102.404       28.765        0.079      338.867       11.811      870.748
01/06/2015  13:19:00       35.742        6.465       36.346       35.475       34.873       31.496     1258.488     1216.115      992.027        0.305        0.173       36.322       25.244        0.483      339.019       12.065      870.737
01/06/2015  13:20:00       64.950       74.623       39.774       79.415       34.233       40.821     6306.678     1171.891     1666.335        1.026        0.457       98.930       46.138        0.217      339.133       12.258      870.719
01/06/2015  13:21:00       93.886       88.276        9.103       52.066       37.412       34.424     2710.817     1399.667     1185.004        1.099        0.265      128.870       14.386        0.012      338.918       11.897      870.720
01/06/2015  13:22:00       37.835       88.725      -21.869       36.083       46.744       26.480     1301.991     2184.970      701.165        0.698        0.209       96.456       13.644        0.020      338.966       11.978      870.698
01/06/2015  13:23:00       48.339      101.038       -9.481       39.482       41.145       29.862     1558.805     1692.928      891.741        0.839        0.207      112.006       17.881        0.025      338.885       11.843      870.696
01/06/2015  13:24:00       37.584       59.852       -2.688       44.431       55.175       41.699     1974.119     3044.237     1738.780        0.588        0.338       70.674       32.756        0.215      338.929       11.914      870.688
01/06/2015  13:25:00       33.880      120.680      -19.735       22.548       25.480       19.733      508.395      649.249      389.396        0.882        0.077      125.346       14.565        0.014      338.793       11.687      870.679
01/06/2015  13:26:00       40.043       63.176        8.896       36.143       36.184       29.692     1306.338     1309.284      881.628        0.458        0.175       74.798       26.033        0.121      338.960       11.966      870.684
01/06/2015  13:27:00       41.213       35.702        9.973       43.286       31.036       26.101     1873.658      963.243      681.254        0.329        0.176       54.527       27.505        0.254      338.929       11.914      870.678
01/06/2015  13:28:00       78.038       41.619       -5.789       31.185       30.590       17.983      972.519      935.761      323.391        0.504        0.112       88.442       11.136        0.016      338.809       11.713      870.675
01/06/2015  13:29:00       80.374       10.776        1.823       22.588       22.680       24.082      510.208      514.394      579.943        0.409        0.080       81.093       16.101        0.039      338.756       11.623      870.679
01/06/2015  13:30:00       15.688       51.148      -13.517       25.884       31.398       11.928      669.963      985.839      142.279        0.242        0.090       53.499       13.052        0.060      338.910       11.883      870.681
01/06/2015  13:31:00       10.127       43.387        3.233       19.621       28.568       21.801      384.979      816.126      475.273        0.184        0.084       44.553       20.058        0.203      339.096       12.195      870.675
01/06/2015  13:32:00        0.676       45.170       -2.350       18.398       32.421       23.498      338.476     1051.146      552.155        0.199        0.097       45.176       24.289        0.289      339.107       12.214      870.666
01/06/2015  13:33:00       37.624       27.302       25.318       44.078       26.665       24.568     1942.902      711.029      603.585        0.303        0.163       46.486       25.386        0.298      339.192       12.357      870.658
01/06/2015  13:34:00        8.113       18.419       46.384       32.669       37.610       30.905     1067.296     1414.547      955.097        0.300        0.172       20.127       28.382        1.989      339.528       12.924      870.636
01/06/2015  13:35:00       66.816       58.400       59.731       61.218       44.459       45.929     3747.668     1976.582     2109.480        0.964        0.392       88.741       41.793        0.222      339.054       12.125      870.615
01/06/2015  13:36:00       84.368       39.611       43.685       55.108       39.667       39.426     3036.920     1573.455     1554.398        0.838        0.308       93.204       37.098        0.158      339.180       12.338      870.606
01/06/2015  13:37:00       53.459        9.553       -2.677       29.649       26.271       24.786      879.091      690.179      614.335        0.257        0.109       54.306       14.667        0.073      339.072       12.155      870.586
01/06/2015  13:38:00       32.464       35.880       34.205       51.435       52.715       44.090     2645.566     2778.886     1943.926        0.544        0.368       48.387       40.991        0.718      339.344       12.612      870.565
01/06/2015  13:39:00      133.445       57.018       20.782       58.257       47.724       42.616     3393.904     2277.590     1816.147        1.449        0.374      145.116       28.963        0.040      339.288       12.518      870.546
01/06/2015  13:40:00      106.566       62.779       35.890       37.242       36.307       34.376     1386.986     1318.176     1181.685        1.024        0.194      123.683       20.054        0.026      339.170       12.321      870.553
01/06/2015  13:41:00       75.401       40.365       22.303       40.242       30.344       25.855     1619.395      920.775      668.504        0.551        0.160       85.526       16.867        0.039      339.096       12.195      870.560
01/06/2015  13:42:00       46.340       33.631       -9.056       27.731       22.376       23.545      768.984      500.707      554.375        0.259        0.091       57.258        7.969        0.019      339.065       12.144      870.544
01/06/2015  13:43:00       49.433       43.734        9.426       21.747       17.003       22.049      472.949      289.106      486.144        0.285        0.062       66.002       13.955        0.045      339.125       12.244      870.534
01/06/2015  13:44:00       48.428      -40.749       24.348       52.356       56.564       20.156     2741.181     3199.535      406.266        0.547        0.317       63.291       24.156        0.146      339.372       12.660      870.536
01/06/2015  13:45:00       35.705      -39.793       -2.331       22.363       45.128       23.042      500.112     2036.501      530.934        0.297        0.153       53.463       22.396        0.175      339.065       12.143      870.532
01/06/2015  13:46:00       15.403      -17.449       -3.493       15.931       22.413       15.937      253.800      502.335      253.975        0.078        0.051       23.275       13.844        0.354      339.410       12.725      870.522
01/06/2015  13:47:00       22.353        9.924        3.998       13.475       20.909       11.454      181.563      437.199      131.191        0.068        0.037       24.457        7.867        0.103      339.278       12.502      870.523
01/06/2015  13:48:00       51.813       34.066       28.517       42.401       44.629       33.775     1797.808     1991.790     1140.739        0.479        0.247       62.009       30.997        0.250      339.282       12.509      870.531
01/06/2015  13:49:00       20.488       24.522       37.959       29.956       39.731       29.843      897.337     1578.514      890.633        0.291        0.168       31.954       29.287        0.840      339.530       12.926      870.538
01/06/2015  13:50:00       96.748       65.961       48.772       63.869       43.040       42.024     4079.202     1852.449     1766.055        1.189        0.385      117.094       36.724        0.098      339.236       12.432      870.528
01/06/2015  13:51:00      116.042       61.704       54.103       48.885       51.277       39.428     2389.751     2629.286     1554.569        1.339        0.329      131.427       30.524        0.054      339.260       12.470      870.510
01/06/2015  13:52:00       74.498       59.713       34.716       39.335       33.522       33.467     1547.254     1123.747     1120.070        0.706        0.190       95.476       24.159        0.064      339.266       12.482      870.506
01/06/2015  13:53:00       37.476       29.532        3.164       39.673       39.843       17.320     1573.910     1587.458      299.985        0.287        0.173       47.714       13.880        0.085      339.155       12.294      870.502
01/06/2015  13:54:00       59.318        4.518       33.662       35.542       37.388       27.464     1263.255     1397.838      754.285        0.404        0.171       59.490       28.908        0.236      339.255       12.463      870.491
01/06/2015  13:55:00       84.669       64.059        8.726       31.100       26.558       22.614      967.198      705.336      511.376        0.677        0.109      106.172       15.516        0.021      339.231       12.422      870.483
01/06/2015  13:56:00       48.069       53.518       36.947       44.831       36.193       41.083     2009.792     1309.924     1687.829        0.577        0.250       71.936       31.215        0.188      339.373       12.661      870.476
01/06/2015  13:57:00       84.772       90.874       52.302       57.535       38.940       50.487     3310.326     1516.314     2548.925        1.278        0.369      124.276       46.307        0.139      339.276       12.497      870.475
01/06/2015  13:58:00      116.744       76.684       40.085       30.980       34.109       33.226      959.744     1163.391     1103.963        1.217        0.161      139.677       24.664        0.031      339.146       12.279      870.484
01/06/2015  13:59:00       51.481       57.446       34.888       44.495       34.428       39.685     1979.773     1185.282     1574.911        0.595        0.237       77.139       31.244        0.164      339.329       12.588      870.485
01/06/2015  14:00:00       33.034       93.514      103.359       53.818       39.088       38.942     2896.362     1527.882     1516.499        1.323        0.297       99.177       28.601        0.083      339.463       12.814      870.490
01/06/2015  14:01:00       35.940       71.014       79.804       52.759       51.510       40.584     2783.557     2653.269     1647.053        0.989        0.354       79.590       36.301        0.208      339.417       12.736      870.485
01/06/2015  14:02:00       15.578       71.848       75.155       43.545       63.767       52.326     1896.172     4066.265     2737.990        0.987        0.435       73.517       51.079        0.483      339.425       12.749      870.474
01/06/2015  14:03:00       28.528       30.903       45.723       32.306       33.880       28.396     1043.670     1147.873      806.328        0.343        0.150       42.058       22.412        0.284      339.466       12.818      870.483
01/06/2015  14:04:00       69.561       61.723       61.778       60.099       47.704       44.523     3611.840     2275.689     1982.323        1.017        0.393       92.998       43.216        0.216      339.348       12.620      870.476
01/06/2015  14:05:00       46.219       26.137       50.110       39.956       43.584       30.642     1596.464     1899.536      938.962        0.488        0.222       53.098       32.699        0.379      339.390       12.691      870.475
01/06/2015  14:06:00       47.192       18.173       18.012       33.376       25.559       23.240     1113.989      653.277      540.113        0.259        0.115       50.571       20.139        0.159      339.462       12.812      870.463
01/06/2015  14:07:00      -10.100       19.088        3.452       16.198       15.206       16.214      262.388      231.217      262.904        0.062        0.038       21.596       12.168        0.317      339.600       13.045      870.439
01/06/2015  14:08:00       -1.171       18.722       -8.279       12.885       18.724       11.468      166.031      350.579      131.523        0.053        0.032       18.758        3.504        0.035      339.686       13.191      870.429
01/06/2015  14:09:00        8.387       19.784       17.515       23.265       24.501       21.805      541.259      600.275      475.480        0.119        0.081       21.489       12.306        0.328      339.804       13.387      870.413
01/06/2015  14:10:00       97.371       45.636       13.581       44.777       26.043       32.964     2004.988      678.217     1086.595        0.776        0.188      107.535       18.284        0.029      339.562       12.980      870.398
01/06/2015  14:11:00       33.591       64.198        0.999       39.618       49.564       29.875     1569.559     2456.606      892.535        0.508        0.246       72.455       28.785        0.158      339.603       13.048      870.388
01/06/2015  14:12:00       90.403       82.209        5.012       59.956       36.969       30.447     3594.720     1366.734      926.990        1.042        0.294      122.192       18.260        0.022      339.503       12.881      870.368
01/06/2015  14:13:00       23.055       64.348       -3.925       36.968       30.896       24.122     1366.653      954.566      581.857        0.379        0.145       68.354       14.969        0.048      339.527       12.922      870.350
01/06/2015  14:14:00        9.687       28.445        5.657       34.451       24.511       21.448     1186.873      600.804      460.020        0.159        0.112       30.049       14.968        0.248      339.682       13.183      870.324
01/06/2015  14:15:00       13.571       43.500       61.608       28.083       44.311       28.698      788.645     1963.502      823.573        0.472        0.179       45.567       27.156        0.355      339.740       13.282      870.321
01/06/2015  14:16:00       31.653       72.974       74.052       50.602       45.716       35.815     2560.592     2089.973     1282.725        0.887        0.297       79.543       31.926        0.161      339.677       13.175      870.313
01/06/2015  14:17:00       78.893       67.966       51.193       76.058       62.394       69.421     5784.799     3893.019     4819.327        1.398        0.725      104.132       60.252        0.335      339.642       13.115      870.309
01/06/2015  14:18:00      101.790       74.931       49.409       71.498       55.930       43.589     5112.026     3128.171     1899.975        1.428        0.507      126.395       38.093        0.091      339.655       13.136      870.334
01/06/2015  14:19:00      104.806       72.575       37.990       74.258       46.280       46.119     5514.259     2141.808     2126.955        1.374        0.489      127.481       41.681        0.107      339.503       12.880      870.342
01/06/2015  14:20:00       18.272       21.468       53.696       38.308       55.953       39.336     1467.504     3130.782     1547.312        0.491        0.307       28.191       40.465        2.060      339.794       13.372      870.354
01/06/2015  14:21:00       16.528       38.300       42.761       39.250       37.411       30.046     1540.533     1399.619      902.789        0.370        0.192       41.714       21.443        0.264      339.971       13.672      870.360
01/06/2015  14:22:00       79.715      103.469       78.053       85.347       46.466       53.832     7284.121     2159.095     2897.884        1.774        0.617      130.615       48.012        0.135      339.686       13.188      870.361
01/06/2015  14:23:00       54.173       50.822       62.264       58.759       70.442       43.518     3452.576     4962.006     1893.774        0.985        0.515       74.280       38.872        0.274      339.648       13.126      870.369
01/06/2015  14:24:00       94.551       66.976       17.358       43.268       33.650       34.066     1872.082     1132.323     1160.477        0.895        0.208      115.870       12.202        0.011      339.607       13.056      870.377
01/06/2015  14:25:00       66.562       58.269        6.529       33.154       23.443       31.131     1099.172      549.559      969.130        0.524        0.131       88.464       16.454        0.035      339.542       12.946      870.369
01/06/2015  14:26:00      146.432       93.315       47.188       54.184       38.749       39.933     2935.921     1501.520     1594.638        1.920        0.302      173.638       32.654        0.035      339.704       13.219      870.363
01/06/2015  14:27:00       -7.520      127.093      143.141       32.682       49.392       34.086     1068.095     2439.563     1161.875        2.068        0.233      127.315       32.825        0.066      339.706       13.222      870.354
01/06/2015  14:28:00       23.137       67.922       80.458       54.878       49.659       48.929     3011.596     2466.020     2394.002        0.975        0.394       71.755       51.402        0.513      339.695       13.205      870.362
01/06/2015  14:29:00       57.792       35.118        7.282       37.251       36.465       26.697     1387.638     1329.700      712.734        0.403        0.172       67.626       22.446        0.110      339.856       13.477      870.371
01/06/2015  14:30:00       15.875        0.181       16.543       21.833       27.882       18.683      476.661      777.407      349.045        0.106        0.080       15.876       11.891        0.561      339.976       13.678      870.369
01/06/2015  14:31:00       14.677       17.763       27.321       30.351       39.721       35.135      921.155     1577.792     1234.448        0.250        0.187       23.042       29.685        1.660      340.001       13.720      870.370
01/06/2015  14:32:00       12.548       51.940       63.185       32.163       47.564       44.640     1034.467     2262.301     1992.766        0.607        0.264       53.434       35.830        0.450      339.984       13.691      870.376
01/06/2015  14:33:00      105.003      132.794      115.706       87.482       58.067       53.933     7653.095     3371.797     2908.734        2.799        0.697      169.292       55.202        0.106      339.576       13.002      870.374
01/06/2015  14:34:00       90.039      103.012       63.492       64.835       51.895       46.671     4203.582     2693.051     2178.169        1.591        0.454      136.815       41.367        0.091      339.679       13.176      870.388
01/06/2015  14:35:00       -0.996       62.089       79.963       28.425       32.204       24.050      807.979     1037.098      578.418        0.634        0.121       62.097       21.833        0.124      339.715       13.238      870.399
01/06/2015  14:36:00       53.878       30.977       43.825       32.959       23.741       32.454     1086.318      563.646     1053.238        0.424        0.135       62.148       26.440        0.181      339.639       13.111      870.411
01/06/2015  14:37:00       25.954       15.943       10.475       28.040       27.053       18.985      786.226      731.858      360.437        0.146        0.094       30.460       17.508        0.330      339.737       13.275      870.411
01/06/2015  14:38:00       56.795       31.001       40.451       48.285       31.661       27.002     2331.480     1002.390      729.119        0.494        0.203       64.705       24.075        0.138      339.768       13.328      870.423
01/06/2015  14:39:00       59.505       65.951       18.932       55.474       34.165       24.815     3077.412     1167.249      615.775        0.655        0.243       88.828       14.157        0.025      339.733       13.268      870.424
01/06/2015  14:40:00       34.744       92.030      -10.292       22.205       34.868       21.426      493.045     1215.795      459.074        0.597        0.108       98.370       11.870        0.015      339.624       13.084      870.421
01/06/2015  14:41:00       74.253       49.067       21.766       42.867       29.707       27.271     1837.570      882.491      743.705        0.593        0.173       89.001       12.708        0.020      339.791       13.366      870.420
01/06/2015  14:42:00       88.713       51.149       12.853       69.238       46.621       31.988     4793.910     2173.499     1023.213        0.932        0.400      102.402       23.478        0.053      339.843       13.454      870.414
01/06/2015  14:43:00       86.176       86.309       97.400       58.501       52.283       46.242     3422.391     2733.474     2138.353        1.633        0.415      121.965       38.836        0.101      339.777       13.343      870.408
01/06/2015  14:44:00       43.371       76.555       76.807       43.609       40.011       36.883     1901.768     1600.896     1360.392        0.925        0.243       87.987       30.715        0.122      339.869       13.499      870.421
01/06/2015  14:45:00       60.387       90.754      100.864       58.310       55.634       41.556     3400.015     3095.101     1726.928        1.514        0.411      109.008       35.392        0.105      339.889       13.531      870.424
01/06/2015  14:46:00       35.901       81.615       90.088       53.042       51.469       47.673     2813.420     2649.108     2272.669        1.190        0.387       89.162       41.993        0.222      339.772       13.335      870.431
01/06/2015  14:47:00       42.235      -64.962       -5.647       64.716       64.930       32.888     4188.199     4215.842     1081.615        0.776        0.474       77.485       43.013        0.308      339.741       13.283      870.429
01/06/2015  14:48:00       44.650       11.259       32.885       23.430       41.015       27.355      548.984     1682.258      748.278        0.309        0.149       46.048       29.387        0.407      339.800       13.381      870.430
01/06/2015  14:49:00       32.089      -14.707       15.572       24.898       33.791       24.597      619.892     1141.848      605.007        0.193        0.118       35.299       22.376        0.402      339.832       13.436      870.430
01/06/2015  14:50:00       38.869       -5.706       26.677       40.245       51.305       32.618     1619.624     2632.165     1063.965        0.378        0.266       39.285       28.086        0.511      339.875       13.508      870.428
01/06/2015  14:51:00       21.431      -11.888       16.430       31.955       30.015       22.322     1021.100      900.914      498.261        0.164        0.121       24.508       22.834        0.868      340.232       14.110      870.440
01/06/2015  14:52:00       25.922      -30.788       26.904       35.955       51.728       30.904     1292.750     2675.821      955.029        0.363        0.246       40.248       33.465        0.691      339.989       13.700      870.446
01/06/2015  14:53:00       51.956      -19.690       27.450       40.533       54.148       31.428     1642.932     2932.053      987.737        0.470        0.278       55.562       33.521        0.364      339.938       13.615      870.466
01/06/2015  14:54:00      108.880       73.106       27.630       51.269       31.504       42.968     2628.509      992.520     1846.255        1.171        0.273      131.147       29.860        0.052      339.805       13.389      870.478
01/06/2015  14:55:00       85.899       67.309       -2.940       27.420       25.996       29.990      751.865      675.771      899.374        0.712        0.116      109.130       16.239        0.022      339.736       13.275      870.484
01/06/2015  14:56:00       55.549       61.554        6.529       60.927       39.560       30.099     3712.051     1564.997      905.924        0.655        0.309       82.914       19.017        0.053      339.855       13.476      870.482
01/06/2015  14:57:00       42.792       35.016        6.490       33.621       37.030       23.404     1130.396     1371.225      547.728        0.307        0.152       55.293       17.433        0.099      339.903       13.555      870.483
01/06/2015  14:58:00       22.390       39.813       74.715       41.766       46.734       31.789     1744.388     2184.077     1010.556        0.630        0.247       45.677       30.127        0.435      339.945       13.626      870.479
01/06/2015  14:59:00       62.200       41.239       14.027       38.978       34.748       34.431     1519.277     1207.419     1185.479        0.484        0.196       74.629       25.961        0.121      339.684       13.186      870.493
01/06/2015  15:00:00       83.981       -9.285        3.055       28.464       25.090       16.611      810.187      629.509      275.911        0.443        0.086       84.493       10.896        0.017      339.740       13.279      870.488
01/06/2015  15:01:00       81.250       50.344       15.612       43.568       56.074       31.991     1898.147     3144.348     1023.451        0.772        0.303       95.582       19.384        0.041      339.767       13.326      870.483
01/06/2015  15:02:00       72.303       45.747        6.876       35.821       20.132       18.649     1283.113      405.278      347.786        0.470        0.102       85.560       10.040        0.014      339.670       13.164      870.481
01/06/2015  15:03:00       59.964       54.520        4.129       34.960       33.115       34.129     1222.178     1096.594     1164.804        0.503        0.174       81.043       23.204        0.082      339.834       13.439      870.472
01/06/2015  15:04:00       46.033       18.227       19.650       28.044       30.116       23.105      786.485      906.967      533.858        0.253        0.111       49.510       18.041        0.133      339.928       13.597      870.469
01/06/2015  15:05:00       66.810       34.976       11.344       75.461       38.923       23.180     5694.297     1514.988      537.313        0.678        0.387       75.412       14.492        0.037      339.865       13.491      870.461
01/06/2015  15:06:00       65.857       36.205       29.640       37.649       45.650       34.527     1417.471     2083.965     1192.127        0.561        0.235       75.153       25.949        0.119      339.873       13.505      870.467
01/06/2015  15:07:00       72.296      -79.100       -0.114       49.036       73.550       32.498     2404.521     5409.541     1056.133        1.018        0.444      107.161       42.957        0.161      339.866       13.493      870.479
01/06/2015  15:08:00       94.673      -93.771       -7.263       32.033       31.939       22.473     1026.094     1020.094      505.038        1.018        0.128      133.251       13.000        0.010      339.799       13.380      870.482
01/06/2015  15:09:00       32.279      -64.557       22.189       40.659       72.712       38.699     1653.150     5286.990     1497.577        0.707        0.422       72.178       41.139        0.325      340.009       13.734      870.485
01/06/2015  15:10:00       87.162      -83.975       -7.520       48.136       52.789       22.086     2317.043     2786.678      487.806        1.015        0.280      121.033       25.863        0.046      339.831       13.434      870.495
01/06/2015  15:11:00       51.204      -39.984        9.287       41.710       49.287       30.382     1739.703     2429.230      923.066        0.470        0.255       64.966       25.923        0.159      339.982       13.688      870.489
01/06/2015  15:12:00       54.203      -37.049       -3.902       49.604       29.022       20.982     2460.534      842.289      440.235        0.403        0.187       65.655       16.401        0.062      339.844       13.457      870.490
01/06/2015  15:13:00        5.511        0.546       38.306       41.695       49.578       29.574     1738.448     2458.007      874.604        0.328        0.254        5.538       29.527       28.429      340.092       13.874      870.484
01/06/2015  15:14:00        1.048        7.515       19.302       18.410       16.218       14.895      338.940      263.030      221.852        0.063        0.041        7.587        6.238        0.676      340.226       14.101      870.485
01/06/2015  15:15:00       -9.993       -6.887        7.109       14.930       22.333       13.797      222.903      498.754      190.363        0.055        0.046       12.137        6.758        0.310      340.233       14.112      870.496
01/06/2015  15:16:00        7.777      -25.941        7.350       17.003       34.665       14.455      289.098     1201.669      208.943        0.124        0.085       27.082       17.355        0.411      340.301       14.226      870.499
01/06/2015  15:17:00       44.980      -52.823      -13.904       40.278       44.985       15.135     1622.327     2023.660      229.067        0.444        0.194       69.379        7.967        0.013      339.895       13.542      870.506
01/06/2015  15:18:00       -2.761       -3.204       -2.653       17.685       22.956       13.249      312.775      526.976      175.545        0.052        0.051        4.230       12.470        8.692      339.925       13.593      870.512
01/06/2015  15:19:00       14.536       14.917       20.404       17.292       14.168       11.430      299.008      200.729      130.648        0.074        0.032       20.828        9.567        0.211      340.014       13.743      870.516
01/06/2015  15:20:00       -6.466      -25.335       22.640       26.324       53.100       21.613      692.928     2819.641      467.119        0.259        0.199       26.147       20.139        0.593      340.036       13.780      870.506
01/06/2015  15:21:00       44.959      -36.157       14.347       40.198       41.701       22.003     1615.906     1739.000      484.110        0.369        0.192       57.695       22.332        0.150      339.984       13.691      870.509
01/06/2015  15:22:00       19.165       -8.712        9.378       23.889       34.447       15.819      570.670     1186.569      250.249        0.127        0.100       21.052        9.274        0.194      339.992       13.706      870.509
01/06/2015  15:23:00       45.931       38.701        5.807       39.249       28.766       27.158     1540.480      827.501      737.569        0.337        0.155       60.061       18.408        0.094      339.856       13.477      870.510
01/06/2015  15:24:00       79.279       57.822        5.772       39.191       32.363       21.082     1535.943     1047.366      444.470        0.634        0.151       98.125       18.292        0.035      339.870       13.499      870.513
01/06/2015  15:25:00       17.549       36.680       -2.659       25.637       29.390       21.379      657.244      863.782      457.049        0.182        0.099       40.662       16.682        0.168      339.972       13.671      870.528
01/06/2015  15:26:00       57.351       37.824       -5.037       21.714       21.501       18.294      471.500      462.285      334.665        0.301        0.063       68.701       10.437        0.023      339.880       13.518      870.531
01/06/2015  15:27:00       56.736       26.320       -3.559       36.950       28.166       16.967     1365.300      793.325      287.896        0.318        0.122       62.544       12.820        0.042      339.883       13.521      870.539
01/06/2015  15:28:00       33.907       20.137        7.923       33.973       33.277       24.661     1154.164     1107.328      608.149        0.224        0.143       39.436       17.709        0.202      339.950       13.633      870.539
01/06/2015  15:29:00       66.629       25.713        5.786       35.909       30.644       18.809     1289.452      939.058      353.789        0.386        0.129       71.418       15.140        0.045      339.916       13.578      870.537
01/06/2015  15:30:00        9.918       11.121        1.927       16.970       20.067       21.809      287.968      402.684      475.648        0.070        0.058       14.901       19.248        1.668      340.056       13.814      870.544
01/06/2015  15:31:00       19.302       25.515       -2.249       20.693       26.888       14.726      428.195      722.971      216.866        0.120        0.068       31.994        7.595        0.056      339.953       13.639      870.536
01/06/2015  15:32:00       60.820       43.952       11.768       39.160       19.517       16.247     1533.498      380.909      263.956        0.397        0.109       75.039       15.268        0.041      339.911       13.568      870.529
01/06/2015  15:33:00       89.822       20.980        4.421       29.173       34.475       25.428      851.047     1188.500      646.562        0.561        0.134       92.240       11.313        0.015      339.905       13.559      870.516
01/06/2015  15:34:00       68.609       58.412        9.985       41.720       25.334       23.727     1740.555      641.814      562.976        0.558        0.147       90.106       22.702        0.063      339.934       13.607      870.518
01/06/2015  15:35:00       67.396       73.645        8.278       45.739       33.104       29.843     2092.030     1095.900      890.613        0.706        0.204       99.829       29.803        0.089      339.938       13.615      870.520
01/06/2015  15:36:00       85.878       37.063       12.146       39.138       38.685       29.927     1531.754     1496.563      895.642        0.641        0.196       93.534       22.044        0.056      339.953       13.639      870.525
01/06/2015  15:37:00       30.466       27.211        0.307       38.811       27.868       27.720     1506.276      776.648      768.402        0.236        0.153       40.848       13.779        0.114      339.937       13.612      870.532
01/06/2015  15:38:00       87.686       45.477        9.485       21.767       15.510       15.952      473.790      240.549      254.471        0.541        0.048       98.778        5.490        0.003      339.883       13.522      870.545
01/06/2015  15:39:00       86.456       53.705        9.736       28.414       17.070       13.061      807.352      291.381      170.582        0.586        0.063      101.778        7.608        0.006      339.937       13.614      870.548
01/06/2015  15:40:00       34.797       40.628       -2.120       22.000       20.543       17.350      483.988      422.001      301.035        0.204        0.060       53.492       11.584        0.047      339.985       13.695      870.555
01/06/2015  15:41:00       23.971        8.426       14.583       21.954       18.154       20.484      481.964      329.573      419.582        0.104        0.062       25.408       11.575        0.208      339.983       13.691      870.555
01/06/2015  15:42:00      111.727       49.322       29.785       50.207       35.254       31.701     2520.757     1242.836     1004.939        1.028        0.238      122.129       17.646        0.021      339.928       13.597      870.552
01/06/2015  15:43:00       93.015       46.586       11.280       42.929       24.834       27.583     1842.903      616.732      760.826        0.708        0.161      104.029        8.215        0.006      339.944       13.625      870.545
01/06/2015  15:44:00       54.394       34.562       29.606       42.023       21.679       23.468     1765.928      469.969      550.767        0.391        0.139       64.445       21.187        0.108      339.969       13.667      870.550
01/06/2015  15:45:00       81.842       19.141        3.436       32.502       20.947       17.431     1056.402      438.758      303.838        0.444        0.090       84.051        7.115        0.007      339.913       13.571      870.551
01/06/2015  15:46:00       28.202        2.135        0.735       16.727       12.362        7.427      279.807      152.810       55.160        0.064        0.024       28.283        6.825        0.058      339.958       13.646      870.550
01/06/2015  15:47:00        3.557       -0.475        1.937        3.681        3.748        4.784       13.549       14.046       22.887        0.003        0.003        3.589        3.437        0.917      340.113       13.911      870.556
01/06/2015  15:48:00       13.451        8.662        5.529       12.325       11.339        7.316      151.909      128.583       53.517        0.031        0.017       15.998        5.094        0.101      340.076       13.848      870.564
01/06/2015  15:49:00       52.837       41.777       20.633       26.241        9.411       12.857      688.589       88.570      165.290        0.295        0.047       67.357        7.131        0.011      339.988       13.700      870.572
01/06/2015  15:50:00       37.430       41.598       30.087       24.512       22.704       18.628      600.856      515.492      347.019        0.275        0.073       55.959       12.821        0.052      339.990       13.702      870.578
01/06/2015  15:51:00       65.269       41.961       17.846       19.420       14.220       16.856      377.145      202.220      284.129        0.360        0.043       77.594        9.640        0.015      340.035       13.778      870.592
01/06/2015  15:52:00       36.558       35.773        6.248       24.951       22.825       18.700      622.567      520.994      349.686        0.207        0.075       51.149       13.402        0.069      339.973       13.674      870.600
01/06/2015  15:53:00       60.056       23.158       10.908       24.011       21.094       22.626      576.531      444.964      511.947        0.290        0.077       64.366       14.974        0.054      339.996       13.711      870.606
01/06/2015  15:54:00       83.577       22.290       33.119       52.482       53.353       37.278     2754.336     2846.514     1389.619        0.778        0.350       86.498       31.290        0.131      339.995       13.710      870.603
01/06/2015  15:55:00       68.295       36.324       49.088       33.117       32.637       28.610     1096.712     1065.171      818.521        0.569        0.149       77.354       21.839        0.080      339.946       13.628      870.606
01/06/2015  15:56:00       35.464       14.848       22.650       27.800       25.711       22.479      772.857      661.055      505.289        0.196        0.097       38.447       20.251        0.277      340.015       13.743      870.615
01/06/2015  15:57:00       64.695       78.422       57.355       39.955       38.038       36.818     1596.416     1446.905     1355.597        0.901        0.220      101.664       25.540        0.063      339.951       13.637      870.612
01/06/2015  15:58:00       44.259       59.502       69.362       50.390       45.714       31.151     2539.125     2089.761      970.403        0.795        0.280       74.157       29.769        0.161      339.973       13.673      870.614
01/06/2015  15:59:00       83.833       70.539       41.080       40.838       23.158       28.658     1667.713      536.273      821.277        0.836        0.151      109.561       25.010        0.052      339.932       13.605      870.611
01/06/2015  16:00:00       53.532       26.990        6.915       39.069       31.664       28.318     1526.380     1002.616      801.888        0.349        0.167       59.951       20.115        0.113      339.939       13.617      870.609
01/06/2015  16:01:00       38.039       31.936       22.285       28.825       22.635       19.259      830.901      512.345      370.893        0.234        0.086       49.667       12.341        0.062      339.945       13.624      870.604
01/06/2015  16:02:00       33.805       38.362       35.089       29.724       18.109       19.340      883.533      327.939      374.055        0.272        0.079       51.131       15.553        0.093      339.956       13.644      870.598
01/06/2015  16:03:00       66.546       32.849       12.077       34.033       19.262       17.385     1158.227      371.022      302.253        0.374        0.092       74.212       13.552        0.033      339.930       13.601      870.587
01/06/2015  16:04:00       68.299       29.051        6.761       28.845       16.469       14.672      832.036      271.220      215.259        0.344        0.066       74.221       10.480        0.020      339.904       13.559      870.580
01/06/2015  16:05:00       86.897       15.307       15.439       42.228       31.667       32.452     1783.201     1002.768     1053.144        0.593        0.192       88.235       19.623        0.049      339.900       13.551      870.567
01/06/2015  16:06:00       61.136       12.940        7.961       36.440       34.219       26.100     1327.842     1170.914      681.201        0.357        0.159       62.490       20.479        0.107      339.923       13.588      870.560
01/06/2015  16:07:00       94.070       25.099       27.057       40.105       28.633       27.236     1608.384      819.841      741.791        0.669        0.159       97.361       19.617        0.041      339.902       13.553      870.558
01/06/2015  16:08:00       86.936       56.753        5.078       27.659       26.216       21.640      765.005      687.270      468.276        0.636        0.096      103.820       12.490        0.014      339.882       13.520      870.558
01/06/2015  16:09:00       38.507       32.682       10.585       40.715       25.334       20.772     1657.682      641.828      431.494        0.270        0.137       50.507       13.631        0.073      339.786       13.358      870.560
01/06/2015  16:10:00       67.580       51.078       11.634       34.022       22.080       16.719     1157.464      487.544      279.537        0.462        0.096       84.711        7.191        0.007      339.819       13.413      870.561
01/06/2015  16:11:00       51.303       30.284        3.125       40.209       19.625       15.191     1616.749      385.160      230.756        0.290        0.112       59.574        8.127        0.019      339.867       13.499      870.559
01/06/2015  16:12:00       37.495       19.447       -1.536       23.438       12.849       14.537      549.346      165.094      211.323        0.136        0.046       42.238        8.141        0.037      339.807       13.393      870.567
01/06/2015  16:13:00       49.116       26.437        5.785       37.728       27.159       13.990     1423.433      737.601      195.732        0.275        0.118       55.779       10.123        0.033      339.837       13.444      870.569
01/06/2015  16:14:00      102.007       79.374        9.969       32.058       29.862       26.366     1027.727      891.768      695.143        0.971        0.131      129.251       14.474        0.013      339.853       13.474      870.574
01/06/2015  16:15:00       88.346       45.393        8.216       45.500       37.850       27.447     2070.222     1432.598      753.325        0.709        0.213       99.325       22.353        0.051      339.824       13.424      870.581
01/06/2015  16:16:00      117.393       79.619       30.176       43.775       29.965       29.732     1916.216      897.925      884.014        1.236        0.185      141.846       16.853        0.014      339.874       13.506      870.587
01/06/2015  16:17:00       76.151       51.794       19.383       28.730       28.944       20.447      825.390      837.755      418.087        0.547        0.104       92.096       15.442        0.028      339.777       13.344      870.591
01/06/2015  16:18:00       98.613       73.479       33.058       22.459       19.315       18.172      504.397      373.078      330.208        0.871        0.060      122.979       11.004        0.008      339.800       13.380      870.599
01/06/2015  16:19:00       89.667       53.220       10.096       22.422       19.028       14.159      502.736      362.054      200.473        0.602        0.053      104.272        5.066        0.002      339.782       13.353      870.614
01/06/2015  16:20:00       55.062       39.922       19.238       24.022       19.003       18.316      577.055      361.107      335.469        0.313        0.064       68.012       13.528        0.040      339.747       13.292      870.627
01/06/2015  16:21:00      101.734       55.493       13.545       29.384       23.395       19.609      863.392      547.337      384.497        0.770        0.090      115.885       15.623        0.018      339.784       13.356      870.642
01/06/2015  16:22:00       83.444       54.220       19.120       26.403       16.886       21.521      697.127      285.150      463.164        0.586        0.072       99.513        9.263        0.009      339.831       13.432      870.655
01/06/2015  16:23:00       56.933       30.377       18.738       29.911       19.217       21.796      894.680      369.277      475.049        0.313        0.087       64.530       17.861        0.077      339.665       13.155      870.668
01/06/2015  16:24:00       70.193       26.522        7.427       28.196       28.493       23.287      795.013      811.847      542.305        0.392        0.107       75.037       17.267        0.053      339.697       13.207      870.674
01/06/2015  16:25:00       73.727       30.306       19.487       24.089       20.500       19.523      580.302      420.242      381.156        0.406        0.069       79.713       12.300        0.024      339.692       13.200      870.675
01/06/2015  16:26:00       59.579       25.073       11.027       19.692       26.748       16.881      387.777      715.472      284.960        0.284        0.069       64.640       11.162        0.030      339.633       13.099      870.677
01/06/2015  16:27:00       53.263       39.259       12.860       24.351       24.517       15.312      592.960      601.104      234.470        0.299        0.071       66.169        8.289        0.016      339.640       13.112      870.678
01/06/2015  16:28:00       78.113       45.929       12.284       19.129       17.816       16.163      365.935      317.399      261.241        0.465        0.047       90.615        4.311        0.002      339.678       13.178      870.670
01/06/2015  16:29:00       83.523       34.154        7.512       23.100       28.461       17.831      533.622      810.053      317.955        0.493        0.083       90.236       10.920        0.015      339.677       13.174      870.670
01/06/2015  16:30:00       42.536       18.565        9.434       32.251       19.246       16.418     1040.101      370.415      269.538        0.196        0.084       46.411        9.222        0.039      339.660       13.146      870.674
01/06/2015  16:31:00       53.956       27.907        6.160       17.228       10.897       11.259      296.795      118.751      126.757        0.214        0.027       60.745        6.419        0.011      339.613       13.066      870.675
01/06/2015  16:32:00       66.110       41.211        8.718       18.262       12.166       11.814      333.484      148.008      139.560        0.338        0.031       77.902        8.533        0.012      339.630       13.094      870.683
01/06/2015  16:33:00       58.258       36.486        7.036       13.327       12.025       10.412      177.613      144.604      108.405        0.260        0.022       68.740        8.108        0.014      339.637       13.105      870.694
01/06/2015  16:34:00       58.192       29.765        9.501       27.730       12.947        9.762      768.928      167.622       95.289        0.270        0.052       65.363        9.272        0.020      339.590       13.026      870.702
01/06/2015  16:35:00       64.189       35.698        3.699       16.135       18.276       11.469      260.333      334.019      131.536        0.307        0.036       73.448        6.839        0.009      339.585       13.018      870.704
01/06/2015  16:36:00       45.235       22.242        4.348       25.639       25.364       10.293      657.358      643.337      105.946        0.198        0.070       50.408       11.513        0.052      339.599       13.042      870.711
01/06/2015  16:37:00       44.434       20.218        8.608       14.269       10.018        7.738      203.617      100.367       59.870        0.141        0.018       48.818        8.166        0.028      339.640       13.112      870.713
01/06/2015  16:38:00       25.489       19.353        0.093       13.569        9.662        9.206      184.127       93.353       84.755        0.069        0.018       32.003        3.686        0.013      339.593       13.034      870.727
01/06/2015  16:39:00       32.210       22.246        0.121       22.780       13.919       18.533      518.922      193.736      343.477        0.129        0.053       39.145       11.827        0.091      339.593       13.033      870.747
01/06/2015  16:40:00       48.350       33.605        7.599       17.911       13.185        9.934      320.819      173.836       98.690        0.206        0.030       58.881        6.979        0.014      339.609       13.059      870.752
01/06/2015  16:41:00       31.417       24.238        3.990       20.455       18.526       13.995      418.405      343.198      195.864        0.127        0.048       39.680        9.701        0.060      339.494       12.866      870.757
01/06/2015  16:42:00       50.073       17.781        4.602       22.718       12.103       12.581      516.106      146.483      158.278        0.183        0.041       53.136        7.699        0.021      339.478       12.839      870.759
01/06/2015  16:43:00       49.263       25.515        5.675       12.886       13.972        9.082      166.040      195.217       82.483        0.178        0.022       55.478        6.907        0.015      339.451       12.793      870.767
01/06/2015  16:44:00       40.386       25.760        4.764       15.089       16.775       11.284      227.679      281.412      127.324        0.148        0.032       47.902        8.379        0.031      339.443       12.780      870.762
01/06/2015  16:45:00       42.571       19.608        5.000       16.819       13.774       10.719      282.893      189.713      114.888        0.140        0.029       46.870        7.885        0.028      339.327       12.585      870.761
01/06/2015  16:46:00       40.718       22.088        2.694       17.091       10.464        7.442      292.114      109.492       55.387        0.130        0.023       46.323        2.581        0.003      339.360       12.641      870.770
01/06/2015  16:47:00       37.289       26.944        5.640       22.969       15.362       13.129      527.585      235.980      172.362        0.154        0.047       46.005        6.381        0.019      339.303       12.545      870.769
01/06/2015  16:48:00       48.839       26.169        6.347       23.408       24.591       15.596      547.943      604.723      243.246        0.225        0.070       55.408       15.652        0.080      339.325       12.580      870.773
01/06/2015  16:49:00       27.415       20.515       -2.717       30.986       28.106       22.731      960.137      789.963      516.713        0.172        0.113       34.241       19.540        0.326      339.261       12.472      870.770
01/06/2015  16:50:00       29.497       49.671       -6.672       20.428       33.376       19.845      417.321     1113.927      393.843        0.265        0.096       57.769       19.265        0.111      339.301       12.541      870.783
01/06/2015  16:51:00       18.281       59.423      -17.312       15.456       30.626       12.045      238.900      937.982      145.073        0.274        0.066       62.171        9.451        0.023      339.340       12.607      870.781
01/06/2015  16:52:00       18.514       45.478      -10.035       21.618       24.194       17.096      467.358      585.340      292.285        0.193        0.067       49.102       13.402        0.074      339.313       12.560      870.775
01/06/2015  16:53:00       16.039       55.883      -12.011       20.444       16.512       12.331      417.951      272.636      152.056        0.218        0.042       58.139        8.926        0.024      339.346       12.615      870.775
01/06/2015  16:54:00       14.041       62.208      -15.817       19.125       23.510        8.113      365.776      552.730       65.828        0.265        0.049       63.772        8.834        0.019      339.358       12.638      870.770
01/06/2015  16:55:00        2.819       57.232      -13.488       20.216       15.304        7.433      408.692      234.209       55.243        0.208        0.035       57.302        6.278        0.012      339.349       12.619      870.760
01/06/2015  16:56:00       -4.806       49.773      -13.538       17.430       14.861        5.398      303.789      220.853       29.143        0.162        0.028       50.004        7.096        0.020      339.316       12.564      870.751
01/06/2015  16:57:00       -5.810       66.773      -12.363       13.449       12.742        6.604      180.878      162.352       43.615        0.252        0.019       67.025        6.111        0.008      339.283       12.510      870.731
01/06/2015  16:58:00       -8.618       69.453      -16.785       15.673       16.590       10.303      245.637      275.222      106.156        0.290        0.031       69.985        9.208        0.017      339.293       12.526      870.722
01/06/2015  16:59:00      -10.653       43.974      -14.552       21.164       18.863       12.585      447.902      355.803      158.390        0.161        0.048       45.246       10.213        0.051      339.287       12.518      870.720
01/06/2015  17:00:00      -11.038        4.322        3.760       12.454       27.662       15.191      155.101      765.204      230.757        0.065        0.058       11.854       18.576        2.456      339.107       12.214      870.719
01/06/2015  17:01:00        8.185        3.844        5.481       17.219       17.305       11.059      296.493      299.469      122.294        0.041        0.036        9.043        7.664        0.718      339.030       12.086      870.720
01/06/2015  17:02:00       -8.754       11.017       -3.764       31.866       29.979       15.831     1015.472      898.751      250.624        0.119        0.108       14.071       16.320        1.345      338.907       11.877      870.738
01/06/2015  17:03:00      -37.558      -17.515       -2.997       40.203       20.575       18.088     1616.319      423.335      327.179        0.205        0.118       41.441       14.439        0.121      338.850       11.782      870.750
01/06/2015  17:04:00      -46.417      -16.855       -5.652       30.328       29.853       14.028      919.799      891.210      196.777        0.224        0.100       49.383       11.487        0.054      338.482       11.164      870.761
01/06/2015  17:05:00      -45.890      -29.406        0.892       43.967       21.235       24.090     1933.134      450.931      580.309        0.297        0.148       54.503       20.813        0.146      338.381       10.994      870.781
01/06/2015  17:06:00      -62.744      -38.770       -3.655       33.324       27.479       17.415     1110.495      755.121      303.281        0.381        0.108       73.755       14.594        0.039      338.355       10.951      870.789
01/06/2015  17:07:00      -52.173      -20.237       -7.669       33.326       18.807       15.667     1110.605      353.713      245.448        0.245        0.085       55.960        5.852        0.011      338.302       10.861      870.790
01/06/2015  17:08:00     -102.139      -29.638       -9.335       36.462       25.130       24.333     1329.490      631.502      592.082        0.697        0.128      106.352       17.823        0.028      338.178       10.654      870.809
01/06/2015  17:09:00      -79.788      -64.226      -17.273       29.512       30.203       22.819      870.967      912.229      520.707        0.655        0.115      102.426       13.284        0.017      337.963       10.291      870.813
01/06/2015  17:10:00      -93.663      -60.355       -3.641       41.510       28.381       20.770     1723.046      805.488      431.381        0.769        0.148      111.425       22.569        0.041      337.954       10.276      870.814
01/06/2015  17:11:00     -102.004      -66.011       -9.892       33.862       22.832       16.641     1146.625      521.307      276.933        0.840        0.097      121.500       12.841        0.011      337.909       10.202      870.823
01/06/2015  17:12:00     -100.919      -61.733       -8.446       24.715       24.391       14.169      610.820      594.937      200.766        0.774        0.070      118.304        7.947        0.005      337.796       10.013      870.813
01/06/2015  17:13:00      -91.427      -54.333       -7.262       35.019       25.689       19.082     1226.361      659.942      364.114        0.681        0.113      106.353       11.839        0.012      337.743        9.923      870.824
01/06/2015  17:14:00     -112.594      -79.090       -4.010       23.413       18.988       16.507      548.157      360.540      272.489        1.006        0.059      137.596        8.661        0.004      337.744        9.925      870.816
01/06/2015  17:15:00     -136.468      -46.131      -13.410       19.055       18.070       16.902      363.112      326.507      285.666        1.095        0.049      144.054       11.698        0.007      337.751        9.936      870.813
01/06/2015  17:16:00     -152.931      -41.241      -23.010       17.422       14.798       11.798      303.523      218.984      139.193        1.314        0.033      158.394        5.493        0.001      337.895       10.179      870.806
01/06/2015  17:17:00     -150.265      -32.105      -18.584       13.462       13.843       14.933      181.239      191.619      222.993        1.228        0.030      153.656       10.845        0.005      337.785        9.993      870.814
01/06/2015  17:18:00     -133.291      -31.314      -20.376       14.863       12.119       11.140      220.912      146.876      124.107        0.983        0.025      136.920        6.664        0.002      337.776        9.979      870.815
01/06/2015  17:19:00     -110.330      -39.939      -13.023       22.198       14.932       12.508      492.756      222.956      156.458        0.740        0.044      117.336       10.948        0.009      337.767        9.963      870.824
01/06/2015  17:20:00     -131.979      -48.605      -20.287       12.460       12.252       10.805      155.240      150.120      116.747        1.031        0.021      140.644        6.650        0.002      337.758        9.949      870.823
01/06/2015  17:21:00     -133.217      -43.145      -15.405       15.611       14.080       10.319      243.695      198.254      106.486        1.020        0.027      140.029        8.656        0.004      337.715        9.878      870.823
01/06/2015  17:22:00     -137.114      -47.846      -19.574       18.753       12.359       12.033      351.677      152.737      144.794        1.106        0.032      145.222        9.987        0.005      337.740        9.919      870.825
01/06/2015  17:23:00     -150.986      -44.354      -20.259       23.079       29.735       16.408      532.631      884.159      269.214        1.343        0.084      157.366       15.302        0.009      337.777        9.981      870.836
01/06/2015  17:24:00     -127.800      -62.579      -10.449       27.237       25.505       21.834      741.848      650.514      476.728        1.111        0.093      142.299       17.435        0.015      337.670        9.801      870.836
01/06/2015  17:25:00     -109.677      -61.751       -7.318       19.761       14.656       10.555      390.492      214.800      111.404        0.831        0.036      125.866        4.935        0.002      337.524        9.556      870.853
01/06/2015  17:26:00     -116.884      -50.078      -11.874       19.985       16.469       14.374      399.414      271.222      206.600        0.859        0.044      127.160        7.963        0.004      337.523        9.555      870.856
01/06/2015  17:27:00     -139.833      -42.856      -19.072       23.954       21.382       17.498      573.789      457.195      306.177        1.155        0.067      146.253        9.974        0.005      337.604        9.690      870.863
01/06/2015  17:28:00     -161.806      -44.338      -16.267       20.719       23.811       16.355      429.258      566.966      267.498        1.484        0.063      167.771        9.240        0.003      337.808       10.035      870.860
01/06/2015  17:29:00     -156.519      -35.250      -26.081       21.228       18.745       14.311      450.612      351.383      204.800        1.371        0.050      160.439        7.271        0.002      338.027       10.401      870.850
01/06/2015  17:30:00     -150.841      -40.189      -26.178       15.891       15.593       13.221      252.532      243.127      174.787        1.286        0.034      156.103        8.459        0.003      337.927       10.233      870.839
01/06/2015  17:31:00     -156.141      -41.578      -24.761       19.280       18.078       20.317      371.731      326.804      412.771        1.392        0.056      161.582        8.428        0.003      337.901       10.188      870.824
01/06/2015  17:32:00      -79.524      -10.395       -4.417       57.715       39.555       27.332     3331.002     1564.608      747.052        0.605        0.282       80.201       29.614        0.136      337.678        9.813      870.822
01/06/2015  17:33:00      -23.778      -25.997       19.631       33.750       41.866       22.004     1139.033     1752.802      484.189        0.250        0.169       35.231       11.595        0.108      337.662        9.788      870.830
01/06/2015  17:34:00      -61.366      -41.588        6.331       44.054       31.937       24.957     1940.753     1019.975      622.843        0.456        0.179       74.131       26.463        0.127      337.687        9.828      870.834
01/06/2015  17:35:00      -89.704      -58.757       -0.104       37.066       23.467       21.954     1373.907      550.680      481.957        0.695        0.120      107.234       21.770        0.041      337.510        9.533      870.863
01/06/2015  17:36:00     -135.655      -66.099      -12.617       28.336       20.923       15.811      802.919      437.764      249.987        1.221        0.075      150.902       13.342        0.008      337.631        9.735      870.879
01/06/2015  17:37:00     -123.774      -43.346       -5.289       37.497       33.632       20.300     1406.032     1131.092      412.091        1.009        0.147      131.144       16.403        0.016      337.551        9.601      870.899
01/06/2015  17:38:00      -14.813        3.323        2.435       42.315       32.518       25.723     1790.595     1057.427      661.689        0.187        0.175       15.181       20.303        1.789      337.492        9.504      870.918
01/06/2015  17:39:00        0.168       -4.594        7.154       34.475       42.963       25.538     1188.513     1845.828      652.181        0.188        0.184        4.597       21.602       22.079      337.583        9.657      870.927
01/06/2015  17:40:00       -5.344       -8.074        2.254       36.594       36.678       25.475     1339.093     1345.253      648.961        0.172        0.167        9.682       20.273        4.384      337.656        9.778      870.938
01/06/2015  17:41:00        5.422      -14.597       14.665       48.176       37.353       22.811     2320.923     1395.280      520.342        0.235        0.212       15.571       22.806        2.145      337.762        9.957      870.934
01/06/2015  17:42:00       11.821       -4.912       25.299       43.115       36.942       29.761     1858.888     1364.677      885.710        0.246        0.205       12.801       25.703        4.032      337.643        9.754      870.929
01/06/2015  17:43:00       -8.748       -5.850        3.748       42.740       38.554       25.023     1826.744     1486.414      626.146        0.203        0.197       10.524       19.849        3.557      337.559        9.613      870.940
01/06/2015  17:44:00       -2.816      -11.797       17.394       55.701       34.837       27.989     3102.629     1213.589      783.362        0.277        0.255       12.128       26.496        4.773      337.480        9.482      870.937
01/06/2015  17:45:00      -23.495      -11.011       19.397       47.695       46.277       26.140     2274.768     2141.540      683.325        0.307        0.255       25.947       22.274        0.737      337.556        9.611      870.940
01/06/2015  17:46:00      -11.223       13.320       15.789       51.591       54.976       31.076     2661.610     3022.411      965.709        0.360        0.332       17.418       21.826        1.570      337.541        9.585      870.933
01/06/2015  17:47:00      -15.432        7.548        1.720       42.701       37.455       25.555     1823.416     1402.899      653.051        0.209        0.194       17.179       23.867        1.930      337.577        9.646      870.937
01/06/2015  17:48:00      -14.389       -9.067       17.464       39.222       37.123       31.150     1538.337     1378.128      970.336        0.224        0.194       17.007       17.931        1.112      337.391        9.333      870.939
01/06/2015  17:49:00      -75.202      -27.518       -5.053       45.804       46.915       23.995     2098.051     2201.026      575.763        0.566        0.244       80.079       21.426        0.072      337.365        9.290      870.931
01/06/2015  17:50:00      -90.143      -13.519       -9.380       42.741       29.918       22.221     1826.775      895.106      493.753        0.581        0.161       91.152       21.990        0.058      337.233        9.070      870.941
01/06/2015  17:51:00      -75.490      -11.816       -8.116       41.716       26.484       20.396     1740.193      701.427      415.989        0.438        0.143       76.409       17.720        0.054      337.094        8.836      870.949
01/06/2015  17:52:00      -88.132      -12.609      -10.982       30.778       26.397       15.952      947.267      696.826      254.451        0.497        0.095       89.029       10.120        0.013      337.189        8.995      870.954
01/06/2015  17:53:00      -57.033       -8.620       -9.302       40.625       29.296       15.394     1650.414      858.233      236.983        0.308        0.137       57.680       15.185        0.069      337.063        8.784      870.962
01/06/2015  17:54:00      -45.658       -8.633       -6.215       44.401       34.121       18.491     1971.449     1164.225      341.905        0.284        0.174       46.467       16.115        0.120      337.201        9.015      870.962
01/06/2015  17:55:00      -70.764      -31.214       -7.002       31.651       32.594       19.402     1001.776     1062.401      376.426        0.424        0.122       77.343        9.746        0.016      336.986        8.657      870.964
01/06/2015  17:56:00      -87.444      -36.374       -0.162       38.350       38.841       26.193     1470.748     1508.591      686.079        0.632        0.183       94.707       21.199        0.050      337.001        8.681      870.983
01/06/2015  17:57:00      -87.482      -33.799        7.468       49.143       38.621       24.163     2415.013     1491.620      583.827        0.667        0.225       93.784       18.988        0.041      336.988        8.658      870.992
01/06/2015  17:58:00      -99.585      -31.591       -8.569       28.214       31.757       22.527      796.055     1008.513      507.453        0.665        0.116      104.476        8.260        0.006      336.883        8.482      871.015
01/06/2015  17:59:00      -79.989      -20.307      -11.522       26.617       26.145       19.323      708.452      683.579      373.359        0.435        0.088       82.527       12.094        0.021      336.855        8.436      871.031
01/06/2015  18:00:00      -73.926      -40.063      -18.946       20.042       20.736       15.267      401.683      429.968      233.095        0.425        0.053       84.084       10.758        0.016      336.846        8.424      871.046
01/06/2015  18:01:00      -47.244      -36.233       -7.220       34.577       18.661       23.417     1195.542      348.221      548.369        0.284        0.105       59.538       19.969        0.112      336.828        8.391      871.057
01/06/2015  18:02:00      -90.655      -44.290      -13.542       38.436       20.331       19.671     1477.305      413.338      386.943        0.632        0.114      100.896       20.059        0.040      336.721        8.215      871.072
01/06/2015  18:03:00      -40.020      -51.282       -5.053       27.173       24.826       21.881      738.345      616.313      478.765        0.304        0.092       65.050       16.165        0.062      336.736        8.238      871.072
01/06/2015  18:04:00      -49.570      -48.929       -7.150       24.134       20.634       14.000      582.435      425.748      195.989        0.305        0.060       69.651        3.502        0.003      336.733        8.233      871.073
01/06/2015  18:05:00      -93.087      -37.771      -12.511       17.365       16.902       13.832      301.528      285.673      191.336        0.551        0.039      100.458       11.328        0.013      336.663        8.116      871.074
01/06/2015  18:06:00     -101.490      -51.406      -16.824       18.580       15.642       12.050      345.221      244.676      145.202        0.698        0.037      113.767        9.028        0.006      336.683        8.151      871.077
01/06/2015  18:07:00     -101.072      -56.973      -18.958       10.803       10.772       10.788      116.697      116.027      116.386        0.708        0.017      116.024        5.558        0.002      336.745        8.254      871.079
01/06/2015  18:08:00      -86.000      -59.780      -13.664       16.211       12.480        9.161      262.786      155.741       83.930        0.583        0.025      104.736        6.804        0.004      336.784        8.319      871.085
01/06/2015  18:09:00      -68.162      -61.860       -8.427       27.106       17.792       18.003      734.725      316.544      324.117        0.496        0.069       92.047       17.227        0.035      336.712        8.199      871.102
01/06/2015  18:10:00      -91.541      -72.283      -15.623       18.717       20.857       15.872      350.333      435.018      251.921        0.744        0.052      116.639       10.624        0.008      336.732        8.233      871.115
01/06/2015  18:11:00     -114.512      -43.695      -14.949       12.456       12.241        8.768      155.151      149.841       76.870        0.781        0.019      122.566        5.338        0.002      336.756        8.273      871.122
01/06/2015  18:12:00     -105.033      -48.610      -14.669       11.700       11.767        9.739      136.897      138.467       94.840        0.699        0.019      115.737        5.562        0.002      336.730        8.229      871.137
01/06/2015  18:13:00     -100.473      -36.606      -19.642        9.699        8.863        7.382       94.067       78.556       54.499        0.602        0.011      106.934        5.009        0.002      336.754        8.270      871.143
01/06/2015  18:14:00      -88.713      -45.836      -12.547       14.076       14.689       12.970      198.129      215.772      168.214        0.536        0.029       99.855        9.929        0.010      336.812        8.365      871.147
01/06/2015  18:15:00      -85.789      -34.213       -4.183       14.026       13.113       13.805      196.726      171.959      190.568        0.455        0.028       92.360        9.190        0.010      336.718        8.210      871.153
01/06/2015  18:16:00      -96.486      -42.840      -10.226       12.046       11.259        9.129      145.101      126.755       83.335        0.580        0.018      105.569        6.082        0.003      336.759        8.277      871.142
01/06/2015  18:17:00      -79.631      -40.596       -7.032       13.947        8.536       10.191      194.528       72.856      103.864        0.420        0.019       89.382        4.903        0.003      336.677        8.139      871.149
01/06/2015  18:18:00      -78.977      -45.947      -13.441       14.399       13.692        9.274      207.343      187.480       86.012        0.450        0.024       91.370        2.847        0.001      336.685        8.153      871.152
01/06/2015  18:19:00      -80.574      -30.672      -18.642        9.940        9.816        7.065       98.801       96.344       49.920        0.401        0.012       86.214        4.057        0.002      336.625        8.051      871.148
01/06/2015  18:20:00      -85.532      -28.450      -12.981       12.471       14.724       13.675      155.533      216.790      186.996        0.443        0.028       90.140        6.336        0.005      336.763        8.284      871.150
01/06/2015  18:21:00      -98.332      -29.064      -18.796       19.273       13.993       10.836      371.460      195.808      117.428        0.578        0.034      102.537        5.935        0.003      336.773        8.299      871.145
01/06/2015  18:22:00     -101.813      -40.007      -20.307       11.532       12.687       11.222      132.991      160.959      125.926        0.640        0.021      109.392        8.003        0.005      336.606        8.020      871.145
01/06/2015  18:23:00     -100.248      -40.477      -18.331       15.205       10.850       11.362      231.188      117.732      129.096        0.625        0.024      108.111        5.282        0.002      336.628        8.058      871.138
01/06/2015  18:24:00     -109.195      -45.847      -26.604       17.633       15.391       11.461      310.917      236.878      131.350        0.771        0.034      118.429        9.064        0.006      336.522        7.880      871.139
01/06/2015  18:25:00      -90.652      -48.848      -16.562       10.145       12.233        9.448      102.914      149.640       89.271        0.561        0.017      102.976        5.301        0.003      336.454        7.767      871.132
01/06/2015  18:26:00      -89.891      -59.205      -18.695       15.485       16.304       10.876      239.781      265.825      118.288        0.628        0.031      107.637        7.937        0.005      336.440        7.743      871.134
01/06/2015  18:27:00      -78.614      -49.383      -12.992       11.667       17.389        9.263      136.128      302.391       85.796        0.466        0.026       92.838        7.653        0.007      336.414        7.701      871.121
01/06/2015  18:28:00      -54.217      -54.133       -6.972       21.599       14.828       15.870      466.530      219.859      251.859        0.343        0.047       76.615       11.049        0.021      336.437        7.738      871.134
01/06/2015  18:29:00      -74.632      -32.550       -8.567       17.486       13.676       17.434      305.766      187.022      303.928        0.375        0.040       81.421       12.577        0.024      336.417        7.706      871.141
01/06/2015  18:30:00      -43.149      -27.709       -0.784       28.009       13.916       13.586      784.499      193.645      184.580        0.190        0.058       51.280        5.002        0.010      336.381        7.644      871.142
01/06/2015  18:31:00      -55.697      -43.962       -7.937       18.325       21.573       11.336      335.798      465.377      128.501        0.301        0.046       70.956        6.958        0.010      336.333        7.564      871.151
01/06/2015  18:32:00      -86.873      -37.010      -12.627       22.960       19.001       16.265      527.183      361.038      264.537        0.511        0.058       94.428       14.937        0.025      336.260        7.443      871.161
01/06/2015  18:33:00      -74.144      -31.190      -13.750       13.666       12.917        7.598      186.758      166.851       57.727        0.354        0.021       80.437        5.603        0.005      336.254        7.434      871.177
01/06/2015  18:34:00      -76.806      -29.315      -15.954       10.813        9.655        7.372      116.931       93.213       54.353        0.364        0.013       82.210        6.113        0.006      336.283        7.480      871.180
01/06/2015  18:35:00      -71.957      -31.578      -11.184        9.959       12.507       11.816       99.174      156.413      139.607        0.335        0.020       78.581        6.078        0.006      336.324        7.549      871.184
01/06/2015  18:36:00      -93.074      -22.935      -15.929       12.810       11.151        9.657      164.103      124.335       93.262        0.491        0.019       95.858        7.059        0.005      336.364        7.615      871.178
01/06/2015  18:37:00      -87.765      -21.680      -11.873       17.899       14.594       12.173      320.380      212.999      148.178        0.450        0.034       90.403        8.734        0.009      336.385        7.652      871.177
01/06/2015  18:38:00      -87.412      -33.600      -10.823       10.206       10.676        8.708      104.155      113.970       75.834        0.459        0.015       93.647        6.937        0.005      336.313        7.533      871.170
01/06/2015  18:39:00      -95.154      -30.394      -16.322       10.733       11.274        8.703      115.193      127.099       75.749        0.528        0.016       99.891        7.775        0.006      336.275        7.468      871.163
01/06/2015  18:40:00     -102.305      -19.179      -10.306       18.310       16.833       10.798      335.256      283.355      116.587        0.584        0.037      104.088       10.872        0.011      336.184        7.314      871.161
01/06/2015  18:41:00     -129.035      -17.431      -20.387       19.636       13.739       14.763      385.572      188.764      217.955        0.908        0.040      130.207       11.024        0.007      336.206        7.353      871.161
01/06/2015  18:42:00     -133.401      -13.290      -19.774       15.572       12.269       10.863      242.496      150.539      118.004        0.944        0.026      134.061        8.382        0.004      336.253        7.430      871.162
01/06/2015  18:43:00      -98.219      -32.483      -16.942       19.280       13.601       11.800      371.730      184.988      139.244        0.584        0.035      103.451        9.115        0.008      336.146        7.250      871.174
01/06/2015  18:44:00      -82.138      -48.050      -15.355       23.779       19.247       10.901      565.418      370.466      118.822        0.517        0.053       95.160        6.321        0.004      336.093        7.164      871.183
01/06/2015  18:45:00      -83.019      -50.885      -18.335       14.169       19.859       12.045      200.771      394.385      145.074        0.528        0.037       97.373       10.368        0.011      336.002        7.011      871.190
01/06/2015  18:46:00      -91.067      -55.776      -17.389       18.315       18.925       14.070      335.454      358.172      197.951        0.630        0.045      106.790       10.313        0.009      335.967        6.953      871.204
01/06/2015  18:47:00     -102.487      -37.229      -20.483       15.334       10.997       13.248      235.138      120.937      175.510        0.642        0.027      109.040        9.421        0.007      335.907        6.854      871.194
01/06/2015  18:48:00     -101.667      -35.351      -19.055        8.999       11.868        9.419       80.990      140.842       88.710        0.613        0.016      107.637        1.221        0.000      335.959        6.939      871.205
01/06/2015  18:49:00      -87.735      -24.508       -5.060       25.308       14.550       16.934      640.494      211.702      286.745        0.473        0.057       91.094       14.851        0.027      335.858        6.773      871.191
01/06/2015  18:50:00      -90.519      -29.863      -13.550       17.736       17.888       12.952      314.559      319.984      167.763        0.504        0.040       95.318        9.622        0.010      335.895        6.833      871.188
01/06/2015  18:51:00      -95.544      -30.024      -10.458       15.223       17.658       14.294      231.747      311.798      204.318        0.544        0.037      100.150        4.968        0.002      335.871        6.794      871.181
01/06/2015  18:52:00      -87.626      -43.856       -5.277       16.533       15.985       14.354      273.334      255.532      206.042        0.518        0.037       97.988       10.610        0.012      335.845        6.750      871.188
01/06/2015  18:53:00      -98.377      -41.191      -10.119       15.332       17.759       11.640      235.077      315.376      135.490        0.608        0.034      106.652        7.969        0.006      335.822        6.712      871.192
01/06/2015  18:54:00     -103.053      -58.846      -17.082       16.574       20.979        9.829      274.707      440.121       96.616        0.759        0.041      118.671        4.001        0.001      335.791        6.661      871.212
01/06/2015  18:55:00     -130.714      -27.236      -16.887       21.080       24.745       16.205      444.384      612.336      262.604        0.972        0.066      133.522       14.624        0.012      335.784        6.648      871.226
01/06/2015  18:56:00     -109.732      -27.944       -9.036       46.022       26.530       18.922     2117.979      703.833      358.040        0.804        0.159      113.234       23.936        0.045      335.723        6.547      871.249
01/06/2015  18:57:00      -90.592      -15.764       -7.277       30.391       23.318       16.837      923.625      543.718      283.481        0.513        0.088       91.953       11.849        0.017      335.776        6.636      871.257
01/06/2015  18:58:00      -78.215      -10.929      -13.226       27.921       25.512       18.005      779.563      650.850      324.195        0.408        0.088       78.975       14.661        0.034      335.793        6.664      871.267
01/06/2015  18:59:00      -68.325      -14.330      -12.788       14.745       17.304        9.849      217.420      299.440       97.011        0.283        0.031       69.811        3.543        0.003      335.908        6.855      871.280
01/06/2015  19:00:00      -87.363      -20.603      -17.310       23.044       10.387       11.266      531.030      107.896      126.933        0.456        0.038       89.760        8.976        0.010      335.817        6.703      871.276
01/06/2015  19:01:00     -104.309      -26.948      -22.714       17.458       15.278        9.796      304.787      233.423       95.963        0.638        0.032      107.733        5.315        0.002      335.758        6.605      871.282
01/06/2015  19:02:00      -66.471      -38.426      -16.959       22.220       20.664       13.128      493.738      427.003      172.357        0.364        0.055       76.779        6.839        0.008      335.659        6.441      871.288
01/06/2015  19:03:00      -87.109      -19.848      -14.765       16.179       17.071       11.037      261.749      291.427      121.817        0.444        0.034       89.342        9.137        0.010      335.626        6.386      871.294
01/06/2015  19:04:00      -90.251       -8.972      -13.285       16.651       12.146       10.220      277.253      147.537      104.442        0.447        0.026       90.696       10.048        0.012      335.555        6.268      871.309
01/06/2015  19:05:00      -80.237      -19.299      -18.835        9.833       13.013        8.527       96.689      169.348       72.708        0.375        0.017       82.525        4.382        0.003      335.606        6.353      871.306
01/06/2015  19:06:00      -80.872      -28.677      -19.193       12.938       15.062       10.411      167.400      226.876      108.392        0.412        0.025       85.806        9.470        0.012      335.546        6.252      871.304
01/06/2015  19:07:00      -95.208      -27.190      -20.688       15.044       16.394       13.829      226.336      268.753      191.243        0.546        0.034       99.014        5.591        0.003      335.641        6.411      871.307
01/06/2015  19:08:00      -98.928      -16.576      -15.552       16.590       12.019       10.097      275.213      144.447      101.943        0.541        0.026      100.307        7.214        0.005      335.563        6.280      871.324
01/06/2015  19:09:00     -111.830      -20.121      -20.093       19.013       16.249       10.957      361.486      264.021      120.050        0.703        0.037      113.625        7.264        0.004      335.526        6.218      871.331
01/06/2015  19:10:00     -119.753      -30.211      -14.980       29.055       22.386       13.583      844.187      501.134      184.488        0.850        0.076      123.505       16.342        0.018      335.475        6.133      871.344
01/06/2015  19:11:00     -113.574      -18.560      -17.685       16.664       17.328       14.560      277.687      300.260      211.988        0.717        0.039      115.080       10.689        0.009      335.522        6.211      871.361
01/06/2015  19:12:00     -106.645      -11.304      -22.593       20.561       14.704       10.894      422.760      216.217      118.678        0.638        0.038      107.243        6.878        0.004      335.589        6.324      871.371
01/06/2015  19:13:00      -98.741      -22.805      -15.663       26.585       21.685       14.918      706.736      470.224      222.560        0.596        0.070      101.341       16.039        0.025      335.604        6.347      871.394
01/06/2015  19:14:00     -108.554      -16.842      -16.746       14.254       14.667       11.356      203.180      215.134      128.959        0.645        0.027      109.852        9.327        0.007      335.511        6.193      871.396
01/06/2015  19:15:00     -113.605       -9.058      -23.401       20.754       17.318       12.307      430.744      299.896      151.460        0.721        0.044      113.966       10.568        0.009      335.580        6.309      871.407
01/06/2015  19:16:00     -108.323      -10.839      -23.900       22.926       16.978       11.316      525.621      288.254      128.060        0.668        0.047      108.864       10.933        0.010      335.506        6.185      871.399
01/06/2015  19:17:00     -110.569      -16.206      -20.841       19.538       11.860       13.564      381.745      140.669      183.970        0.681        0.035      111.750       10.443        0.009      335.408        6.022      871.401
01/06/2015  19:18:00     -106.023      -15.344      -19.567       16.428       11.015       14.026      269.879      121.336      196.738        0.622        0.029      107.128        9.079        0.007      335.379        5.973      871.397
01/06/2015  19:19:00     -120.038      -16.373      -19.320       25.182       18.314       17.484      634.151      335.412      305.698        0.816        0.064      121.150       12.575        0.011      335.406        6.017      871.390
01/06/2015  19:20:00     -115.505      -20.546      -23.754       20.874       21.915       12.682      435.735      480.266      160.829        0.770        0.054      117.318       10.988        0.009      335.367        5.953      871.385
01/06/2015  19:21:00     -102.532      -18.569      -16.696       32.847       16.760       16.137     1078.923      280.886      260.406        0.638        0.081      104.199       15.006        0.021      335.314        5.865      871.376
01/06/2015  19:22:00     -113.459      -39.095      -19.378       22.686       24.050       18.532      514.675      578.392      343.453        0.811        0.072      120.006       15.780        0.017      335.303        5.847      871.383
01/06/2015  19:23:00     -119.255      -15.952      -18.822       21.326       27.435       17.350      454.813      752.665      301.007        0.817        0.075      120.317       15.594        0.017      335.318        5.871      871.378
01/06/2015  19:24:00     -107.223      -14.204      -18.741       19.502       15.543       14.829      380.320      241.585      219.913        0.645        0.042      108.160       10.612        0.010      335.293        5.829      871.383
01/06/2015  19:25:00      -95.782      -11.188      -24.013       18.092       22.515       15.863      327.325      506.909      251.634        0.548        0.054       96.433       14.230        0.022      335.348        5.921      871.383
01/06/2015  19:26:00      -72.407      -32.399      -14.010       22.944       24.193       15.454      526.440      585.289      238.833        0.392        0.068       79.325        9.507        0.014      335.366        5.949      871.394
01/06/2015  19:27:00     -107.458      -32.184      -22.991       24.570       20.817       13.250      603.672      433.345      175.562        0.716        0.061      112.174       12.021        0.011      335.384        5.982      871.396
01/06/2015  19:28:00     -129.402      -27.079      -22.995       23.273       24.627       14.922      541.655      606.489      222.679        0.969        0.069      132.205        9.657        0.005      335.315        5.865      871.403
01/06/2015  19:29:00     -121.018      -33.028      -14.623       24.646       30.000       20.521      607.418      900.009      421.118        0.894        0.096      125.444       16.950        0.018      335.223        5.713      871.410
01/06/2015  19:30:00     -120.233      -47.333      -11.548       23.191       26.628       20.217      537.832      709.070      408.734        0.924        0.083      129.215       12.961        0.010      335.220        5.707      871.417
01/06/2015  19:31:00     -114.530      -43.122      -25.758       33.265       27.292       20.083     1106.568      744.878      403.322        0.895        0.113      122.379       12.569        0.011      335.249        5.758      871.428
01/06/2015  19:32:00      -98.666      -13.359      -11.895       20.465       27.445       14.141      418.805      753.218      199.955        0.571        0.069       99.566       13.822        0.019      335.282        5.812      871.436
01/06/2015  19:33:00     -110.462      -18.521      -17.268       32.838       31.059       20.464     1078.337      964.688      418.787        0.765        0.123      112.004       14.225        0.016      335.267        5.787      871.441
01/06/2015  19:34:00      -63.440      -22.360      -12.003       51.476       24.236       22.943     2649.791      587.376      526.359        0.422        0.188       67.265       24.548        0.133      335.254        5.763      871.441
01/06/2015  19:35:00      -52.342      -26.855      -13.118       37.284       19.848       22.250     1390.102      393.939      495.073        0.296        0.114       58.830       15.791        0.072      335.275        5.800      871.440
01/06/2015  19:36:00      -77.539      -42.006      -15.104       28.908       47.325       19.216      835.645     2239.610      369.246        0.572        0.172       88.186        9.698        0.012      335.282        5.812      871.442
01/06/2015  19:37:00      -60.545      -77.178       -6.568       29.933       30.161       27.937      895.958      909.677      780.484        0.613        0.129       98.093       20.464        0.044      335.235        5.733      871.448
01/06/2015  19:38:00      -51.952      -45.485       -0.526       36.695       28.661       24.296     1346.556      821.447      590.297        0.376        0.138       69.050       22.539        0.107      335.175        5.634      871.443
01/06/2015  19:39:00      -74.369      -54.220      -10.525       38.488       30.274       20.339     1481.303      916.511      413.668        0.570        0.141       92.035       16.301        0.031      335.165        5.616      871.447
01/06/2015  19:40:00      -54.135      -51.894        6.832       44.401       45.308       24.035     1971.426     2052.815      577.684        0.514        0.230       74.990       24.936        0.111      335.115        5.535      871.464
01/06/2015  19:41:00      -50.352      -43.076        0.134       35.668       24.260       26.689     1272.189      588.544      712.280        0.348        0.129       66.264       24.274        0.134      335.119        5.542      871.459
01/06/2015  19:42:00      -75.607      -40.598      -15.681       34.859       32.565       16.978     1215.146     1060.505      288.246        0.509        0.128       85.817       14.661        0.029      335.095        5.502      871.478
01/06/2015  19:43:00     -112.525      -10.795      -16.006       21.212       24.093       16.578      449.960      580.462      274.831        0.717        0.065      113.042       10.890        0.009      335.041        5.412      871.484
01/06/2015  19:44:00      -98.469      -49.747      -14.533       24.811       21.346       18.575      615.579      455.658      345.022        0.690        0.071      110.322        9.432        0.007      335.067        5.456      871.501
01/06/2015  19:45:00     -105.820      -47.293      -10.566       25.192       30.915       18.862      634.615      955.709      355.766        0.775        0.097      115.907        8.768        0.006      335.082        5.481      871.500
01/06/2015  19:46:00      -89.700      -45.659      -21.291       43.861       30.239       18.692     1923.777      914.420      349.406        0.689        0.159      100.652       10.601        0.011      335.109        5.527      871.500
01/06/2015  19:47:00      -64.407      -39.421       -7.544       45.895       36.092       24.028     2106.317     1302.605      577.336        0.487        0.199       75.513       19.997        0.070      335.043        5.416      871.502
01/06/2015  19:48:00      -97.330      -19.156      -14.977       27.650       23.964       18.170      764.545      574.285      330.158        0.587        0.083       99.197       14.111        0.020      334.985        5.319      871.513
01/06/2015  19:49:00      -96.725      -30.821      -11.333       24.640       21.850       23.795      607.146      477.408      566.218        0.604        0.083      101.517       16.171        0.025      335.007        5.355      871.524
01/06/2015  19:50:00      -87.094      -13.371       -2.200       31.110       31.972       21.568      967.814     1022.201      465.177        0.511        0.123       88.115       16.957        0.037      334.967        5.288      871.527
01/06/2015  19:51:00      -84.126      -35.699       -6.800       23.484       27.215       16.152      551.503      740.630      260.897        0.498        0.078       91.387       11.708        0.016      334.997        5.339      871.545
01/06/2015  19:52:00     -130.023      -21.632      -13.376       33.943       22.175       22.001     1152.118      491.751      484.044        0.984        0.106      131.810       18.793        0.020      335.067        5.456      871.551
01/06/2015  19:53:00     -114.122      -36.401       -6.455       38.353       28.799       19.536     1470.924      829.370      381.669        0.854        0.134      119.787       19.429        0.026      334.987        5.323      871.562
01/06/2015  19:54:00     -103.601       -8.463       -3.472       57.976       38.706       25.291     3361.238     1498.175      639.633        0.816        0.275      103.946       27.850        0.072      334.992        5.332      871.565
01/06/2015  19:55:00     -104.747      -27.414       -5.532       55.494       38.087       23.944     3079.549     1450.633      573.315        0.843        0.255      108.275       26.323        0.059      335.007        5.356      871.562
01/06/2015  19:56:00     -117.705      -55.839      -11.619       35.610       35.425       23.491     1268.067     1254.957      551.831        1.009        0.154      130.278       12.060        0.009      335.054        5.435      871.564
01/06/2015  19:57:00     -106.832      -55.408       -7.072       35.938       36.272       24.930     1291.512     1315.689      621.499        0.888        0.161      120.345       22.285        0.034      334.973        5.300      871.555
01/06/2015  19:58:00      -51.625      -27.775       -0.775       54.571       26.940       25.470     2978.009      725.789      648.696        0.389        0.218       58.623       25.516        0.189      334.961        5.279      871.555
01/06/2015  19:59:00      -79.641      -33.559       -4.568       43.177       37.011       24.505     1864.249     1369.802      600.488        0.566        0.192       86.423       21.479        0.062      334.949        5.259      871.559
01/06/2015  20:00:00     -120.580      -70.940       -9.017       26.382       31.327       22.261      695.987      981.389      495.534        1.091        0.109      139.900       19.095        0.019      334.940        5.245      871.551
01/06/2015  20:01:00      -58.151      -45.696       -1.692       41.481       25.223       16.303     1720.643      636.208      265.774        0.405        0.131       73.957        9.330        0.016      334.944        5.251      871.554
01/06/2015  20:02:00      -41.091      -39.869        3.028       35.247       29.922       17.764     1242.376      895.301      315.545        0.287        0.123       57.254       18.494        0.104      334.907        5.190      871.567
01/06/2015  20:03:00      -82.016      -44.582       -9.532       22.476       23.239       14.650      505.157      540.035      214.615        0.503        0.063       93.350       13.812        0.022      334.914        5.202      871.577
01/06/2015  20:04:00      -85.982      -48.194      -16.588       21.618       22.023       15.598      467.328      484.996      243.310        0.559        0.060       98.568        8.089        0.007      334.931        5.230      871.577
01/06/2015  20:05:00      -80.992      -73.672       -7.335       33.813       29.405       24.518     1143.314      864.682      601.127        0.732        0.130      109.486       21.330        0.038      334.910        5.195      871.577
01/06/2015  20:06:00      -89.175      -76.343      -12.698       40.247       29.089       23.288     1619.829      846.185      542.323        0.847        0.150      117.390       23.872        0.041      334.920        5.211      871.583
01/06/2015  20:07:00      -49.875      -45.461        4.586       40.036       32.630       27.554     1602.920     1064.693      759.202        0.400        0.171       67.485       25.674        0.145      334.875        5.135      871.582
01/06/2015  20:08:00      -85.196      -50.821      -14.110       53.923       37.527       24.080     2907.670     1408.286      579.861        0.747        0.245       99.202       27.687        0.078      334.902        5.182      871.580
01/06/2015  20:09:00     -103.262      -58.204      -13.473       30.060       25.167       16.235      903.605      633.397      263.561        0.802        0.090      118.536        8.788        0.005      334.886        5.154      871.596
01/06/2015  20:10:00      -82.319      -58.029       -1.261       35.813       25.624       19.638     1282.576      656.611      385.663        0.623        0.116      100.716       21.050        0.044      334.881        5.146      871.598
01/06/2015  20:11:00      -88.897      -57.203      -14.872       27.073       25.023       20.694      732.948      626.152      428.250        0.659        0.089      105.712       13.661        0.017      334.910        5.195      871.599
01/06/2015  20:12:00      -86.329      -45.272      -10.832       20.103       20.809       18.232      404.147      433.019      332.395        0.539        0.058       97.479       13.317        0.019      334.878        5.140      871.602
01/06/2015  20:13:00     -115.067      -24.896      -19.655       37.212       25.713       22.189     1384.760      661.150      492.346        0.839        0.127      117.730       18.410        0.024      334.933        5.233      871.597
01/06/2015  20:14:00     -128.463      -39.454      -17.981       26.355       26.767       18.033      694.582      716.483      325.178        1.006        0.087      134.385       10.619        0.006      334.793        5.000      871.597
01/06/2015  20:15:00     -102.881      -16.401      -15.282       41.148       29.861       19.470     1693.160      891.669      379.072        0.702        0.148      104.180       22.265        0.046      334.924        5.218      871.612
01/06/2015  20:16:00     -102.574        5.047      -19.202       56.227       36.223       24.783     3161.425     1312.095      614.192        0.800        0.254      102.698       23.634        0.053      335.100        5.510      871.619
01/06/2015  20:17:00      -99.877       -6.060       -8.499       52.253       31.427       23.005     2730.336      987.642      529.247        0.716        0.212      100.060       23.597        0.056      335.163        5.614      871.621
01/06/2015  20:18:00     -131.883        3.159      -15.669       49.300       38.292       25.088     2430.451     1466.269      629.420        1.109        0.226      131.921        9.284        0.005      335.178        5.640      871.625
01/06/2015  20:19:00     -123.178      -37.597      -12.424       36.550       40.453       18.016     1335.890     1636.435      324.572        1.002        0.165      128.788       14.354        0.012      334.981        5.314      871.639
01/06/2015  20:20:00     -103.369      -39.978      -15.439       32.077       29.514       21.563     1028.946      871.078      464.958        0.744        0.118      110.830       15.551        0.020      334.974        5.301      871.650
01/06/2015  20:21:00      -84.516      -20.891      -15.661       23.685       21.563       21.875      560.958      464.955      478.497        0.466        0.075       87.060       15.811        0.033      334.956        5.271      871.660
01/06/2015  20:22:00      -86.698      -38.438       -8.701       31.870       37.800       25.239     1015.675     1428.842      637.002        0.607        0.154       94.837       17.897        0.036      334.896        5.171      871.664
01/06/2015  20:23:00      -92.356      -21.438       -7.764       46.227       27.607       16.407     2136.908      762.147      269.188        0.611        0.158       94.811       21.407        0.051      334.831        5.062      871.676
01/06/2015  20:24:00      -84.086       -3.654       -6.935       35.626       36.528       20.196     1269.246     1334.280      407.896        0.507        0.151       84.165       15.752        0.035      335.015        5.370      871.666
01/06/2015  20:25:00      -98.564        7.236      -14.511       49.150       40.496       22.391     2415.716     1639.887      501.342        0.727        0.228       98.829       25.532        0.067      335.163        5.616      871.667
01/06/2015  20:26:00     -106.971        2.557      -14.988       29.731       30.953       20.307      883.921      958.075      412.388        0.696        0.113      107.001       11.151        0.011      335.236        5.736      871.679
01/06/2015  20:27:00     -110.278      -32.573      -12.971       36.017       35.737       19.551     1297.260     1277.150      382.226        0.817        0.148      114.988       16.058        0.020      334.985        5.320      871.678
01/06/2015  20:28:00      -92.560      -20.899       -9.577       32.268       23.207       18.994     1041.219      538.562      360.761        0.552        0.097       94.890       10.680        0.013      334.922        5.216      871.672
01/06/2015  20:29:00      -85.079      -32.670      -16.506       37.826       22.284       17.068     1430.819      496.588      291.329        0.540        0.111       91.136       18.791        0.043      334.869        5.127      871.680
01/06/2015  20:30:00      -70.244      -28.036       -5.232       28.604       32.141       14.765      818.211     1033.071      218.015        0.391        0.103       75.632       13.738        0.033      334.958        5.275      871.687
01/06/2015  20:31:00      -80.459      -48.270       -8.349       25.485       26.929       16.619      649.492      725.182      276.194        0.526        0.083       93.828        8.507        0.008      334.902        5.181      871.682
01/06/2015  20:32:00      -94.080      -41.738      -19.071       23.648       22.716       17.456      559.212      516.006      304.723        0.617        0.069      102.923       11.883        0.013      334.878        5.141      871.686
01/06/2015  20:33:00      -57.501      -25.474       -4.987       33.194       23.950       25.459     1101.828      573.589      648.165        0.315        0.116       62.891       18.894        0.090      334.850        5.094      871.684
01/06/2015  20:34:00      -43.861      -38.741       -6.780       33.331       27.498       22.025     1110.927      756.166      485.095        0.291        0.118       58.521       13.607        0.054      334.821        5.047      871.701
01/06/2015  20:35:00      -39.727      -55.517      -14.701       32.804       26.804       26.696     1076.081      718.471      712.692        0.369        0.125       68.267       24.014        0.124      334.751        4.931      871.710
01/06/2015  20:36:00      -77.451      -63.568       -8.467       22.163       18.551       20.330      491.206      344.154      413.302        0.568        0.062      100.197       14.258        0.020      334.766        4.955      871.719
01/06/2015  20:37:00     -120.358      -35.871      -14.416       24.422       17.439       11.610      596.415      304.115      134.786        0.851        0.052      125.589        8.424        0.004      334.794        5.000      871.710
01/06/2015  20:38:00     -120.912      -47.568      -13.544       13.787       15.421       10.829      190.084      237.817      117.276        0.881        0.027      129.932        8.993        0.005      334.815        5.035      871.707
01/06/2015  20:39:00     -108.029      -49.245       -7.218       32.041       14.222       11.593     1026.634      202.255      134.390        0.776        0.068      118.723       13.964        0.014      334.815        5.038      871.708
01/06/2015  20:40:00     -105.391      -33.535      -16.049       14.303       15.584       10.078      204.566      242.874      101.573        0.652        0.027      110.598        8.511        0.006      334.875        5.135      871.709
01/06/2015  20:41:00     -114.102      -39.316      -11.086       12.972       10.841        8.661      168.266      117.520       75.005        0.752        0.018      120.685        5.719        0.002      334.901        5.178      871.705
01/06/2015  20:42:00     -100.807      -40.069       -5.630       16.056        9.494       12.059      257.780       90.130      145.414        0.615        0.025      108.478        7.367        0.005      334.876        5.138      871.706
01/06/2015  20:43:00     -105.806      -48.159       -5.384       14.364       13.721       12.511      206.320      188.256      156.527        0.705        0.028      116.251        7.393        0.004      334.828        5.057      871.711
01/06/2015  20:44:00     -103.767      -55.061      -14.898       14.714       12.444       10.402      216.510      154.861      108.193        0.725        0.024      117.470        3.832        0.001      334.815        5.038      871.710
01/06/2015  20:45:00      -95.337      -46.783      -10.178        9.875       10.888        8.624       97.518      118.538       74.380        0.584        0.015      106.196        3.311        0.001      334.727        4.889      871.705
01/06/2015  20:46:00      -94.229      -35.852      -10.518       11.312       10.886        7.949      127.952      118.500       63.186        0.529        0.015      100.819        5.905        0.003      334.738        4.908      871.702
01/06/2015  20:47:00      -79.197      -36.842       -6.936       16.445       16.037       13.561      270.439      257.189      183.896        0.419        0.036       87.347       11.787        0.018      334.754        4.936      871.699
01/06/2015  20:48:00      -89.247      -33.358      -20.320        9.750        8.565        9.235       95.071       73.363       85.279        0.487        0.013       95.277        4.946        0.003      334.770        4.960      871.702
01/06/2015  20:49:00      -81.573      -27.966      -11.874        8.888       10.711        8.931       79.004      114.726       79.760        0.393        0.014       86.234        4.063        0.002      334.779        4.977      871.697
01/06/2015  20:50:00     -101.262      -39.252      -14.869        8.253        6.473        6.377       68.114       41.906       40.665        0.608        0.008      108.603        4.880        0.002      334.798        5.010      871.692
01/06/2015  20:51:00      -95.591      -27.851      -18.823        7.385       11.289        8.487       54.535      127.441       72.030        0.526        0.013       99.565        4.141        0.002      334.764        4.953      871.697
01/06/2015  20:52:00      -78.359      -32.000      -13.863       11.465       12.563       10.714      131.455      157.838      114.799        0.388        0.020       84.641        6.968        0.007      334.723        4.884      871.704
01/06/2015  20:53:00      -80.116      -29.657      -10.838       14.586       13.124        8.303      212.756      172.248       68.946        0.393        0.023       85.429        6.857        0.006      334.688        4.826      871.706
01/06/2015  20:54:00      -91.479      -31.817      -15.020        8.244        8.612        9.852       67.960       74.167       97.053        0.492        0.012       96.854        4.785        0.002      334.666        4.789      871.701
01/06/2015  20:55:00      -79.911      -31.162      -11.205       11.649       15.982       11.330      135.691      255.428      128.359        0.400        0.026       85.772        7.910        0.009      334.690        4.829      871.696
01/06/2015  20:56:00      -97.966      -28.968      -16.425        8.438       10.434       10.972       71.195      108.865      120.379        0.550        0.015      102.159        5.738        0.003      334.686        4.823      871.690
01/06/2015  20:57:00      -92.591      -29.377      -11.251       16.422       11.184       11.363      269.678      125.075      129.128        0.504        0.026       97.140       10.639        0.012      334.724        4.887      871.688
01/06/2015  20:58:00     -108.590      -36.561      -17.788       10.749       10.714        8.144      115.543      114.799       66.329        0.687        0.015      114.579        3.438        0.001      334.704        4.853      871.683
01/06/2015  20:59:00     -119.662      -35.660      -16.327        9.810       10.574        8.881       96.240      111.802       78.870        0.807        0.014      124.862        5.291        0.002      334.714        4.867      871.677
01/06/2015  21:00:00     -122.057      -33.755      -19.897        8.720       13.179        8.949       76.043      173.674       80.077        0.838        0.016      126.638        4.155        0.001      334.715        4.870      871.671
01/06/2015  21:01:00     -124.840      -23.684      -23.100       10.954       11.545       10.228      120.000      133.298      104.607        0.852        0.018      127.067        5.270        0.002      334.686        4.822      871.664
01/06/2015  21:02:00     -131.724      -27.789      -19.510       22.395       18.327       18.222      501.522      335.868      332.058        0.984        0.058      134.624       14.491        0.012      334.482        4.484      871.666
01/06/2015  21:03:00      -87.918      -49.010      -11.820       21.450       21.370       19.834      460.100      456.660      393.383        0.579        0.066      100.656       14.898        0.022      334.434        4.404      871.660
01/06/2015  21:04:00      -90.494      -39.746      -10.911       24.666       26.556       16.660      608.411      705.246      277.572        0.574        0.080       98.838       16.098        0.027      334.363        4.287      871.657
01/06/2015  21:05:00      -69.205      -46.933      -14.114       25.369       31.055       20.136      643.575      964.395      405.475        0.460        0.101       83.618       13.338        0.025      334.359        4.281      871.662
01/06/2015  21:06:00      -76.767      -69.911       -9.727       20.431       26.181       17.356      417.409      685.438      301.234        0.614        0.070      103.830       11.578        0.012      334.298        4.179      871.677
01/06/2015  21:07:00     -100.416      -45.092      -13.738       26.485       19.370       15.070      701.468      375.206      227.101        0.680        0.065      110.076       12.667        0.013      334.244        4.088      871.691
01/06/2015  21:08:00      -83.881      -54.026       -8.525       28.772       25.305       17.136      827.848      640.339      293.647        0.589        0.088       99.774       14.863        0.022      334.294        4.172      871.700
01/06/2015  21:09:00     -113.353      -32.600      -17.858       21.151       14.331       15.253      447.350      205.381      232.642        0.756        0.044      117.948       15.169        0.017      334.377        4.310      871.705
01/06/2015  21:10:00     -113.071      -50.986      -15.168       21.683       20.719       15.243      470.153      429.264      232.339        0.837        0.057      124.034       15.774        0.016      334.399        4.346      871.712
01/06/2015  21:11:00     -105.614      -43.052      -13.302       28.506       29.810       15.307      812.571      888.657      234.311        0.756        0.097      114.052       12.537        0.012      334.372        4.301      871.728
01/06/2015  21:12:00      -93.529      -61.199      -16.747       20.039       23.301       14.084      401.576      542.934      198.369        0.696        0.057      111.772        7.917        0.005      334.382        4.320      871.740
01/06/2015  21:13:00     -112.080      -57.540      -11.071       31.583       25.332       17.807      997.496      641.723      317.094        0.898        0.098      125.987       18.860        0.022      334.410        4.366      871.749
01/06/2015  21:14:00      -73.662      -62.542      -16.061       25.997       23.704       14.367      675.866      561.897      206.400        0.552        0.072       96.631       14.163        0.021      334.448        4.427      871.765
01/06/2015  21:15:00     -106.671      -41.123      -20.611       14.664       18.775       12.498      215.047      352.490      156.205        0.711        0.036      114.323        8.573        0.006      334.429        4.395      871.782
01/06/2015  21:16:00     -126.011      -41.578      -15.828       15.045       14.113       12.322      226.363      199.189      151.828        0.922        0.029      132.693        7.492        0.003      334.419        4.380      871.793
01/06/2015  21:17:00     -125.548      -25.273      -17.216       12.408       11.266        9.565      153.954      126.918       91.494        0.853        0.019      128.066        7.165        0.003      334.436        4.408      871.786
01/06/2015  21:18:00     -116.717      -26.731      -17.829       15.326       10.960        8.493      234.877      120.126       72.137        0.754        0.021      119.739        7.866        0.004      334.452        4.434      871.782
01/06/2015  21:19:00     -101.147      -25.208      -17.939       15.004       11.427        8.658      225.119      130.573       74.963        0.581        0.022      104.241        6.548        0.004      334.437        4.411      871.782
01/06/2015  21:20:00     -105.412      -28.838      -17.173        8.455        9.439        7.395       71.495       89.095       54.686        0.623        0.011      109.286        2.479        0.001      334.474        4.472      871.789
01/06/2015  21:21:00     -104.766      -27.863      -16.756       10.470       12.302        8.150      109.614      151.339       66.424        0.618        0.016      108.408        4.038        0.001      334.488        4.494      871.799
01/06/2015  21:22:00     -107.958      -29.897      -20.287       11.809       10.468        9.309      139.457      109.576       86.665        0.665        0.017      112.021        6.278        0.003      334.488        4.494      871.814
01/06/2015  21:23:00     -128.077      -34.218      -20.172       10.518       10.555        9.119      110.630      111.409       83.161        0.914        0.015      132.569        4.906        0.001      334.526        4.556      871.825
01/06/2015  21:24:00     -122.914      -33.515      -12.138       16.692       10.605        8.923      278.638      112.457       79.623        0.842        0.024      127.401        8.316        0.004      334.552        4.599      871.828
01/06/2015  21:25:00     -137.518      -14.928      -23.527        6.290        7.943        7.232       39.568       63.091       52.306        0.992        0.008      138.326        3.653        0.001      334.597        4.675      871.835
01/06/2015  21:26:00     -115.792      -16.357      -18.609       16.265       20.551       16.566      264.545      422.339      274.434        0.749        0.048      116.941       13.657        0.014      334.519        4.546      871.829
01/06/2015  21:27:00     -115.537      -24.138      -17.371       14.214       11.054        7.655      202.034      122.186       58.604        0.731        0.019      118.031        5.522        0.002      334.395        4.342      871.825
01/06/2015  21:28:00      -88.787      -27.325      -15.605       21.871       18.306       12.444      478.328      335.103      154.853        0.492        0.048       92.896       10.381        0.012      334.294        4.173      871.821
01/06/2015  21:29:00      -89.853      -21.791      -16.839       20.346       15.619       11.303      413.965      243.969      127.748        0.481        0.039       92.457       10.643        0.013      334.308        4.196      871.829
01/06/2015  21:30:00      -94.923      -24.786      -17.105       19.887       19.248       13.626      395.479      370.483      185.660        0.543        0.048       98.105        5.868        0.004      334.265        4.124      871.834
01/06/2015  21:31:00      -97.168      -25.118      -20.586       19.297       16.506       14.226      372.373      272.436      202.373        0.567        0.042      100.362       10.622        0.011      334.291        4.167      871.840
01/06/2015  21:32:00      -96.237      -14.688      -19.591       23.335       22.564       13.711      544.536      509.124      188.001        0.555        0.062       97.351        9.686        0.010      334.321        4.218      871.836
01/06/2015  21:33:00      -89.329      -32.455      -12.812       15.482       14.653       13.170      239.687      214.721      173.450        0.491        0.031       95.042        9.531        0.010      334.229        4.065      871.831
01/06/2015  21:34:00      -91.282      -39.822      -16.466       15.397       20.679       17.565      237.070      427.634      308.545        0.558        0.049       99.590       13.567        0.019      334.187        3.994      871.827
01/06/2015  21:35:00      -88.696      -27.130      -12.664       30.502       25.210       16.129      930.396      635.568      260.158        0.529        0.091       92.753       10.297        0.012      334.116        3.876      871.824
01/06/2015  21:36:00     -115.362      -18.612      -20.406       20.030       21.095       13.341      401.195      445.017      177.972        0.755        0.051      116.854       11.049        0.009      334.169        3.965      871.815
01/06/2015  21:37:00      -76.089      -27.972      -12.494       21.675       23.875       15.791      469.816      570.019      249.352        0.401        0.064       81.067       11.630        0.021      334.108        3.862      871.816
01/06/2015  21:38:00      -66.411      -37.952       -6.667       17.248       14.884       13.360      297.489      221.540      178.495        0.330        0.035       76.491        9.439        0.015      334.134        3.908      871.830
01/06/2015  21:39:00      -90.590      -17.022      -12.707       18.881       23.398       14.903      356.509      547.448      222.101        0.489        0.056       92.175        8.755        0.009      334.135        3.908      871.833
01/06/2015  21:40:00      -88.642      -29.399      -12.137       19.379       21.591       13.341      375.558      466.166      177.983        0.494        0.051       93.390       13.974        0.022      334.166        3.961      871.828
01/06/2015  21:41:00      -89.290      -11.595      -18.025       16.798       17.667       10.387      282.167      312.114      107.885        0.457        0.035       90.040        6.103        0.005      334.119        3.881      871.820
01/06/2015  21:42:00      -83.462      -21.409      -13.644       21.364       19.388       13.017      456.433      375.906      169.430        0.431        0.050       86.164       13.858        0.026      334.123        3.888      871.815
01/06/2015  21:43:00      -82.135      -28.620      -17.608       18.599       20.510       12.519      345.930      420.659      156.717        0.440        0.046       86.978        9.318        0.011      334.138        3.912      871.808
01/06/2015  21:44:00      -89.632      -20.520      -18.621       20.997       20.755       15.468      440.857      430.779      239.253        0.496        0.056       91.951       10.706        0.014      334.109        3.864      871.803
01/06/2015  21:45:00     -121.984      -14.877      -16.082       20.804       14.990       11.883      432.822      224.702      141.201        0.808        0.040      122.888        9.334        0.006      334.119        3.881      871.815
01/06/2015  21:46:00     -110.330      -16.100      -14.911       32.313       24.994       18.079     1044.111      624.720      326.863        0.732        0.100      111.499       17.345        0.024      334.086        3.826      871.821
01/06/2015  21:47:00      -97.484      -17.236      -19.333       25.038       20.656       15.485      626.897      426.690      239.787        0.573        0.065       98.996       15.757        0.025      334.025        3.725      871.820
01/06/2015  21:48:00      -90.768      -35.890      -18.381       20.520       22.610       11.934      421.088      511.205      142.425        0.547        0.054       97.606        9.002        0.009      333.993        3.674      871.824
01/06/2015  21:49:00     -108.896      -30.338      -15.503       26.288       21.028       18.101      691.063      442.158      327.653        0.724        0.073      113.043       11.849        0.011      333.957        3.612      871.824
01/06/2015  21:50:00     -105.878      -29.467      -16.346       16.634       20.260       12.437      276.680      410.483      154.684        0.659        0.042      109.902        6.994        0.004      333.990        3.668      871.821
01/06/2015  21:51:00     -105.654      -50.963      -18.382       20.285       16.164       12.287      411.472      261.272      150.961        0.746        0.041      117.303        8.158        0.005      334.056        3.776      871.817
01/06/2015  21:52:00     -114.411      -30.596      -21.687       12.094       12.848        9.871      146.264      165.063       97.436        0.745        0.020      118.431        7.827        0.004      334.097        3.843      871.802
01/06/2015  21:53:00     -126.313      -39.198      -20.970       15.507       12.671       13.232      240.476      160.565      175.076        0.925        0.029      132.255        8.775        0.004      334.105        3.859      871.794
01/06/2015  21:54:00     -127.294      -37.244      -14.091       14.312       11.454        9.916      204.842      131.196       98.320        0.911        0.022      132.630        7.003        0.003      334.053        3.773      871.794
01/06/2015  21:55:00     -130.582      -46.147      -15.420       12.320       10.343        8.873      151.791      106.974       78.732        0.988        0.017      138.496        3.266        0.001      334.071        3.801      871.788
01/06/2015  21:56:00     -118.221      -41.146       -9.880       13.634       15.206       11.766      185.895      231.208      138.444        0.816        0.028      125.177        8.785        0.005      334.031        3.735      871.787
01/06/2015  21:57:00     -119.037      -43.065      -16.589       12.805       10.546        8.738      163.962      111.225       76.360        0.833        0.018      126.588        6.010        0.002      334.020        3.716      871.793
01/06/2015  21:58:00     -116.587      -37.222      -14.340       14.278       13.106       10.062      203.859      171.768      101.239        0.783        0.024      122.384        2.246        0.000      334.071        3.800      871.798
01/06/2015  21:59:00     -117.915      -35.651      -13.064       14.738       13.072       11.572      217.221      170.884      133.904        0.793        0.026      123.187        6.374        0.003      334.060        3.784      871.808
01/06/2015  22:00:00     -123.367      -34.873      -14.346       17.044       10.825       10.621      290.489      117.177      112.804        0.858        0.026      128.202        4.226        0.001      334.061        3.784      871.804
01/06/2015  22:01:00     -126.537      -33.042      -11.981       16.236       12.313        9.930      263.605      151.614       98.606        0.888        0.026      130.780        6.070        0.002      334.061        3.785      871.794
01/06/2015  22:02:00     -118.027      -50.649      -15.463       13.109       11.596        9.928      171.847      134.468       98.571        0.857        0.020      128.436        7.359        0.003      334.025        3.725      871.775
01/06/2015  22:03:00     -119.387      -34.659      -20.079       12.112       11.760        8.687      146.707      138.295       75.463        0.811        0.018      124.316        5.333        0.002      333.910        3.535      871.778
01/06/2015  22:04:00     -108.883      -35.348      -15.004       17.800       15.020       10.453      316.831      225.614      109.262        0.699        0.033      114.477        5.100        0.002      333.893        3.508      871.786
01/06/2015  22:05:00     -106.133      -46.123       -9.786       15.839       19.303       10.478      250.877      372.623      109.797        0.711        0.037      115.722        6.518        0.003      333.899        3.517      871.785
01/06/2015  22:06:00     -107.111      -48.029      -20.114       12.333       11.787        9.332      152.105      138.936       87.081        0.728        0.019      117.387        6.737        0.003      333.907        3.528      871.786
01/06/2015  22:07:00     -118.432      -38.586      -19.013       13.877       17.026       11.150      192.560      289.894      124.319        0.824        0.030      124.559        9.368        0.006      333.966        3.628      871.793
01/06/2015  22:08:00     -103.388      -33.180      -12.114       13.361       10.973       11.129      178.511      120.402      123.844        0.618        0.021      108.582        8.411        0.006      333.967        3.630      871.806
01/06/2015  22:09:00      -92.766      -26.545      -16.372       10.646       11.584        8.609      113.327      134.199       74.114        0.495        0.016       96.490        4.268        0.002      333.939        3.583      871.816
01/06/2015  22:10:00      -98.424      -29.253      -12.776        8.414       13.606        8.485       70.794      185.112       71.998        0.552        0.016      102.679        6.571        0.004      333.914        3.541      871.818
01/06/2015  22:11:00     -120.876      -40.263      -19.425       17.490       10.173        9.864      305.894      103.491       97.304        0.856        0.025      127.405        4.402        0.001      333.889        3.500      871.817
01/06/2015  22:12:00     -120.008      -41.158      -13.885       14.250       12.350        9.853      203.066      152.524       97.085        0.837        0.023      126.870        6.129        0.002      333.859        3.451      871.816
01/06/2015  22:13:00     -112.802      -53.087       -9.707       12.473       13.156       10.427      155.566      173.087      108.729        0.804        0.022      124.670        6.664        0.003      333.762        3.288      871.829
01/06/2015  22:14:00     -111.147      -64.977      -13.519       19.242       14.775       14.771      370.247      218.298      218.179        0.878        0.040      128.747       11.537        0.008      333.838        3.415      871.845
01/06/2015  22:15:00      -98.479      -59.112       -8.115       26.897       17.071       17.910      723.449      291.424      320.753        0.730        0.067      114.858       16.045        0.020      333.863        3.457      871.872
01/06/2015  22:16:00     -101.543      -51.893      -10.595       15.939       16.305       13.300      254.046      265.848      176.903        0.691        0.035      114.034        8.945        0.006      333.878        3.483      871.906
01/06/2015  22:17:00      -99.497      -52.615      -10.894       12.495       11.527       11.284      156.121      132.864      127.330        0.660        0.021      112.552        7.196        0.004      333.904        3.525      871.933
01/06/2015  22:18:00     -105.287      -41.008      -14.252       10.104        9.537        7.972      102.095       90.948       63.545        0.661        0.013      112.991        4.784        0.002      333.906        3.529      871.958
01/06/2015  22:19:00     -114.588      -50.647      -11.963       11.960        9.500        9.258      143.032       90.250       85.702        0.808        0.016      125.282        6.909        0.003      333.937        3.579      871.969
01/06/2015  22:20:00     -118.131      -63.374      -10.489       14.453       11.354       10.045      208.877      128.906      100.910        0.926        0.022      134.057        8.288        0.004      333.924        3.559      871.963
01/06/2015  22:21:00     -108.910      -53.159      -15.425       16.179       10.031        7.657      261.762      100.613       58.635        0.767        0.021      121.191        5.225        0.002      333.897        3.512      871.970
01/06/2015  22:22:00     -125.075      -44.529      -10.073       16.949       12.302        9.991      287.279      151.344       99.830        0.913        0.027      132.765        8.452        0.004      333.877        3.480      871.974
01/06/2015  22:23:00     -124.130      -47.369      -14.470       22.808       16.300       12.282      520.211      265.679      150.841        0.940        0.047      132.861       13.281        0.010      333.863        3.454      872.003
01/06/2015  22:24:00     -133.222      -32.865      -13.898       16.846       14.530       10.511      283.803      211.117      110.482        0.981        0.030      137.216        8.481        0.004      333.864        3.459      872.011
01/06/2015  22:25:00     -134.480      -45.909      -11.515       17.852       17.288       14.803      318.684      298.881      219.130        1.058        0.042      142.101       10.557        0.006      333.848        3.430      872.014
01/06/2015  22:26:00     -108.695      -29.671       -8.209       25.132       18.461       17.541      631.638      340.816      307.672        0.702        0.064      112.672       13.269        0.014      333.869        3.467      872.005
01/06/2015  22:27:00     -131.100      -36.413      -12.516       24.002       19.197       15.644      576.119      368.525      244.749        0.993        0.059      136.063       16.093        0.014      333.736        3.246      872.008
01/06/2015  22:28:00     -129.678      -43.257      -15.552       13.994       15.873       12.751      195.828      251.940      162.589        0.977        0.031      136.702        9.800        0.005      333.632        3.075      872.018
01/06/2015  22:29:00     -112.765      -48.980      -19.967       20.201       14.810       15.228      408.081      219.341      231.882        0.819        0.043      122.943       10.892        0.008      333.574        2.978      872.027
01/06/2015  22:30:00      -86.510      -46.788      -12.330       19.978       24.156       16.210      399.106      583.516      262.764        0.554        0.062       98.352        8.078        0.007      333.625        3.062      872.035
01/06/2015  22:31:00      -84.449      -36.882       -7.799       24.213       21.412       19.090      586.291      458.488      364.445        0.498        0.070       92.152       18.573        0.041      333.609        3.037      872.034
01/06/2015  22:32:00     -114.593      -31.932      -11.386       26.031       20.449       17.719      677.593      418.181      313.970        0.785        0.070      118.959       10.715        0.008      333.588        3.002      872.031
01/06/2015  22:33:00     -123.095      -23.457      -11.781       26.713       21.050       15.968      713.606      443.105      254.981        0.863        0.071      125.310       13.356        0.011      333.545        2.929      872.052
01/06/2015  22:34:00     -113.871      -17.457      -17.382       28.076       18.759       15.726      788.263      351.891      247.312        0.748        0.069      115.201       11.461        0.010      333.541        2.922      872.060
01/06/2015  22:35:00      -93.360      -23.293      -17.530       21.861       19.387       15.840      477.917      375.851      250.906        0.534        0.055       96.222       11.532        0.014      333.536        2.914      872.063
01/06/2015  22:36:00      -95.772      -24.022      -11.417       33.620       39.018       18.274     1130.284     1522.435      333.922        0.643        0.149       98.739       18.519        0.035      333.572        2.974      872.066
01/06/2015  22:37:00     -107.684      -41.990      -17.471       21.498       26.803       14.193      462.184      718.384      201.438        0.752        0.069      115.581       10.946        0.009      333.521        2.889      872.080
01/06/2015  22:38:00      -89.904      -33.318       -9.719       31.781       32.682       20.369     1010.041     1068.144      414.915        0.589        0.125       95.880       13.459        0.020      333.531        2.905      872.084
01/06/2015  22:39:00      -82.611      -51.000      -15.017       17.324       24.232       16.857      300.105      587.168      284.169        0.541        0.059       97.085       10.468        0.012      333.565        2.963      872.091
01/06/2015  22:40:00      -93.406      -48.776      -19.093       19.687       29.312       13.397      387.567      859.181      179.487        0.645        0.071      105.374        6.131        0.003      333.574        2.978      872.094
01/06/2015  22:41:00     -115.086      -44.712      -21.058       20.355       21.291       18.437      414.334      453.313      339.925        0.845        0.060      123.466        8.525        0.005      333.540        2.920      872.101
01/06/2015  22:42:00      -92.439      -47.357      -16.960       22.778       29.401       13.185      518.845      864.414      173.843        0.632        0.078      103.864       11.286        0.012      333.526        2.896      872.110
01/06/2015  22:43:00      -71.311      -46.866      -10.258       27.007       24.226       20.447      729.395      586.890      418.071        0.456        0.087       85.333       16.520        0.037      333.555        2.946      872.108
01/06/2015  22:44:00      -91.395      -55.380      -19.074       14.722       12.523        9.788      216.735      156.831       95.811        0.613        0.023      106.864        5.400        0.003      333.510        2.871      872.102
01/06/2015  22:45:00      -79.262      -44.812       -5.289       28.192       24.381       18.210      794.764      594.414      331.606        0.502        0.086       91.053       17.130        0.035      333.508        2.868      872.108
01/06/2015  22:46:00     -119.230      -20.176      -15.735       25.138       18.966       15.149      631.899      359.700      229.501        0.805        0.061      120.925       14.891        0.015      333.500        2.854      872.116
01/06/2015  22:47:00     -120.193       -3.210      -17.893       30.914       27.891       19.300      955.688      777.906      372.472        0.844        0.105      120.236       15.674        0.017      333.494        2.844      872.113
01/06/2015  22:48:00      -87.424       -5.008       -9.021       41.349       28.689       23.426     1709.750      823.062      548.792        0.541        0.154       87.567       19.456        0.049      333.617        3.048      872.107
01/06/2015  22:49:00     -114.620       -9.499      -17.265       39.488       24.401       19.662     1559.339      595.386      386.608        0.803        0.127      115.013       21.043        0.033      333.713        3.209      872.109
01/06/2015  22:50:00     -115.763       -8.380      -17.248       25.906       21.622       18.065      671.113      467.491      326.333        0.762        0.073      116.066       16.045        0.019      333.570        2.971      872.108
01/06/2015  22:51:00     -109.872      -17.132      -18.225       25.275       16.557       18.678      638.833      274.122      348.872        0.698        0.063      111.199       14.471        0.017      333.554        2.943      872.102
01/06/2015  22:52:00     -103.829      -12.874      -19.599       21.539       17.130       14.893      463.933      293.426      221.803        0.615        0.049      104.624       12.240        0.014      333.553        2.942      872.093
01/06/2015  22:53:00      -83.470      -21.310      -16.811       20.010       19.094       10.653      400.384      364.587      113.480        0.429        0.044       86.147        8.942        0.011      333.519        2.888      872.100
01/06/2015  22:54:00      -65.977      -40.293       -9.065       17.128       24.543       13.668      293.361      602.343      186.820        0.357        0.054       77.308       10.967        0.020      333.584        2.993      872.098
01/06/2015  22:55:00      -63.040      -32.504       -6.726       20.178       19.417       12.395      407.144      377.038      153.635        0.301        0.047       70.926        6.840        0.009      333.600        3.020      872.092
01/06/2015  22:56:00      -76.751      -17.881      -12.510       12.924       13.288        9.925      167.035      176.563       98.507        0.340        0.022       78.806        1.691        0.000      333.596        3.014      872.092
01/06/2015  22:57:00      -63.056      -22.187      -14.304       11.208       14.362       10.021      125.610      206.270      100.416        0.255        0.022       66.846        6.881        0.011      333.679        3.152      872.109
01/06/2015  22:58:00      -57.821      -34.065       -2.950       14.700       19.243       10.021      216.095      370.303      100.415        0.260        0.034       67.109        8.870        0.017      333.606        3.030      872.120
01/06/2015  22:59:00      -95.392      -30.012      -17.921       13.484       11.955        9.968      181.827      142.932       99.353        0.537        0.021      100.001        5.721        0.003      333.600        3.022      872.130
01/06/2015  23:00:00      -86.986      -21.928      -21.257       16.741       12.986       10.563      280.258      168.624      111.581        0.453        0.028       89.707       10.513        0.014      333.599        3.019      872.137
01/06/2015  23:01:00      -78.874      -21.595      -15.107       17.378       12.985       10.430      302.002      168.603      108.777        0.375        0.029       81.777        5.962        0.005      333.588        3.001      872.147
01/06/2015  23:02:00      -91.010      -10.761      -19.039       16.505       13.202       10.457      272.423      174.301      109.350        0.466        0.028       91.644        7.983        0.008      333.607        3.032      872.135
01/06/2015  23:03:00      -87.149      -25.136      -14.056       15.078       12.588       10.182      227.358      158.449      103.672        0.446        0.024       90.702        6.787        0.006      333.634        3.077      872.127
01/06/2015  23:04:00     -101.556      -34.218      -17.309       10.739       11.150       12.343      115.337      124.317      152.341        0.609        0.020      107.166        8.013        0.006      333.615        3.046      872.115
01/06/2015  23:05:00     -113.652      -42.004      -17.931       11.177       13.367        9.723      124.930      178.683       94.542        0.770        0.020      121.166        5.392        0.002      333.636        3.080      872.097
01/06/2015  23:06:00     -123.357      -33.564      -16.750       22.298       11.299       10.118      497.202      127.656      102.372        0.868        0.036      127.842        6.893        0.003      333.620        3.053      872.061
01/06/2015  23:07:00     -125.276      -21.697      -12.126       18.281       15.941       14.205      334.209      254.117      201.782        0.855        0.040      127.141       10.437        0.007      333.644        3.093      872.029
01/06/2015  23:08:00     -113.044      -34.669      -16.244       13.295       11.822        8.572      176.760      139.755       73.481        0.732        0.019      118.241        3.196        0.001      333.652        3.106      872.013
01/06/2015  23:09:00      -94.822      -33.901      -11.219       10.234        9.351        8.291      104.733       87.437       68.740        0.526        0.013      100.700        4.192        0.002      333.646        3.096      872.001
01/06/2015  23:10:00      -96.667      -37.782      -12.598       10.802       10.786        7.856      116.679      116.336       61.713        0.561        0.015      103.788        5.096        0.002      333.598        3.017      871.989
01/06/2015  23:11:00      -96.679      -39.358       -8.010       14.144       17.335       11.149      200.050      300.516      124.300        0.579        0.031      104.383        9.405        0.008      333.596        3.015      871.982
01/06/2015  23:12:00     -119.613      -33.687       -9.687       15.044       15.932        9.032      226.318      253.825       81.575        0.805        0.028      124.266        5.751        0.002      333.568        2.967      871.972
01/06/2015  23:13:00     -106.498      -28.046       -8.376       15.250       12.663       10.853      232.551      160.360      117.791        0.635        0.026      110.129        8.075        0.005      333.583        2.992      871.968
01/06/2015  23:14:00     -101.459      -39.692      -10.733       14.437       13.812       11.050      208.418      190.759      122.111        0.625        0.026      108.946        3.423        0.001      333.567        2.966      871.970
01/06/2015  23:15:00      -97.280      -37.269       -7.043       16.521       17.499       13.877      272.959      306.223      192.577        0.584        0.039      104.175        7.277        0.005      333.429        2.737      871.968
01/06/2015  23:16:00     -102.189      -51.217      -13.048       14.817       14.666       11.699      219.539      215.099      136.873        0.690        0.029      114.305        8.855        0.006      333.379        2.655      871.968
01/06/2015  23:17:00     -114.883      -52.273      -12.876       12.008       13.567       10.242      144.199      184.070      104.908        0.826        0.022      126.217        7.919        0.004      333.435        2.746      871.974
01/06/2015  23:18:00     -114.536      -36.463      -10.008       18.141       16.328       14.475      329.084      266.601      209.537        0.768        0.040      120.200       11.261        0.009      333.467        2.799      871.967
01/06/2015  23:19:00     -107.630      -42.097       -5.286       16.602       16.481       10.927      275.633      271.631      119.397        0.703        0.033      115.569        6.311        0.003      333.503        2.859      871.961
01/06/2015  23:20:00     -118.201      -37.251      -13.298       15.547       15.488       10.668      241.694      239.878      113.805        0.807        0.030      123.931        8.512        0.005      333.486        2.830      871.949
01/06/2015  23:21:00     -125.780      -36.541      -15.417       18.569       13.256       10.185      344.813      175.711      103.727        0.901        0.031      130.980        9.101        0.005      333.452        2.773      871.939
01/06/2015  23:22:00     -131.810      -38.455      -15.174       10.565       12.333       10.409      111.616      152.094      108.344        0.973        0.019      137.305        5.618        0.002      333.398        2.686      871.928
01/06/2015  23:23:00      -87.615      -49.097       -9.760       26.821       19.543       15.870      719.340      381.924      251.843        0.577        0.068      100.434        6.894        0.005      333.321        2.559      871.919
01/06/2015  23:24:00      -90.094      -56.018       -7.330       15.760       18.420       12.774      248.369      339.298      163.172        0.603        0.038      106.089        9.311        0.008      333.326        2.567      871.918
01/06/2015  23:25:00      -98.140      -44.390      -14.618       14.371       17.823       10.275      206.515      317.674      105.573        0.622        0.031      107.712        9.824        0.008      333.283        2.496      871.933
01/06/2015  23:26:00      -73.153      -40.044       -8.508       19.814       19.624       14.236      392.580      385.106      202.657        0.400        0.049       83.396       11.024        0.017      333.365        2.630      871.950
01/06/2015  23:27:00      -52.785      -39.020       -1.024       30.054       21.566       15.686      903.225      465.105      246.045        0.296        0.081       65.642       16.754        0.065      333.360        2.623      871.961
01/06/2015  23:28:00      -92.332      -26.564      -13.734       11.771       13.994       10.927      138.559      195.844      119.396        0.494        0.023       96.077        8.686        0.008      333.448        2.769      871.966
01/06/2015  23:29:00      -93.519      -17.834      -16.928       10.570        9.071        7.078      111.722       82.290       50.093        0.480        0.012       95.204        4.877        0.003      333.405        2.698      871.955
01/06/2015  23:30:00      -90.990      -23.974      -13.478       15.395       13.833        7.829      237.013      191.355       61.293        0.476        0.024       94.096        8.465        0.008      333.424        2.729      871.948
01/06/2015  23:31:00      -81.234      -34.453      -12.509        8.926       10.252        6.927       79.667      105.100       47.988        0.409        0.012       88.239        3.982        0.002      333.385        2.666      871.938
01/06/2015  23:32:00      -85.819      -38.419      -10.353        8.630        7.785        5.646       74.475       60.613       31.879        0.456        0.008       94.026        4.534        0.002      333.375        2.651      871.932
01/06/2015  23:33:00      -99.448      -36.925      -13.597       16.691        9.578       11.456      278.576       91.731      131.249        0.597        0.025      106.082        2.270        0.000      333.367        2.636      871.922
01/06/2015  23:34:00     -108.676      -27.742      -15.401       10.978       11.581        9.504      120.518      134.109       90.321        0.658        0.017      112.161        5.266        0.002      333.381        2.660      871.910
01/06/2015  23:35:00      -95.004      -29.365      -13.347       12.692        9.931        7.870      161.090       98.632       61.939        0.519        0.016       99.439        4.645        0.002      333.375        2.649      871.907
01/06/2015  23:36:00      -96.326      -32.642      -10.768       19.562       15.975       10.188      382.672      255.192      103.800        0.560        0.037      101.706        9.369        0.008      333.333        2.579      871.912
01/06/2015  23:37:00      -98.538      -45.826      -10.415       12.450       12.964        7.273      154.991      168.063       52.900        0.615        0.019      108.673        4.026        0.001      333.352        2.611      871.933
01/06/2015  23:38:00      -86.234      -50.392       -5.226       14.982       13.976       10.745      224.462      195.342      115.461        0.527        0.027       99.878        8.538        0.007      333.308        2.539      871.944
01/06/2015  23:39:00      -87.448      -47.405      -11.134        7.913       10.751        7.426       62.610      115.581       55.139        0.513        0.012       99.471        5.117        0.003      333.318        2.555      871.956
01/06/2015  23:40:00      -87.655      -37.838      -11.809        9.741        9.500        8.006       94.890       90.251       64.098        0.475        0.012       95.473        3.262        0.001      333.365        2.631      871.963
01/06/2015  23:41:00      -81.656      -30.903      -10.203        8.630       13.706        6.764       74.469      187.842       45.757        0.402        0.015       87.308        3.674        0.002      333.309        2.538      871.970
01/06/2015  23:42:00      -75.849      -25.993      -12.842        9.160        7.678        7.633       83.905       58.948       58.260        0.340        0.010       80.180        3.926        0.002      333.289        2.504      871.960
01/06/2015  23:43:00      -66.646      -16.327      -12.585        9.118       11.219        7.921       83.135      125.874       62.734        0.257        0.014       68.617        5.622        0.007      333.306        2.535      871.953
01/06/2015  23:44:00      -71.190      -14.550      -11.077        6.156        8.140        6.041       37.891       66.252       36.496        0.277        0.007       72.661        1.837        0.001      333.327        2.568      871.935
01/06/2015  23:45:00      -70.133      -18.654      -12.928        8.029        5.666        5.163       64.468       32.107       26.653        0.278        0.006       72.572        2.228        0.001      333.344        2.598      871.917
01/06/2015  23:46:00      -67.841      -24.621      -10.574        6.454        7.070        5.898       41.658       49.985       34.783        0.272        0.006       72.171        2.580        0.001      333.374        2.648      871.903
01/06/2015  23:47:00      -74.281      -18.866      -13.859       10.806        9.695        6.867      116.762       93.994       47.160        0.316        0.013       76.639        3.851        0.003      333.399        2.687      871.891
01/06/2015  23:48:00      -69.989      -26.385      -10.263       14.250       12.394       10.065      203.072      153.618      101.308        0.308        0.023       74.798        7.246        0.009      333.366        2.634      871.878
01/06/2015  23:49:00      -59.017      -26.154       -9.582        7.579        8.885        8.560       57.448       78.939       73.276        0.223        0.010       64.553        4.422        0.005      333.344        2.598      871.860
01/06/2015  23:50:00      -64.429       -7.956      -10.565        7.869       15.371        4.969       61.923      236.271       24.687        0.232        0.016       64.918        2.551        0.002      333.526        2.898      871.843
01/06/2015  23:51:00      -46.910      -27.098      -11.475       13.114       11.612        8.311      171.982      134.830       69.078        0.172        0.019       54.174        4.006        0.005      333.287        2.503      871.832
01/06/2015  23:52:00      -62.462      -28.840      -10.667       16.550       14.245       11.212      273.906      202.916      125.699        0.272        0.030       68.798        9.332        0.018      333.170        2.308      871.825
01/06/2015  23:53:00      -83.439      -24.776       -7.842       18.992       18.853       10.988      360.715      355.430      120.731        0.424        0.042       87.040        7.471        0.007      333.032        2.081      871.826
01/06/2015  23:54:00      -79.133      -22.384      -12.720       11.199       12.534       12.565      125.423      157.097      157.889        0.368        0.022       82.238        3.794        0.002      333.042        2.098      871.831
01/06/2015  23:55:00      -79.552      -38.819      -12.583       13.418       11.242        9.508      180.052      126.393       90.401        0.420        0.020       88.518        4.224        0.002      333.040        2.095      871.842
01/06/2015  23:56:00     -100.667      -53.144      -16.022       13.651       14.345        9.479      186.347      205.787       89.844        0.685        0.024      113.834        2.809        0.001      332.975        1.985      871.844
01/06/2015  23:57:00     -109.735      -24.805      -16.447       18.941       12.132        9.766      358.750      147.182       95.366        0.676        0.030      112.504        7.388        0.004      332.996        2.022      871.835
01/06/2015  23:58:00     -118.660      -35.508       -9.850       28.693       18.169       13.374      823.273      330.122      178.865        0.838        0.067      123.859       15.148        0.015      333.084        2.168      871.832
01/06/2015  23:59:00     -112.462      -63.696       -9.460       23.612       17.708       10.737      557.549      313.560      115.292        0.889        0.049      129.248       11.203        0.008      333.065        2.136      871.825
